GFSNGP_850_spd_000.txt.gz
Wind_Speed
7 10 13 11 13 12 14 14 10 14 14 14 13 13 12 5 14 20 18 17 18 17 15 20 16 14 13 15 22 25 15 17 12 10 11 14 16 15 16 17 17 17 18 17
4 8 10 12 14 14 13 12 13 14 15 6 9 8 7 15 20 19 15 16 18 18 15 15 15 18 14 16 18 17 14 10 8 11 13 14 15 17 18 18 17 17 18 18
4 9 13 6 3 4 4 4 8 10 8 8 7 11 16 21 19 11 15 18 20 16 18 18 20 17 18 19 14 11 12 8 10 12 14 15 17 18 18 18 18 19 18 17
3 5 3 3 5 9 13 13 8 9 3 6 11 20 24 7 7 12 19 18 18 18 21 23 21 20 20 18 14 13 13 12 12 13 14 16 18 18 18 19 20 19 19 18
2 4 14 12 4 2 2 11 3 3 8 17 24 23 11 8 16 20 15 17 21 22 25 26 22 21 20 18 16 15 16 16 12 13 14 16 17 18 20 21 20 19 19 20
3 4 4 3 3 4 4 8 3 10 20 22 24 12 4 21 18 15 17 18 22 24 25 23 21 20 20 20 19 18 15 14 13 13 14 16 17 20 21 22 21 20 20 20
6 6 7 6 5 1 3 3 14 12 8 10 6 7 19 14 14 16 19 20 22 24 25 24 24 22 20 18 15 12 12 14 15 13 14 15 18 21 23 24 21 21 23 24
3 4 6 2 2 2 5 12 6 7 7 10 11 12 12 14 17 19 20 23 25 27 28 26 24 20 19 16 13 13 15 17 14 13 13 16 20 22 23 23 20 22 22 23
7 6 6 11 11 7 7 6 7 3 6 9 8 12 14 16 19 21 23 25 27 27 28 27 25 22 19 17 14 14 17 16 13 13 14 17 21 23 22 19 18 19 20 22
6 11 14 14 10 5 5 7 4 6 5 6 11 13 17 20 23 24 25 26 26 27 28 28 25 20 16 15 15 16 17 15 13 13 16 17 19 18 17 16 16 17 19 20
11 15 15 7 2 5 9 8 5 5 7 9 11 16 20 23 24 24 25 25 25 26 28 29 25 20 15 17 13 16 15 12 12 12 14 16 16 14 14 12 16 16 15 17
4 6 9 8 10 11 11 7 5 6 8 10 15 20 22 24 25 25 26 26 27 27 28 27 22 18 16 13 17 18 16 11 11 15 12 12 12 13 16 19 18 16 17 18
10 8 10 8 5 4 5 4 6 8 12 18 22 21 22 25 26 28 26 27 27 27 27 26 21 16 10 16 16 17 15 15 11 11 9 9 11 13 13 13 19 20 20 18
6 6 3 5 4 3 3 5 10 16 19 21 22 22 24 27 29 28 27 28 26 25 25 20 13 12 12 14 16 16 15 11 9 7 6 9 11 11 11 13 15 14 16 20
3 4 4 4 2 3 7 12 16 19 22 23 22 24 26 29 29 29 27 24 22 23 19 15 13 11 12 13 14 14 10 6 8 7 9 13 12 10 10 12 13 13 13 13
7 6 3 0 5 8 12 15 19 21 22 25 26 28 27 26 28 32 31 27 27 24 18 15 12 11 12 13 10 10 9 8 5 6 8 9 8 9 10 11 11 12 12 12
7 4 2 5 9 12 14 15 17 21 28 27 31 33 34 34 35 33 31 23 23 21 16 11 11 11 13 12 8 8 8 6 6 5 7 8 7 8 9 10 10 10 11 12
4 0 4 8 12 14 17 20 25 26 28 30 32 33 34 33 33 35 30 23 23 18 12 11 12 12 13 8 9 8 6 6 5 6 7 8 8 7 8 9 9 9 10 10
3 8 13 16 17 19 23 25 25 27 30 31 32 31 31 33 31 28 22 23 24 16 10 10 12 12 9 10 9 8 5 5 5 5 8 10 8 8 8 8 9 8 8 8
11 15 17 19 18 20 23 23 25 29 30 31 30 31 33 34 27 21 21 24 23 12 12 11 13 12 10 11 11 7 8 7 6 7 9 10 9 8 8 10 10 8 8 8
17 18 19 19 20 23 23 23 26 29 30 28 28 30 30 31 27 23 22 23 17 8 9 9 11 10 8 7 7 9 7 5 6 8 8 8 10 9 9 9 9 8 8 7
21 23 20 19 23 27 25 25 27 29 28 30 31 28 26 28 28 25 23 22 13 9 9 10 9 11 8 9 6 8 6 5 6 8 9 9 10 9 9 10 10 9 8 8
23 20 20 23 25 26 26 27 29 29 30 31 31 25 23 25 25 25 25 20 8 9 10 10 10 10 10 9 7 7 5 4 4 5 6 7 9 10 10 11 11 11 10 9
19 20 23 24 24 25 27 28 30 30 29 30 27 27 24 25 26 24 22 11 10 9 11 9 10 10 10 10 9 9 9 8 8 8 10 11 11 12 11 12 12 12 12 13
21 23 24 23 22 21 25 30 32 28 25 27 28 27 23 20 23 25 17 10 10 11 11 11 12 12 12 11 11 10 11 10 9 9 9 10 10 11 11 12 13 13 13 14
24 23 20 21 22 25 28 27 29 27 23 28 30 29 26 20 22 19 12 11 12 12 12 11 11 13 14 13 13 12 11 11 10 10 9 9 9 11 12 12 13 14 15 15
23 19 19 21 22 24 24 23 27 25 22 24 28 27 25 20 18 15 13 13 15 16 18 18 15 13 14 15 14 13 12 12 11 10 9 8 9 10 11 12 12 14 15 16

GFSNGP_850_spd_003.txt.gz
Wind_Speed
9 11 9 10 12 12 13 13 11 13 15 14 11 11 13 9 12 17 19 19 18 24 23 20 18 18 19 17 19 19 19 19 19 15 14 16 17 18 19 20 20 19 20 20
4 6 7 12 14 16 12 8 13 12 14 10 9 10 13 19 22 20 17 17 21 25 23 21 20 21 22 19 20 21 20 21 19 17 16 17 17 18 20 20 20 20 22 22
4 10 11 6 3 3 5 8 7 10 10 10 11 17 17 18 17 15 16 21 26 20 20 22 22 24 24 23 23 20 22 22 20 18 17 17 17 19 20 21 21 22 22 21
3 6 2 5 7 13 9 9 10 8 9 10 14 17 16 7 12 17 21 20 19 21 22 24 26 26 26 25 27 25 24 23 21 17 19 17 18 20 21 22 22 22 22 20
2 5 14 12 4 5 7 12 12 6 10 14 21 19 8 7 18 18 16 18 20 22 24 26 27 28 28 28 29 27 25 22 18 20 18 18 19 21 22 23 23 22 20 21
3 3 4 3 2 4 6 9 8 6 12 13 16 11 11 20 19 17 18 20 22 23 26 28 29 29 30 30 29 27 21 20 19 17 18 17 19 22 22 23 23 22 22 23
6 5 8 8 3 5 4 3 7 11 7 13 10 14 18 17 17 18 20 22 24 26 28 29 30 30 30 31 29 24 16 15 17 18 17 18 20 21 23 23 22 20 28 26
3 4 6 3 4 2 10 15 6 6 8 10 13 16 14 15 17 20 23 26 27 29 29 30 30 30 31 33 29 20 13 15 17 18 16 18 20 21 22 23 19 21 23 25
8 6 10 8 10 14 9 7 7 8 12 12 14 15 15 17 20 23 26 28 29 29 30 30 30 30 32 29 22 14 15 16 17 16 17 18 19 21 21 18 17 19 21 23
7 7 17 11 17 2 2 5 8 11 11 12 14 14 17 21 23 26 28 30 29 30 30 31 30 30 27 23 16 19 18 17 17 16 16 16 17 18 16 16 16 17 19 19
14 19 19 17 3 2 9 11 8 9 11 12 13 17 22 25 27 28 30 29 30 29 30 30 30 29 25 21 18 17 16 15 15 13 13 16 15 14 15 14 20 23 18 17
11 10 5 10 13 15 14 9 7 8 11 11 17 23 26 28 28 29 30 31 31 32 32 30 28 27 23 17 14 14 14 13 12 13 12 12 12 12 16 19 21 24 22 24
11 4 5 9 12 10 8 5 6 8 11 18 22 25 27 28 29 30 31 31 30 31 28 27 27 21 15 15 16 15 16 12 11 11 10 9 10 12 13 13 19 21 22 26
4 3 7 6 7 4 4 5 7 12 16 19 24 25 26 28 30 30 30 30 30 29 26 24 21 17 14 11 12 16 16 12 11 9 8 9 10 11 10 12 14 13 18 22
2 6 10 4 3 3 5 8 13 16 20 22 22 24 24 26 28 30 30 29 27 26 22 20 19 16 12 14 14 10 14 10 11 8 9 11 10 10 10 11 12 14 14 14
5 6 5 3 3 5 8 12 16 20 20 22 22 22 23 27 28 29 28 25 30 32 24 23 19 14 11 10 10 10 11 16 9 7 8 9 10 10 9 10 11 12 13 14
9 7 5 4 6 9 12 14 17 19 20 21 21 30 33 32 34 31 33 31 25 25 24 21 16 12 14 13 10 9 11 13 12 9 8 9 8 8 9 10 10 11 12 18
5 4 2 4 8 12 14 15 16 18 21 24 29 32 32 32 33 36 35 27 23 25 24 18 13 12 13 11 12 11 11 9 10 10 9 10 10 9 9 9 10 11 11 12
4 2 5 8 11 13 15 17 18 23 26 27 30 32 32 32 33 32 32 28 25 25 24 14 12 12 14 12 13 8 11 9 9 10 11 11 10 10 10 11 11 11 11 11
3 6 10 14 17 19 20 21 24 25 25 27 31 32 32 34 30 28 27 28 24 23 18 16 13 13 12 10 11 7 11 11 10 11 12 11 10 11 11 11 12 11 12 11
10 15 20 21 21 19 19 23 25 25 26 28 30 31 32 33 29 26 26 27 23 22 16 12 12 10 9 10 11 9 11 10 8 9 11 12 12 11 11 11 12 13 12 12
14 19 23 22 20 21 23 25 24 25 27 29 29 29 29 28 27 26 23 24 22 23 15 11 12 11 8 13 10 12 11 9 9 10 11 10 12 11 11 11 12 12 13 13
23 21 20 19 20 24 25 24 24 24 28 30 29 26 23 26 24 24 26 23 25 19 13 13 13 12 12 12 11 11 12 10 8 9 10 10 10 11 12 12 12 13 12 12
18 17 19 20 23 24 24 22 18 26 29 28 25 20 23 26 25 23 21 27 21 12 14 13 13 13 14 14 12 10 13 14 13 13 13 13 15 13 12 13 13 13 13 14
20 20 22 22 20 17 17 19 21 22 23 23 23 24 22 25 22 25 21 23 16 14 15 16 16 16 17 16 14 14 15 16 16 15 14 13 14 14 14 13 14 14 14 14
18 17 18 19 20 19 18 18 22 24 24 28 26 24 25 24 24 22 21 19 16 16 17 17 18 19 19 17 15 17 17 16 16 16 15 14 13 13 13 13 14 15 15 16
18 18 18 17 17 16 17 20 25 27 27 24 26 26 26 27 26 24 20 19 18 19 21 22 22 24 25 20 18 21 19 17 17 17 17 16 15 14 13 13 13 14 15 17

GFSNGP_850_spd_009.txt.gz
Wind_Speed
4 5 4 3 4 5 5 6 6 8 7 9 8 9 10 10 11 12 11 14 15 21 18 18 16 16 20 24 23 28 29 32 36 31 25 19 29 15 16 20 15 15 19 22
2 6 8 4 7 7 7 7 6 3 4 13 15 12 8 12 14 14 14 16 19 16 17 18 18 22 23 20 22 29 34 37 37 27 26 30 27 16 13 14 13 17 21 20
2 4 5 4 4 3 1 1 1 2 1 12 11 14 15 14 12 11 14 17 15 17 18 16 20 16 18 23 29 34 31 32 27 34 37 31 16 15 20 19 13 18 17 18
2 3 2 4 4 1 5 5 6 9 11 15 14 16 14 8 9 10 12 14 16 16 16 18 17 19 23 29 34 34 31 30 33 32 35 22 14 14 17 13 15 16 16 21
3 1 6 6 2 3 4 4 7 7 9 10 8 7 12 8 11 7 9 12 14 17 17 18 21 24 30 33 33 27 26 29 34 29 25 20 19 13 10 15 14 15 20 24
2 4 6 6 4 7 4 3 5 9 7 6 4 2 4 12 9 7 11 13 16 19 19 21 23 28 32 31 26 23 26 29 31 28 24 22 18 12 13 10 16 19 22 24
3 2 7 8 5 6 4 6 4 5 3 2 1 3 9 9 5 11 13 15 17 18 19 20 26 33 28 26 22 24 27 31 27 23 19 18 14 14 14 18 19 19 22 27
3 2 7 11 6 7 5 6 9 7 5 1 4 7 7 7 11 14 15 16 18 20 20 25 28 23 23 22 23 25 28 28 24 21 17 16 16 17 16 17 18 22 25 29
9 7 9 16 12 14 11 4 9 5 2 3 4 6 5 10 12 12 16 19 17 20 26 24 21 25 24 24 26 28 33 27 21 20 13 14 13 13 16 19 21 24 26 26
4 7 10 11 9 10 8 11 10 6 2 6 7 5 9 9 12 13 16 17 22 24 24 24 26 25 24 27 32 37 29 24 22 18 15 15 16 20 17 18 21 24 23 23
3 3 2 8 11 15 12 6 6 4 3 5 1 4 8 9 13 16 19 23 25 26 27 31 29 32 34 32 29 28 24 24 19 16 17 16 14 13 15 19 22 21 20 20
5 5 5 10 11 9 7 5 4 5 6 1 4 6 9 13 16 21 24 26 28 28 30 29 31 35 33 22 22 24 25 21 18 17 15 13 10 14 17 18 18 16 18 20
5 8 8 13 9 6 5 9 10 6 2 1 4 9 14 19 20 23 25 26 27 29 28 29 33 31 29 23 21 23 17 19 19 16 15 13 15 16 21 13 13 14 16 19
10 13 10 9 5 9 10 6 3 5 0 4 9 15 20 20 22 22 25 26 28 27 31 32 32 25 24 23 22 18 18 17 17 18 18 17 15 12 11 14 15 15 16 18
16 11 9 9 11 13 7 7 4 1 5 9 14 18 18 20 22 24 25 26 27 30 31 31 32 25 23 24 16 15 15 13 16 19 18 18 11 10 13 13 12 14 14 17
16 9 13 16 14 12 8 4 2 5 10 14 17 17 18 21 22 24 25 27 29 33 32 29 28 24 21 21 13 14 14 13 15 15 17 18 12 12 14 13 13 13 14 17
20 16 17 15 12 6 3 3 7 11 15 17 17 18 21 22 24 26 28 30 32 32 27 22 22 21 21 21 13 13 13 16 18 19 19 15 11 13 14 15 14 13 14 17
13 17 16 14 10 5 5 8 12 16 17 16 17 21 22 22 26 29 31 33 33 31 26 17 20 24 22 18 13 12 16 19 22 23 13 12 12 13 16 13 13 14 16 17
16 16 12 6 3 4 8 13 15 15 16 16 21 22 22 24 27 31 30 29 27 29 24 20 21 23 21 15 14 15 17 15 13 12 12 12 13 14 16 13 13 15 14 14
11 7 4 1 5 11 15 15 14 15 16 19 20 21 23 25 30 30 26 25 25 23 22 24 23 27 22 17 15 15 11 12 12 13 11 12 13 13 14 15 15 14 13 13
4 1 4 11 15 15 14 14 15 17 18 17 19 19 23 26 29 26 24 29 30 26 21 28 25 33 17 15 15 15 15 16 15 16 14 12 13 14 14 16 16 15 14 14
3 6 13 15 14 15 14 15 17 20 20 18 15 19 23 26 29 31 28 27 29 27 29 27 29 25 14 14 18 18 18 19 20 21 18 16 16 17 16 15 18 16 15 15
10 14 15 14 15 17 18 18 17 16 15 16 18 20 23 28 31 30 32 26 28 28 27 26 26 19 15 16 18 20 20 21 21 21 21 16 17 17 17 18 18 18 17 15
14 16 17 17 17 18 18 17 17 17 18 19 20 22 23 29 35 28 25 28 28 28 27 24 23 20 18 21 22 24 23 22 22 21 20 19 19 20 20 19 19 19 19 17
16 17 16 16 17 17 18 19 20 21 22 24 25 24 24 28 26 26 24 26 27 26 26 25 21 20 20 21 24 27 29 29 27 26 23 22 21 23 24 24 23 21 21 20
15 16 17 17 17 18 20 22 25 27 27 29 28 26 28 29 25 22 20 22 23 22 22 23 22 21 22 24 25 26 27 29 30 31 29 25 23 24 25 24 23 22 22 20
17 16 17 19 19 21 24 24 25 27 27 26 26 28 28 23 22 20 21 22 23 23 23 24 25 23 22 24 26 27 28 29 30 31 31 27 24 22 22 23 22 21 22 22

GFSNGP_850_spd_012.txt.gz
Wind_Speed
2 4 1 1 1 2 5 4 5 6 7 8 8 10 16 20 14 6 4 8 11 8 7 7 10 11 16 16 17 22 27 32 32 34 31 32 32 30 23 15 12 8 12 20
1 5 6 3 5 6 5 4 5 2 3 5 12 14 16 13 10 6 3 6 4 5 7 4 9 12 13 18 22 26 30 31 32 32 31 35 32 26 16 15 10 16 16 18
3 4 5 5 5 3 2 2 3 5 5 9 6 14 15 11 7 3 2 2 4 6 4 9 10 14 18 22 26 25 25 30 31 28 33 37 29 24 21 17 12 13 15 16
2 3 1 5 4 5 7 3 8 10 6 9 14 14 12 6 2 2 1 3 6 5 10 10 14 17 19 24 23 25 27 29 29 31 33 30 23 23 23 7 10 15 12 17
3 3 5 4 5 5 6 4 6 10 10 10 17 14 8 2 1 3 2 7 6 10 10 13 14 18 25 27 23 27 26 26 27 28 31 25 15 14 13 10 11 12 15 17
3 4 6 5 3 10 7 4 14 14 14 11 16 3 4 3 3 3 5 5 6 7 13 16 20 24 24 22 23 19 26 26 28 27 24 19 15 10 10 11 13 12 13 18
3 2 8 7 6 7 5 7 19 17 15 13 6 7 3 3 4 2 5 4 7 12 13 18 21 20 21 23 24 25 23 25 29 23 18 16 14 12 14 11 9 11 17 21
3 2 8 14 7 7 6 14 17 15 14 12 8 6 6 3 2 2 2 8 11 13 17 20 19 21 25 25 23 24 27 30 23 20 19 12 12 12 10 9 11 16 18 21
10 7 6 22 11 18 13 16 18 19 15 10 8 7 5 4 4 4 7 10 14 19 22 24 22 25 25 25 27 33 29 24 22 21 19 13 12 12 14 13 14 17 20 19
3 6 16 15 17 12 17 15 17 16 13 7 6 7 7 6 3 7 11 16 20 24 26 25 25 24 26 29 31 27 22 22 22 21 14 14 14 13 11 12 16 18 18 17
4 4 3 7 14 16 14 13 15 10 4 7 9 9 6 3 6 10 15 19 22 24 23 24 24 25 29 32 30 19 18 20 21 17 15 14 12 10 11 15 17 16 14 16
7 8 9 10 17 19 17 16 12 9 14 12 9 6 2 5 11 16 19 22 22 22 24 23 25 28 29 27 26 22 23 20 15 15 13 12 11 12 13 15 14 12 13 15
14 14 16 13 19 17 14 14 15 17 13 10 6 1 6 13 17 19 20 20 21 24 23 25 28 29 28 22 26 22 20 15 15 13 13 14 14 14 17 5 8 10 13 14
20 16 11 22 15 17 16 20 17 15 11 6 1 5 12 18 18 18 20 21 22 24 25 27 28 27 24 21 22 23 14 13 12 13 15 16 15 14 10 10 12 12 12 14
19 22 15 18 16 21 21 17 16 12 7 1 5 13 18 17 17 19 20 22 24 26 27 29 26 22 20 19 19 20 12 13 14 14 13 14 15 16 11 11 10 11 13 14
20 16 16 21 25 19 17 14 12 6 1 6 13 16 14 16 19 19 19 23 27 30 29 27 24 17 19 20 21 19 14 15 16 15 13 15 16 15 12 12 12 13 10 13
23 20 24 26 23 18 12 7 4 2 7 12 13 12 14 17 19 19 22 26 29 28 26 23 19 18 19 21 21 19 14 15 15 16 18 19 16 14 13 12 13 10 11 12
22 24 23 23 18 12 8 2 4 9 12 12 11 12 16 17 19 22 26 29 29 26 23 18 19 19 20 20 21 18 14 15 16 19 16 13 13 14 14 13 14 11 12 12
24 24 20 14 9 6 2 7 10 10 9 9 11 14 15 16 19 22 26 29 27 26 25 23 19 21 23 24 24 17 16 15 14 14 15 15 14 14 13 14 13 13 13 11
16 14 12 8 1 5 7 7 7 9 9 11 14 15 15 14 18 22 25 28 27 25 25 24 24 29 22 27 20 15 17 15 14 14 13 14 14 14 14 14 14 15 14 14
13 9 3 5 8 7 9 10 11 11 11 14 16 17 15 17 19 21 26 32 30 22 25 25 26 26 24 24 16 15 17 18 18 18 17 19 20 18 17 16 17 17 17 17
3 6 10 12 11 11 11 11 13 13 13 13 13 14 18 21 22 24 27 31 29 24 26 27 27 26 23 21 16 16 19 21 22 21 21 22 23 22 20 18 19 17 20 17
9 11 12 13 14 14 14 13 11 12 14 15 17 18 21 23 24 26 33 31 27 25 27 28 27 26 23 20 18 20 22 23 25 25 23 23 24 24 20 20 21 20 19 18
12 13 15 15 14 14 14 12 12 14 16 17 19 21 22 27 27 27 27 31 27 24 24 25 24 23 22 21 20 20 24 27 29 30 29 29 28 25 24 23 22 23 22 21
12 13 13 14 14 13 14 15 18 20 21 23 24 23 22 21 26 29 29 25 21 22 23 21 20 20 21 20 21 23 24 25 28 30 31 31 33 32 28 24 23 25 25 24
15 15 14 14 15 17 18 21 25 26 26 26 26 28 25 26 27 25 24 22 22 22 23 22 21 20 21 23 24 23 26 28 29 28 29 30 30 30 30 27 23 22 25 26
14 16 18 21 22 23 23 26 27 25 24 27 32 30 25 26 27 25 23 21 19 22 20 21 20 19 19 20 23 25 27 28 30 30 29 30 29 30 28 25 22 19 19 21

GFSNGP_850_spd_015.txt.gz
Wind_Speed
3 4 2 0 4 6 6 5 5 5 7 7 10 9 21 24 18 13 9 5 2 2 2 3 6 8 12 11 16 21 26 29 27 27 28 29 31 33 24 19 19 19 17 14
1 5 6 3 5 6 5 4 7 6 7 4 14 19 20 22 18 13 7 3 2 4 7 8 9 11 11 16 20 24 28 26 25 27 28 28 31 29 21 19 21 19 17 16
3 4 4 6 8 8 5 4 6 6 8 10 6 16 24 20 15 10 6 4 4 7 8 9 9 10 14 18 23 22 23 22 22 22 27 28 32 22 19 15 12 8 12 15
2 3 2 6 3 5 5 3 3 2 6 13 15 19 17 14 11 9 8 6 7 8 8 8 9 11 16 21 22 21 22 19 22 26 28 30 26 17 15 14 14 12 10 13
4 3 5 4 5 6 7 7 6 7 7 11 12 10 10 14 11 9 9 8 8 7 6 8 9 15 20 21 19 20 21 24 25 25 30 26 21 18 16 13 13 10 13 17
3 4 6 6 3 7 6 5 16 17 15 15 17 4 5 20 14 11 10 8 8 7 7 9 13 18 19 20 22 24 24 23 25 29 23 21 20 16 14 14 12 14 14 16
2 4 8 7 6 7 5 7 21 25 26 24 9 14 5 16 13 12 10 10 8 7 8 13 18 20 21 22 23 23 23 26 25 20 20 20 17 13 14 12 11 11 15 17
3 1 8 12 5 8 6 7 23 25 28 31 27 12 10 12 14 12 11 8 6 8 14 18 20 21 22 22 22 24 27 26 21 20 20 21 15 14 11 10 11 12 14 16
10 6 4 19 9 21 10 9 23 24 26 24 19 14 13 14 13 12 9 6 9 14 18 19 20 21 22 22 25 28 27 21 19 19 20 16 14 14 12 10 11 13 15 14
2 5 15 15 27 16 19 20 18 23 22 21 17 14 14 15 14 9 6 8 13 17 19 21 21 21 21 24 25 25 26 15 17 20 17 15 14 13 11 11 11 14 14 12
5 10 12 16 20 26 26 20 16 18 20 18 15 15 18 16 10 6 7 11 16 19 20 21 20 21 24 25 24 24 21 18 21 21 14 12 11 9 11 13 14 14 12 12
7 15 11 12 14 17 20 23 22 22 20 18 17 20 16 9 4 7 10 14 17 18 20 20 21 24 25 25 23 22 22 20 17 16 12 9 10 11 13 15 15 11 11 12
21 26 19 20 19 20 24 20 20 19 16 21 17 11 7 4 5 10 12 15 17 19 21 23 25 26 25 21 21 18 19 19 12 13 11 11 13 13 12 11 9 10 12 11
23 23 18 20 14 20 19 19 18 19 20 13 9 8 3 6 9 11 14 17 19 21 23 26 27 27 20 18 18 18 18 16 13 15 14 15 14 13 13 13 12 12 10 11
28 25 24 18 14 21 19 21 25 22 14 10 8 4 6 9 11 13 15 17 20 23 26 27 26 22 14 16 18 19 19 18 14 15 16 13 12 13 13 14 14 12 12 12
16 17 19 15 21 24 27 29 22 11 12 8 4 7 10 11 12 14 15 17 21 25 27 25 22 17 16 18 20 20 19 18 16 16 14 13 15 17 14 15 15 14 14 9
13 10 16 22 25 25 19 13 10 10 5 5 9 10 10 11 13 13 13 17 22 24 22 20 21 19 20 19 20 21 21 19 15 15 15 16 18 17 13 14 14 13 12 12
8 12 18 23 22 18 11 6 6 4 7 9 9 9 10 13 13 11 14 18 22 24 23 22 22 23 20 22 22 23 25 20 17 17 16 17 15 13 15 17 18 16 14 13
17 24 22 22 18 10 6 3 5 7 8 9 9 10 12 12 12 12 15 18 22 26 26 22 22 25 23 22 18 24 25 18 19 16 14 14 14 15 16 16 16 17 16 15
24 23 18 12 6 0 4 4 5 7 8 9 11 13 13 13 13 15 18 21 22 25 27 22 23 23 23 24 22 22 20 16 16 17 16 16 16 16 15 17 18 18 18 18
15 11 8 7 5 5 6 7 7 7 7 10 12 12 13 13 14 18 22 26 26 27 25 22 24 26 26 25 24 22 19 17 17 20 20 21 21 21 21 20 20 21 21 21
4 5 6 6 6 5 6 7 8 9 10 11 13 15 17 19 20 23 24 26 29 28 28 26 23 23 25 24 25 22 21 20 21 22 24 25 25 26 24 24 23 22 24 23
8 9 8 10 11 11 10 10 10 11 11 12 14 16 19 23 24 25 28 26 27 28 28 24 21 21 22 22 23 22 21 21 22 24 27 29 31 31 30 29 28 25 23 25
9 11 12 12 12 12 13 12 12 13 15 19 22 24 26 26 27 25 25 27 27 26 24 23 23 22 21 22 22 24 22 21 23 24 25 26 28 30 30 31 34 32 29 26
9 10 10 11 13 14 15 18 19 21 24 26 27 26 23 25 28 26 24 27 26 26 25 24 25 26 22 20 20 22 23 25 26 28 29 30 31 31 30 30 29 29 31 28
8 10 12 13 15 17 21 23 25 27 28 29 28 25 27 28 27 26 26 25 26 25 25 22 28 25 23 23 23 23 25 27 28 28 30 33 33 31 31 29 29 28 26 27
13 17 20 22 23 25 26 28 29 32 30 29 31 32 30 28 24 22 25 24 23 24 21 23 25 24 23 23 21 21 22 24 25 28 29 30 30 33 32 28 28 27 24 22

GFSNGP_850_spd_018.txt.gz
Wind_Speed
1 3 2 2 4 6 7 5 6 5 7 7 12 12 22 25 25 23 20 15 11 9 7 6 9 11 9 10 11 15 19 23 21 20 20 22 24 27 31 23 20 19 21 17
1 3 5 4 6 6 5 4 7 5 11 8 7 18 19 27 29 24 19 14 10 9 8 11 10 10 10 11 14 19 22 21 21 21 19 23 25 31 26 20 20 18 15 18
4 3 5 6 9 11 6 5 7 7 9 6 5 15 25 29 27 23 18 13 12 10 10 9 9 10 11 13 18 21 21 20 20 19 22 24 28 25 22 20 18 18 15 13
2 3 2 6 2 3 8 4 8 3 4 8 7 14 21 25 26 21 16 13 12 10 9 10 10 11 13 16 20 21 19 21 19 20 23 28 26 22 21 20 20 15 14 9
4 3 6 5 5 7 8 8 9 7 4 7 7 10 13 22 20 17 14 12 10 9 11 10 10 11 15 19 22 21 21 20 19 22 27 26 22 22 21 16 16 18 12 16
2 3 6 6 3 4 4 5 10 15 12 14 14 3 8 24 22 17 13 13 11 12 12 10 10 14 19 22 22 20 19 20 23 25 25 22 21 22 15 14 17 14 14 14
3 3 8 8 4 4 5 7 8 20 22 22 7 17 8 11 21 19 15 14 13 12 10 9 13 17 20 20 19 19 21 24 27 24 21 20 21 18 15 16 16 13 14 17
3 2 8 8 4 7 6 5 13 21 23 29 26 20 12 10 19 18 16 13 12 9 8 12 16 18 19 19 21 22 25 27 27 21 18 19 19 16 15 14 13 13 15 16
9 6 4 18 8 19 5 8 15 19 17 27 27 19 15 14 15 16 14 12 9 7 10 15 17 19 21 21 23 24 25 25 24 16 19 21 17 16 15 14 14 14 16 16
2 4 12 19 23 31 19 23 22 19 22 23 28 22 19 18 19 14 11 7 6 11 15 17 18 19 20 22 24 25 24 24 21 18 20 21 16 14 14 13 15 15 16 15
5 12 18 22 23 21 24 29 31 25 21 24 22 21 20 20 11 14 9 5 10 14 16 17 19 20 22 24 26 24 21 21 20 19 18 18 13 11 10 12 15 16 15 13
6 21 13 18 22 20 18 19 21 22 20 19 18 18 16 10 11 7 4 9 12 14 16 19 21 23 24 26 23 21 21 19 20 18 14 14 12 11 12 14 16 14 12 12
20 26 22 25 23 18 21 23 20 17 19 20 16 18 14 12 9 3 7 11 13 14 17 20 22 25 25 22 18 17 18 19 19 18 14 13 13 15 16 13 15 14 13 13
25 23 21 23 22 17 16 14 13 17 15 20 22 13 12 8 4 7 9 10 12 15 18 21 24 25 21 16 16 16 19 19 19 18 15 17 17 18 17 15 15 15 14 12
16 16 17 19 18 11 10 14 17 23 21 17 13 11 8 4 7 7 8 11 12 15 18 21 22 19 17 17 17 18 20 20 19 19 16 19 19 16 17 17 17 17 17 14
18 16 10 8 4 10 15 20 28 18 12 14 8 3 8 8 6 7 9 11 12 15 17 19 19 19 20 21 20 20 19 19 21 20 17 19 18 17 18 19 18 18 18 16
8 3 9 16 17 20 21 17 16 17 10 4 7 12 7 7 8 10 9 10 12 14 17 19 21 21 21 21 21 24 25 21 22 22 20 18 17 17 18 18 16 18 17 15
8 13 17 23 23 23 22 17 11 5 4 9 10 9 9 9 11 11 10 12 15 15 16 20 22 22 24 23 20 20 20 23 24 21 19 20 19 16 16 16 17 20 20 20
28 29 27 24 21 18 13 5 3 9 10 8 8 9 11 12 13 14 14 16 18 20 20 22 23 23 23 21 22 23 22 23 21 19 19 20 18 17 17 17 18 19 20 20
23 21 19 15 11 4 2 4 4 6 7 8 9 12 14 13 14 16 17 21 20 22 24 26 25 25 23 23 25 25 23 21 20 19 18 18 21 21 20 20 21 21 20 22
13 11 10 9 6 4 4 5 6 7 9 11 13 13 15 15 15 17 20 25 26 23 25 26 26 27 24 22 22 23 23 22 20 19 19 20 23 24 25 26 26 27 27 24
7 8 7 7 7 7 7 8 10 10 11 12 13 14 16 18 20 23 26 27 28 25 25 26 28 25 22 21 21 22 22 21 19 19 19 20 23 26 28 29 30 29 30 30
5 6 7 7 8 8 9 9 9 10 11 13 16 19 22 25 27 27 29 25 23 24 24 27 24 25 24 24 24 22 21 21 20 20 21 22 23 24 25 27 28 28 29 30
7 7 7 8 8 9 10 11 14 16 18 21 23 25 27 28 30 25 26 26 25 24 25 27 27 25 24 25 23 17 19 19 20 22 22 23 26 26 26 28 29 29 29 27
6 6 8 10 12 14 17 20 23 24 26 27 27 26 24 23 26 32 30 29 26 25 26 26 25 26 23 24 23 22 22 22 23 24 25 26 27 28 30 32 31 30 29 27
6 8 11 14 16 20 23 26 29 29 29 31 31 30 29 27 28 28 28 25 22 24 25 26 25 23 24 24 21 21 20 19 20 21 22 24 26 27 29 29 31 32 30 26
12 16 19 22 24 26 26 27 28 30 29 28 30 29 30 31 30 27 25 24 24 23 24 26 22 21 23 22 19 19 19 19 21 22 24 26 28 29 31 30 26 27 28 24

GFSNGP_850_spd_021.txt.gz
Wind_Speed
1 1 2 2 4 9 8 4 6 3 8 7 10 12 17 14 18 23 27 27 24 20 15 10 8 9 12 11 11 10 15 19 20 19 21 20 21 26 28 25 22 20 20 18
4 0 2 3 6 8 8 4 11 6 15 10 7 9 13 20 23 27 29 27 23 17 14 12 8 11 13 13 10 14 17 21 19 20 20 20 24 26 25 22 21 19 19 19
3 3 2 5 10 12 6 6 9 11 10 5 5 11 18 23 28 30 31 28 23 18 16 9 11 12 13 11 13 16 20 21 20 20 19 21 24 25 22 21 20 19 18 16
1 2 2 4 2 3 12 8 14 6 4 6 5 8 11 18 29 32 30 26 21 18 15 12 13 12 12 12 14 18 21 21 20 19 20 23 25 22 21 21 17 15 16 15
3 3 6 5 4 6 7 6 11 15 7 4 4 2 9 14 20 26 27 23 18 16 13 13 12 12 11 12 17 20 21 20 19 20 22 24 24 21 20 19 12 14 15 14
3 3 5 5 1 4 4 4 2 11 8 9 10 2 5 14 21 24 23 20 19 16 14 13 12 11 11 15 18 19 19 19 20 22 25 25 21 20 20 16 15 16 16 16
2 3 7 6 1 4 2 5 3 10 14 17 7 12 6 6 21 23 21 18 16 14 12 11 9 10 14 16 17 18 18 20 22 23 25 20 18 20 17 15 14 15 14 15
3 1 6 6 5 4 4 5 7 12 17 23 15 13 14 9 18 23 20 19 17 11 10 10 9 13 15 15 16 17 20 21 23 24 23 18 17 20 19 16 14 14 14 16
8 5 4 12 10 10 12 10 9 13 17 20 19 21 17 16 20 22 22 20 12 12 10 8 11 13 14 14 17 19 21 23 24 24 21 17 19 19 18 15 15 15 16 18
1 3 11 19 20 25 27 27 26 24 20 19 23 22 18 18 20 22 19 13 13 10 8 9 11 13 15 17 19 21 24 24 22 22 21 19 19 17 15 14 13 14 17 19
4 12 15 14 16 14 14 17 21 23 22 24 20 20 23 23 25 17 11 13 9 8 8 10 11 13 15 18 21 23 23 21 20 20 20 20 15 14 14 13 13 15 18 18
5 18 9 15 17 20 20 18 15 17 19 18 15 19 23 27 21 14 14 10 7 8 10 10 12 13 16 20 21 21 20 18 19 17 19 18 15 15 14 15 15 15 16 13
11 11 21 27 25 20 17 17 16 13 10 10 12 20 23 18 16 12 6 6 11 8 10 10 12 15 18 19 18 18 18 19 18 19 18 18 16 16 17 17 18 17 17 14
13 14 13 9 9 15 14 11 9 4 9 15 21 20 21 18 9 1 7 9 9 9 9 11 13 14 15 16 17 17 17 17 18 19 19 19 18 18 19 21 21 18 18 16
18 15 10 10 9 4 2 7 15 23 22 23 21 19 14 6 2 8 10 10 9 8 9 12 13 15 17 17 18 19 18 19 21 19 19 19 19 20 21 20 20 21 19 18
12 7 5 9 14 14 15 22 25 23 21 19 13 7 6 5 8 9 10 9 8 8 10 13 14 17 18 19 21 22 21 21 22 20 21 22 21 21 22 20 20 21 21 20
5 11 15 22 23 23 24 24 21 17 13 10 7 4 8 7 8 10 11 11 11 12 13 16 18 18 20 20 23 21 20 21 19 20 23 22 22 21 22 21 20 20 19 18
18 21 24 26 25 22 20 17 14 9 6 5 9 9 9 9 10 12 13 14 16 17 17 19 22 23 22 22 21 21 23 23 22 21 21 21 20 20 22 19 20 20 19 18
24 23 21 20 16 14 11 7 4 4 8 8 8 8 9 11 14 16 16 17 18 22 21 20 25 25 24 22 23 26 25 25 24 22 20 20 21 21 24 22 21 22 21 20
15 12 9 6 4 4 5 6 7 7 9 9 10 11 13 13 15 16 17 20 20 23 25 26 25 24 23 24 24 23 22 22 23 22 19 19 20 20 21 24 26 26 26 26
9 8 8 8 7 7 7 8 9 9 10 10 12 13 15 16 16 19 21 25 26 24 25 25 22 23 24 25 23 22 20 21 22 20 20 19 19 20 22 25 26 28 29 30
7 7 6 7 7 6 7 7 8 9 10 11 13 15 19 21 22 25 25 26 28 23 23 22 22 23 24 25 24 23 22 20 19 20 20 20 21 21 21 22 24 25 25 26
2 3 4 5 6 7 7 8 10 13 15 17 19 22 24 27 27 27 31 27 25 25 24 25 24 27 25 24 24 21 21 16 18 20 19 19 20 21 22 23 23 24 25 26
3 4 5 6 7 9 13 16 18 21 23 24 24 24 26 29 32 29 29 31 32 30 28 25 24 24 26 25 22 21 23 20 20 22 22 22 22 22 23 24 25 25 26 27
3 4 6 9 13 16 19 22 23 24 26 27 27 27 27 25 25 30 30 30 28 26 26 23 24 23 25 25 19 22 21 19 17 17 18 19 20 21 22 23 24 26 28 28
4 7 10 13 15 18 21 23 25 26 28 30 31 31 31 30 28 28 30 29 29 27 27 25 23 23 22 21 18 19 18 17 16 17 18 20 21 22 23 24 25 27 26 25
7 10 14 16 18 20 22 24 27 29 29 31 34 34 34 33 32 30 29 29 26 26 30 29 23 20 19 18 15 14 15 15 16 18 19 20 21 22 23 24 26 27 24 21

GFSNGP_850_spd_024.txt.gz
Wind_Speed
2 1 3 4 7 13 16 13 7 9 11 10 6 8 10 11 17 21 23 25 27 26 24 22 20 20 11 13 14 12 11 11 13 14 15 15 14 14 16 18 16 16 16 15
3 2 3 7 10 12 15 16 14 19 19 15 11 9 10 13 17 21 23 24 26 26 24 22 20 18 12 13 14 13 13 12 15 20 15 13 13 15 17 17 16 16 15 15
2 2 3 6 15 17 12 12 14 14 16 7 5 9 11 12 17 20 22 25 27 27 24 21 20 14 12 14 14 15 12 16 17 16 14 13 14 16 17 16 16 15 14 12
0 1 3 1 1 3 12 16 15 18 16 10 8 3 7 9 14 18 21 23 25 23 21 19 16 12 15 14 15 13 16 17 14 12 13 14 15 16 16 16 16 15 14 10
2 4 7 12 3 3 5 6 5 12 12 9 6 4 13 11 13 15 18 20 21 20 18 17 15 14 16 13 11 15 15 13 13 15 15 15 16 16 15 15 14 13 13 11
3 3 4 3 4 2 3 5 6 4 5 7 8 4 5 3 10 11 13 16 19 19 21 18 13 15 11 11 13 13 15 15 16 15 15 16 16 15 13 13 13 12 13 12
4 4 6 1 3 4 3 3 6 5 5 10 7 9 5 6 9 12 15 20 22 23 20 18 17 10 14 12 12 14 16 16 15 14 15 16 15 12 13 13 13 13 16 15
3 3 5 6 6 3 4 6 7 9 8 12 12 7 7 7 12 16 18 17 18 22 21 18 12 14 9 9 13 14 16 16 15 14 15 14 13 13 13 13 12 12 15 16
6 2 3 9 7 5 6 11 14 12 12 12 15 14 11 10 11 13 17 18 18 10 10 8 9 10 9 11 12 15 17 17 14 14 14 13 14 15 14 13 13 12 13 13
2 2 8 9 12 13 12 14 15 16 16 15 17 16 13 11 14 17 18 18 23 18 10 7 11 11 10 12 14 16 18 15 14 14 15 15 15 13 11 12 12 12 13 14
5 12 10 9 8 7 10 12 14 14 13 12 13 14 12 11 13 14 15 13 10 10 7 8 8 8 12 13 15 17 16 15 14 13 14 15 14 13 11 13 13 12 13 13
4 9 6 10 10 16 14 13 12 12 11 10 8 5 7 11 13 20 17 14 8 3 7 9 10 10 12 14 16 16 16 14 12 14 14 16 14 14 16 15 17 18 16 17
7 17 15 14 7 10 8 9 8 7 6 6 8 12 16 20 18 15 11 6 2 6 8 10 10 11 12 14 15 15 16 16 14 15 15 16 17 17 17 16 19 20 20 18
8 12 1 10 5 9 8 10 12 14 13 14 17 20 22 21 15 11 6 3 4 9 10 10 11 12 13 14 16 17 18 18 17 15 17 19 20 19 19 20 20 19 20 19
13 9 4 6 9 12 11 11 17 22 23 23 21 18 15 12 10 6 0 5 10 14 12 11 11 11 14 16 18 18 19 16 18 20 21 23 23 23 23 23 22 16 14 19
7 10 12 13 13 14 17 22 24 20 17 16 14 12 8 3 1 5 8 11 13 13 12 12 13 15 17 19 20 20 16 18 19 18 20 20 19 25 24 23 23 18 17 16
6 12 15 21 21 21 20 18 17 15 11 7 3 4 7 8 8 9 10 13 15 16 16 18 17 19 22 22 23 19 17 18 20 21 19 21 22 23 23 22 23 19 19 18
14 18 21 20 17 15 13 9 4 2 4 7 11 11 10 10 11 12 14 16 18 20 21 22 22 24 26 26 24 22 24 25 26 26 25 24 23 23 23 22 23 20 19 19
18 16 13 10 7 5 5 5 7 7 8 9 10 10 11 12 14 16 17 18 19 22 22 21 24 26 29 28 26 27 26 27 26 26 27 26 25 23 22 21 22 26 24 22
10 8 6 5 4 5 6 7 7 9 9 10 11 11 12 13 15 17 19 22 22 24 25 28 29 29 29 26 26 24 21 26 25 24 25 24 23 23 22 20 22 21 23 24
7 5 5 4 5 5 6 7 8 8 10 11 13 15 17 19 21 23 26 28 25 27 29 29 28 27 25 23 23 21 26 25 24 25 24 23 22 22 22 20 19 19 21 23
4 3 3 4 4 4 5 6 8 9 12 15 18 21 24 26 28 31 29 29 30 29 29 30 30 28 27 30 25 30 26 21 21 22 22 21 21 21 21 21 21 22 23 24
4 3 2 2 2 3 5 8 12 16 19 21 21 22 23 24 24 26 29 23 26 29 30 31 31 31 28 29 26 27 25 21 21 23 23 23 24 24 25 24 23 23 22 23
3 3 2 1 3 6 10 14 17 18 20 20 21 22 23 26 27 22 24 30 31 32 31 30 28 27 28 28 25 22 27 23 22 22 22 21 18 18 20 20 21 22 24 25
4 1 1 4 8 11 14 17 19 20 23 24 24 25 26 24 26 32 31 30 29 30 31 29 29 28 28 26 23 22 23 21 19 17 18 18 18 18 20 21 22 23 24 25
2 1 5 8 10 13 16 19 21 22 25 23 23 25 26 25 24 27 28 27 28 27 26 29 29 27 24 20 18 16 16 15 14 14 15 16 17 19 21 21 21 22 24 25
2 5 7 9 12 15 18 21 22 22 23 23 25 25 24 24 25 25 24 23 23 24 23 22 20 18 16 15 14 13 11 11 13 14 15 16 17 19 20 21 21 21 22 23

GFSNGP_850_spd_027.txt.gz
Wind_Speed
14 5 6 8 8 12 17 16 12 12 14 10 9 7 9 9 12 17 19 22 25 26 26 26 26 26 24 22 15 10 12 14 15 14 13 13 14 15 14 15 16 16 16 17
6 7 7 10 12 14 14 16 17 18 17 15 9 12 7 11 10 14 17 21 23 26 27 27 27 26 25 21 15 10 14 16 13 13 13 13 14 14 15 16 16 16 17 17
4 3 5 6 17 18 17 16 12 15 16 14 8 7 9 10 10 12 14 18 22 25 27 27 26 24 25 21 13 14 15 14 12 12 13 13 12 14 16 17 17 17 17 16
0 1 1 2 2 4 6 12 14 13 14 13 12 7 10 9 9 10 13 16 19 22 23 24 23 23 22 16 14 15 14 12 11 11 12 12 13 15 16 17 17 17 16 13
2 6 9 12 5 1 2 5 8 7 9 11 7 7 16 12 6 8 12 15 16 18 20 20 21 21 19 16 15 12 12 10 10 10 11 12 15 16 16 17 16 16 15 13
3 3 4 4 4 2 1 5 7 9 10 9 3 6 6 1 4 7 9 11 13 15 17 18 19 18 17 15 13 11 9 9 9 12 13 14 15 16 16 15 15 15 14 13
5 3 6 3 3 2 4 3 9 10 11 9 7 8 9 10 11 10 10 10 11 13 16 17 16 14 10 7 5 6 8 12 15 13 13 14 14 14 15 15 16 15 19 18
3 3 5 7 7 2 5 8 10 11 12 11 13 16 15 14 12 10 9 7 8 9 10 13 13 14 7 2 5 9 14 18 12 12 13 14 14 15 15 16 17 15 19 19
6 2 4 6 5 5 6 8 10 12 14 14 16 17 18 16 13 9 6 7 7 12 13 12 9 4 3 2 11 13 15 12 12 13 13 14 15 16 17 16 17 15 16 15
1 2 3 5 7 5 6 9 12 14 15 16 17 16 16 14 7 3 5 8 10 12 11 8 5 6 2 8 13 12 12 13 13 13 13 14 15 15 17 17 16 18 14 13
5 10 7 6 4 5 12 13 12 12 12 12 12 14 13 5 3 8 11 12 11 9 7 6 2 3 7 11 11 11 12 13 14 14 13 15 15 16 16 17 17 16 14 14
3 6 5 9 13 9 9 8 8 8 8 8 10 6 4 9 10 11 11 12 10 8 5 2 4 9 11 11 11 12 14 14 15 17 17 15 17 19 17 20 19 21 19 20
4 9 8 5 6 9 9 10 10 11 11 11 14 13 14 13 14 15 13 11 8 4 2 4 9 13 12 11 11 13 16 16 16 14 15 18 19 21 22 18 20 20 20 19
6 8 5 8 6 8 10 11 12 13 13 13 13 15 18 17 13 8 4 4 2 4 8 11 12 13 12 13 15 17 18 16 17 16 19 20 21 23 24 22 24 24 22 22
6 6 6 7 9 10 10 12 16 20 19 19 16 13 11 9 7 5 2 6 8 11 15 16 16 14 11 14 18 18 17 16 19 22 22 21 22 23 23 21 24 25 23 20
7 10 11 12 13 13 14 16 17 13 11 10 8 7 5 4 5 7 8 10 13 15 14 16 19 19 19 19 17 18 19 21 24 25 22 23 24 22 22 25 25 24 24 21
9 12 13 14 15 14 13 11 10 8 6 5 6 9 9 9 9 9 10 13 18 20 20 21 22 21 23 23 22 23 23 26 23 26 29 27 29 26 24 26 26 25 24 24
14 16 15 15 12 9 7 6 6 6 6 8 8 8 9 10 11 13 15 17 19 21 21 22 22 22 23 24 24 27 28 29 30 28 27 28 28 28 26 27 26 26 25 25
16 15 12 9 7 6 5 5 6 6 7 8 9 10 11 12 14 16 19 21 23 26 21 20 21 27 29 30 30 27 29 28 28 24 24 26 28 29 27 25 25 24 23 22
11 9 8 7 6 5 5 6 6 6 7 9 11 12 15 17 20 23 25 27 24 22 25 27 28 30 29 28 28 29 28 26 28 27 26 24 26 28 27 24 23 24 23 22
9 8 6 5 5 5 5 5 5 7 10 13 16 19 21 23 24 26 27 24 22 23 27 30 30 29 30 31 31 32 31 30 29 27 22 23 25 26 25 23 22 21 20 20
6 6 6 5 5 4 3 5 7 9 12 15 18 20 23 22 24 22 21 21 24 27 31 33 33 33 34 33 31 33 33 30 32 24 22 21 22 19 17 17 18 20 21 21
7 5 4 4 3 0 4 7 10 13 16 18 20 21 22 22 19 23 26 23 28 29 30 31 33 34 34 33 32 31 30 30 26 24 22 22 22 20 21 21 20 19 17 18
7 5 4 3 2 3 4 9 12 13 17 17 17 20 21 21 20 18 22 27 28 29 28 29 30 31 32 29 22 24 22 14 14 19 21 19 16 15 15 17 18 18 19 21
6 4 3 0 2 4 7 12 12 12 14 15 15 14 18 17 19 22 23 24 25 25 24 25 30 30 25 23 22 22 19 17 17 15 12 12 12 13 14 15 17 19 21 21
5 3 1 2 3 6 10 13 12 12 14 13 13 16 16 17 18 19 19 21 21 21 23 23 25 26 23 21 20 18 15 15 14 13 12 12 13 13 15 16 18 19 20 20
3 2 1 2 7 10 13 14 13 13 12 14 17 15 16 17 18 18 19 20 20 21 21 21 21 23 23 21 20 18 16 15 15 15 14 14 15 16 17 18 19 19 19 19

GFSNGP_850_spd_030.txt.gz
Wind_Speed
14 16 1 10 8 8 12 11 10 10 13 11 10 9 13 3 5 9 12 16 21 21 24 27 27 26 26 29 27 25 20 14 15 11 15 17 16 15 15 17 18 20 18 16
8 9 10 12 13 12 14 13 12 15 13 10 10 6 9 11 9 8 8 15 13 17 17 20 25 27 27 27 25 24 19 16 18 17 16 14 13 16 17 16 16 17 17 18
2 6 7 6 10 16 15 14 11 11 9 8 11 11 10 6 8 7 8 11 12 12 16 20 23 24 27 25 24 22 16 17 12 15 16 12 13 11 14 17 18 19 19 18
0 2 1 8 4 5 5 7 9 9 10 13 15 14 10 10 8 7 9 7 10 13 15 16 17 19 23 19 21 18 14 14 13 10 8 13 14 16 14 16 18 18 19 18
2 4 7 11 1 2 2 3 11 10 10 11 11 12 8 7 5 5 8 12 13 12 11 11 12 14 16 19 14 12 10 13 10 10 11 13 16 12 16 18 18 19 19 20
3 2 4 0 5 3 2 2 9 9 8 10 13 4 4 11 9 9 12 12 11 10 10 9 12 14 14 12 12 13 10 4 7 12 13 18 13 18 19 18 17 17 19 16
3 2 6 2 5 1 2 3 4 6 9 10 6 11 11 10 13 13 13 11 7 3 1 6 7 10 14 15 9 2 3 1 7 14 16 14 17 17 17 16 17 20 24 24
2 2 6 6 6 1 4 5 9 8 10 10 10 13 15 15 16 8 10 3 6 7 9 10 15 13 11 11 7 5 2 10 12 15 17 14 17 17 17 19 17 19 22 24
7 4 5 6 5 3 4 4 6 9 11 13 14 14 15 15 14 4 4 8 7 11 13 11 11 9 8 5 3 5 6 11 15 15 14 14 16 18 21 17 22 22 21 22
2 3 5 5 3 1 7 9 10 11 12 12 12 12 14 13 7 8 10 14 12 10 7 3 4 2 4 4 0 6 10 15 14 13 14 18 19 14 16 19 24 23 19 20
5 7 5 10 13 10 9 8 8 10 10 12 11 11 8 12 14 15 14 12 7 4 6 6 4 1 1 2 8 13 12 12 13 16 17 17 17 14 17 19 20 23 22 22
1 9 3 11 11 9 11 11 11 10 11 13 14 15 11 14 9 6 5 2 1 2 2 2 0 2 7 10 11 12 13 14 15 16 17 16 15 20 24 22 21 20 22 22
4 4 3 10 12 12 12 11 11 11 11 10 10 7 7 7 7 7 8 7 3 3 4 4 8 10 12 12 14 14 14 16 16 16 16 17 20 24 25 24 25 24 24 22
4 2 11 8 12 13 11 13 12 13 14 16 17 17 16 14 10 7 7 6 5 5 7 10 13 14 16 15 16 17 20 20 18 19 17 24 26 22 23 25 27 26 22 23
7 10 17 17 14 13 13 13 16 16 14 14 13 14 13 11 8 6 5 7 9 11 11 12 14 17 15 15 18 22 22 23 24 23 26 30 29 25 25 28 25 27 26 27
14 14 13 14 14 14 14 13 13 12 11 10 7 6 6 5 4 4 6 9 13 15 18 19 19 19 20 21 22 24 25 27 27 28 29 33 30 26 32 30 30 25 26 28
13 12 13 15 15 13 13 12 11 10 8 4 6 7 7 7 6 5 9 12 15 18 21 23 21 19 19 21 21 24 28 31 32 32 33 32 31 32 30 30 31 28 27 26
10 15 15 15 14 12 9 8 6 5 6 7 7 8 9 10 12 13 15 18 20 21 19 14 17 20 22 25 28 31 34 35 35 33 32 32 30 27 27 29 27 29 27 24
18 18 15 13 11 10 9 7 8 6 7 8 8 10 12 13 15 18 21 23 21 19 19 24 27 31 34 34 33 34 32 30 33 35 36 37 33 26 24 25 26 26 25 22
16 14 12 12 11 8 9 10 6 4 6 8 10 12 15 17 19 21 22 19 14 18 24 28 32 34 31 31 33 35 36 37 38 39 36 36 29 23 19 22 22 22 21 19
13 11 10 10 9 8 7 7 4 5 8 11 13 15 17 18 19 20 20 20 17 24 30 33 31 28 29 34 37 35 36 35 35 35 30 27 23 20 18 16 13 11 11 12
9 10 10 9 7 7 5 4 5 7 9 12 15 18 20 20 20 20 16 17 26 30 31 30 26 30 34 35 32 32 31 28 29 32 32 31 30 21 18 17 16 17 19 19
9 10 10 10 7 4 3 5 7 10 13 15 18 21 21 19 18 21 21 24 25 26 26 22 28 32 33 29 26 26 26 29 22 17 14 10 5 7 10 12 13 13 15 17
10 9 7 6 4 3 2 6 7 9 13 12 14 18 19 19 19 16 21 22 24 24 23 23 28 29 29 27 26 25 22 23 23 23 21 16 13 11 11 11 12 14 16 16
9 7 6 6 5 2 2 6 5 8 12 13 14 15 16 15 18 21 20 21 22 22 22 22 25 27 27 25 24 24 23 22 24 22 18 16 15 13 13 14 16 16 16 16
9 6 4 4 2 2 5 8 10 11 13 12 13 15 13 16 19 21 18 19 21 22 22 22 22 25 26 25 22 22 22 22 23 22 20 18 17 16 17 17 16 16 16 17
8 8 5 2 4 6 9 11 11 12 12 15 18 14 12 17 18 20 19 18 20 21 22 22 20 21 24 23 22 21 21 21 20 22 21 20 18 18 18 18 18 18 18 18

GFSNGP_850_spd_033.txt.gz
Wind_Speed
5 6 4 4 5 5 5 6 7 8 6 11 1 7 14 7 5 5 5 11 25 34 39 37 37 34 32 33 35 37 33 28 20 14 15 9 13 16 20 18 18 22 23 24
2 6 7 4 5 8 6 5 1 5 7 6 6 11 14 12 12 9 6 6 10 6 24 29 33 33 33 34 36 38 35 25 16 17 15 15 21 20 14 19 16 20 20 22
3 4 6 6 6 7 5 4 4 4 4 8 9 11 12 10 10 16 10 9 8 8 6 13 19 22 31 32 34 32 24 17 16 16 15 9 11 11 14 16 21 19 22 23
3 3 1 8 1 5 6 6 8 9 7 10 11 23 23 18 17 15 12 11 12 10 10 11 10 20 21 25 29 23 13 13 10 12 11 7 5 9 16 18 19 23 23 24
4 3 5 6 3 2 4 4 5 8 8 15 14 13 18 16 16 14 12 12 11 9 8 6 4 12 21 23 19 16 17 15 10 8 7 3 4 14 17 21 24 22 20 22
2 4 6 6 3 5 4 1 5 13 9 11 12 4 4 11 11 11 10 7 4 4 2 7 15 21 23 21 20 22 16 14 9 6 5 6 12 12 19 24 25 16 20 21
2 2 7 5 6 2 6 6 9 11 11 10 3 1 8 12 9 3 5 3 3 5 8 15 17 19 22 24 22 14 11 8 2 7 10 7 13 17 20 20 18 21 23 24
3 2 6 9 4 6 6 12 10 9 10 10 7 8 10 11 6 5 6 6 6 9 13 15 15 16 19 18 12 6 3 10 11 6 8 15 17 15 18 20 21 26 24 24
7 6 9 9 13 15 14 17 13 13 12 7 9 11 11 10 10 10 8 8 7 7 8 7 4 3 2 4 11 16 17 6 6 11 15 11 12 16 21 23 24 22 23 26
5 2 2 11 25 22 18 16 13 11 7 6 8 5 9 13 14 12 10 8 7 6 6 7 8 10 12 8 4 3 3 7 12 12 13 15 18 21 19 17 21 22 24 28
2 11 22 19 19 17 15 14 12 9 8 11 7 11 10 11 11 9 8 8 8 9 8 6 4 4 4 4 6 9 11 11 12 13 15 17 17 16 14 17 22 28 28 26
4 6 16 13 17 12 12 13 11 7 9 9 7 9 8 11 11 10 8 8 9 10 7 6 5 6 8 10 13 14 14 14 15 16 17 17 17 18 17 23 25 22 23 25
9 13 22 20 12 9 12 12 10 9 10 10 11 10 12 14 15 14 12 10 10 9 8 9 9 11 11 12 14 16 17 16 18 20 20 20 20 22 27 29 28 24 21 21
16 25 19 12 14 11 14 14 13 16 18 19 19 19 17 16 13 12 11 10 8 7 8 10 12 14 14 16 18 21 23 25 27 26 25 25 26 27 28 31 34 33 26 20
11 12 25 21 17 16 16 17 19 20 21 19 16 15 13 12 12 9 6 5 8 9 9 11 12 13 14 15 18 21 23 27 28 31 32 33 35 34 35 30 31 33 31 26
22 22 19 19 22 18 17 18 20 18 14 10 8 6 5 3 3 2 3 7 11 13 13 13 12 14 15 17 19 20 22 23 25 30 34 36 38 38 38 31 33 30 30 29
22 21 22 23 22 20 21 21 18 12 9 8 9 9 7 7 5 6 9 11 12 11 11 12 14 18 21 24 28 31 34 36 35 34 34 33 35 36 35 34 30 29 29 28
9 18 18 23 23 19 15 12 11 10 10 10 9 8 8 9 10 11 13 13 10 8 10 15 20 24 27 27 26 28 30 33 36 37 37 40 37 37 38 38 38 28 27 24
22 24 20 19 16 14 14 14 12 12 11 9 8 9 10 10 11 12 13 13 14 16 19 24 27 28 25 24 26 30 31 30 31 34 34 33 35 38 37 39 33 16 20 20
24 22 19 18 14 13 15 13 11 10 9 7 7 7 9 10 12 12 11 11 13 17 22 25 25 26 27 29 30 30 26 27 29 31 28 32 34 33 33 21 17 16 13 15
18 17 17 16 16 16 13 11 8 6 5 5 7 9 10 10 11 12 13 13 18 23 23 22 25 27 28 28 28 27 27 26 26 28 30 27 25 24 27 26 14 10 11 12
17 16 16 15 15 15 11 8 5 3 4 5 8 9 10 10 12 11 13 16 20 22 22 23 23 24 25 25 25 25 24 24 26 27 27 25 24 22 19 15 11 4 7 10
16 17 15 12 12 10 8 5 3 4 6 8 11 12 13 12 13 15 17 20 21 22 21 22 23 23 23 23 23 23 23 24 25 24 24 22 21 18 16 15 13 12 13 13
17 16 14 10 9 7 5 5 1 4 6 8 11 14 14 14 14 15 18 21 20 22 21 22 23 24 24 23 23 22 22 23 24 23 23 21 20 19 19 19 18 18 18 16
13 13 13 11 11 8 5 5 5 5 6 8 12 13 13 15 16 18 21 20 20 20 22 22 22 22 23 24 24 22 22 22 23 22 22 22 22 21 21 20 19 19 18 17
14 15 15 15 9 6 3 2 5 7 9 11 13 14 11 13 16 19 22 21 21 19 19 23 21 21 22 23 23 23 22 21 22 22 22 22 22 21 21 20 19 19 19 18
15 10 10 9 5 2 3 6 8 9 11 13 13 13 11 14 18 22 22 22 21 17 19 20 20 21 20 20 21 22 22 21 21 21 21 21 22 22 21 20 20 20 20 19

GFSNGP_850_spd_036.txt.gz
Wind_Speed
4 3 2 3 4 5 5 5 6 9 8 9 4 3 1 10 5 4 17 25 30 33 38 41 41 41 41 38 34 35 35 36 33 25 22 26 22 14 14 12 8 8 14 17
2 3 2 2 4 4 5 3 6 5 3 5 8 13 16 13 15 16 13 10 9 6 20 36 38 37 39 38 38 38 38 36 25 18 18 14 12 12 12 14 14 7 17 22
4 4 3 5 7 7 5 3 5 5 5 3 6 8 8 15 19 17 16 15 13 10 7 4 14 26 31 35 39 38 35 29 23 23 22 22 16 13 10 1 7 16 20 20
3 3 2 7 4 4 9 6 6 9 5 8 15 20 21 16 16 14 12 8 6 7 8 4 6 19 29 31 32 29 24 19 18 19 15 13 11 5 9 13 13 10 20 25
4 3 5 7 4 6 6 0 1 7 5 11 17 20 13 11 10 10 7 4 4 8 11 11 7 10 19 23 26 27 24 22 20 21 20 6 2 15 18 8 15 20 22 23
3 4 7 7 3 7 6 1 6 11 5 7 7 3 3 5 2 2 2 1 4 5 3 5 7 11 18 23 28 28 28 27 23 17 4 17 18 8 10 15 18 18 16 16
2 3 7 8 7 5 6 6 12 15 13 9 4 5 5 8 9 7 5 6 5 5 5 6 8 15 23 27 24 19 14 14 12 12 16 11 10 12 16 16 15 17 20 21
3 3 7 9 5 7 7 12 17 16 14 15 15 11 10 12 12 11 10 10 10 11 13 14 12 10 8 7 10 9 9 14 15 11 8 9 13 16 14 15 18 21 23 26
8 6 4 1 7 23 23 22 16 17 15 13 12 12 12 13 12 12 11 12 12 12 14 13 10 7 5 7 4 11 14 11 6 6 10 13 13 14 16 18 22 24 23 24
4 5 6 18 22 23 21 21 19 16 14 9 13 14 14 12 13 14 14 14 12 10 10 8 4 2 3 4 4 4 3 6 9 12 13 14 15 17 21 22 22 20 22 26
4 1 18 13 18 21 22 20 18 15 13 12 13 14 14 16 15 14 13 11 8 8 10 11 9 8 7 6 6 8 10 11 12 14 16 17 19 21 22 20 20 21 24 26
5 20 10 10 17 18 19 16 13 12 15 15 13 16 14 15 13 12 13 14 13 12 10 8 6 8 9 11 12 14 15 16 17 18 19 22 24 25 23 24 23 22 25 25
11 21 16 25 19 15 17 15 14 13 13 15 15 14 14 18 16 15 14 12 11 9 7 6 6 7 9 11 13 15 18 19 21 23 25 27 27 29 33 34 31 30 28 26
25 31 23 22 15 17 16 17 16 20 21 21 22 20 19 19 16 14 12 10 7 5 4 5 7 9 11 13 15 17 19 20 22 25 28 30 32 34 36 39 42 43 34 31
24 6 21 25 23 20 19 23 26 26 24 22 19 18 15 14 12 10 7 4 4 4 5 6 7 9 12 14 16 19 22 24 26 29 32 34 36 37 37 37 39 40 38 32
20 22 27 25 23 22 23 24 25 22 19 17 15 14 12 9 7 4 2 2 3 5 6 9 11 14 18 22 25 27 29 29 30 32 34 36 36 37 37 39 37 38 37 34
31 23 26 25 25 25 24 22 21 19 16 14 14 12 10 8 6 4 2 3 4 5 8 12 16 19 22 26 28 28 29 30 30 30 29 30 32 33 33 33 34 38 38 35
11 21 23 28 29 28 26 20 15 15 15 14 14 12 9 6 4 3 4 4 6 8 11 15 19 22 23 24 25 26 26 26 26 27 29 29 28 28 29 32 36 35 34 35
21 26 26 26 25 24 19 19 16 15 15 13 10 8 6 4 3 4 6 8 10 13 17 20 22 22 22 23 23 23 24 25 25 26 27 27 28 28 31 30 32 31 33 28
27 27 26 23 17 17 21 18 17 16 14 10 7 5 3 3 4 6 9 11 13 16 19 20 20 21 21 21 21 21 22 23 24 25 26 25 25 26 25 27 18 12 11 4
27 24 20 19 20 19 16 16 14 13 11 7 4 3 3 5 6 7 8 11 14 16 17 18 20 21 21 21 21 21 21 21 23 24 25 25 24 23 23 24 22 22 18 16
22 20 21 19 17 19 16 14 11 9 6 3 2 3 4 5 8 11 12 12 15 17 18 20 20 21 22 22 21 21 21 21 21 22 22 22 23 23 23 23 23 24 23 21
23 18 15 17 18 18 16 12 9 6 3 1 3 5 7 8 9 10 11 15 17 17 18 20 21 22 23 23 21 21 21 21 21 21 21 22 22 22 22 22 22 21 22 21
17 18 19 17 16 15 13 10 6 3 1 3 6 8 9 9 10 12 14 16 18 19 19 20 21 22 22 22 21 21 20 20 20 21 21 21 22 21 21 22 21 20 20 20
20 19 17 17 15 12 10 9 5 3 3 5 6 9 11 11 12 12 14 18 20 21 20 20 21 22 21 21 22 21 21 20 21 21 21 21 21 22 22 21 21 21 21 20
22 21 19 16 12 10 8 8 7 5 6 8 9 10 11 12 13 14 17 20 20 21 19 19 21 21 21 21 21 21 21 19 20 20 20 20 22 22 22 22 21 21 21 21
19 19 19 16 11 8 6 4 5 7 7 9 10 12 13 13 14 16 18 20 21 20 19 19 20 20 19 19 19 20 20 19 19 19 19 20 21 22 22 22 22 22 22 22

GFSNGP_850_spd_039.txt.gz
Wind_Speed
3 3 4 5 5 7 6 6 6 8 7 7 4 5 6 11 3 5 10 17 23 28 30 33 34 35 35 33 31 30 31 34 33 33 31 28 27 27 23 23 17 13 8 4
3 3 4 4 7 6 6 3 6 4 6 4 3 7 13 15 18 17 15 11 5 6 17 26 34 37 35 33 29 34 33 34 34 31 29 27 26 22 18 17 14 10 15 19
4 2 3 6 7 8 6 5 6 6 8 3 3 5 13 19 19 17 14 10 7 6 4 0 6 15 24 30 34 31 33 33 31 28 26 26 22 20 19 11 13 20 19 17
3 3 2 7 3 6 5 2 5 4 6 6 9 15 15 14 14 12 9 8 6 5 6 6 5 7 14 21 24 25 27 24 24 27 27 25 22 15 7 19 15 13 16 18
5 4 4 5 4 6 6 2 3 8 7 14 17 18 11 9 8 6 4 4 5 6 7 8 6 5 10 14 18 20 22 24 25 24 22 17 8 13 16 13 11 13 16 21
3 5 7 7 4 5 5 2 5 7 8 11 6 3 3 4 5 3 2 1 1 2 2 2 2 3 5 10 15 18 20 21 22 20 13 13 15 20 11 10 13 16 18 17
2 3 7 7 5 9 6 7 17 19 19 16 5 5 10 11 9 7 5 4 4 4 3 2 1 1 3 9 12 13 12 8 11 15 13 19 13 10 11 15 18 19 20 20
3 3 6 5 6 8 6 11 24 17 15 14 16 15 16 14 11 8 7 7 6 7 9 10 10 6 11 10 9 7 5 7 12 14 11 9 11 14 16 17 18 20 23 25
8 6 3 4 6 7 24 29 21 22 21 20 21 20 18 15 13 12 11 11 11 11 13 13 10 8 6 5 1 5 9 7 6 6 9 13 15 16 17 19 22 25 27 27
4 2 2 7 13 26 22 27 23 21 23 21 22 20 18 17 16 15 14 13 12 10 10 9 6 4 4 4 3 3 4 7 9 11 13 14 16 18 22 24 26 28 29 28
2 1 5 5 14 23 23 23 24 22 20 18 18 20 19 19 17 16 14 12 10 10 10 11 9 8 5 4 4 6 8 10 11 13 16 18 19 22 25 26 27 30 30 31
6 19 9 14 21 22 25 23 21 21 20 17 16 20 20 20 17 16 15 14 12 12 11 9 5 3 3 5 7 10 12 14 16 18 20 23 26 31 30 30 30 31 33 36
7 27 12 28 26 23 24 22 19 17 17 21 20 19 20 21 19 17 16 13 11 9 6 4 1 3 5 8 10 13 16 19 22 24 26 29 31 33 39 42 38 38 37 37
20 33 20 29 17 22 21 21 20 21 20 20 22 22 23 23 20 17 14 11 7 5 2 0 3 5 8 11 14 16 19 21 25 28 30 32 34 35 36 38 43 49 45 44
25 14 26 26 28 24 22 25 26 26 26 25 22 22 20 20 17 14 10 6 4 2 1 3 6 9 13 16 19 21 24 26 28 29 29 30 31 32 33 34 35 36 37 38
18 20 29 32 30 28 28 28 29 28 25 24 22 20 18 15 13 10 7 4 3 2 4 7 11 14 18 20 22 24 25 26 28 29 29 30 31 31 31 31 33 36 38 37
31 22 29 30 31 31 28 26 25 26 24 22 20 18 14 12 10 7 5 2 2 4 8 12 15 17 20 22 23 25 25 26 26 26 26 27 27 28 26 27 32 34 35 36
14 23 24 28 32 31 28 24 23 22 20 20 18 16 13 10 7 5 2 1 5 8 11 14 16 18 20 21 22 23 23 24 24 24 25 25 25 25 25 25 26 30 32 24
17 24 26 26 28 29 28 24 21 20 20 19 17 15 11 7 4 2 1 4 7 10 14 16 18 19 20 21 21 22 23 23 23 23 23 24 24 24 25 26 26 27 28 30
25 25 25 26 25 25 24 20 21 21 19 16 13 9 6 4 1 1 4 7 10 13 16 17 19 20 20 21 21 22 23 23 23 24 23 23 23 24 24 25 26 27 27 27
25 26 28 27 24 21 21 21 18 18 17 13 9 6 4 2 1 4 7 9 12 14 16 18 18 19 20 21 22 22 22 22 22 23 23 24 24 24 25 25 26 26 26 26
28 27 25 24 25 23 18 16 16 15 14 11 9 5 2 2 3 6 8 10 12 15 16 17 18 20 21 22 22 22 21 21 22 22 22 23 24 25 25 25 26 26 26 25
24 23 26 19 15 17 19 17 15 11 10 8 6 3 2 4 6 8 10 11 13 15 17 19 19 20 21 22 22 22 21 21 22 22 21 22 23 24 25 25 25 25 25 25
25 20 17 17 18 20 20 17 13 11 7 5 3 3 5 7 8 10 11 12 14 16 18 19 19 20 21 22 22 22 21 21 21 21 21 22 22 23 23 24 25 25 25 24
16 18 18 20 20 17 15 14 12 9 6 4 5 7 9 9 10 10 12 13 15 18 19 19 19 20 21 22 21 21 20 21 21 22 22 23 23 23 24 24 24 25 25 25
18 20 20 18 16 14 13 11 8 6 6 8 9 9 9 10 10 11 13 15 17 19 20 19 19 20 21 21 21 20 20 20 20 21 22 22 23 24 24 24 24 24 25 25
21 20 19 17 14 13 11 8 6 6 8 9 10 11 10 11 12 13 15 17 19 19 19 18 18 20 20 20 20 20 20 20 20 21 21 22 23 24 25 25 24 24 25 25

GFSNGP_850_spd_045.txt.gz
Wind_Speed
5 5 5 6 6 11 10 7 8 8 9 9 7 6 6 9 7 2 3 5 5 6 6 7 7 7 8 10 11 13 14 17 19 19 17 16 14 15 16 19 22 26 23 22
3 4 7 6 5 8 8 4 9 7 9 11 6 5 2 3 6 14 17 18 17 15 11 8 5 2 1 3 5 7 8 10 11 11 11 12 13 16 16 18 19 15 13 15
4 0 2 4 8 10 6 5 6 9 11 5 6 6 8 11 16 18 20 20 20 18 16 13 10 7 4 3 3 5 5 5 5 7 9 12 13 14 15 16 16 11 15 20
3 2 5 3 1 2 10 6 9 7 5 5 4 9 11 14 19 18 17 17 16 13 11 9 8 6 6 6 6 6 4 2 1 4 8 10 13 15 13 7 10 15 18 16
5 4 3 2 4 7 7 13 10 13 7 7 18 13 6 13 15 17 15 14 13 12 10 10 8 7 6 7 7 7 6 4 3 3 8 10 12 9 10 14 18 17 13 12
3 5 8 5 4 7 4 12 8 13 11 18 18 8 6 16 15 15 13 13 12 11 10 9 8 7 7 8 8 8 8 7 6 4 3 3 7 11 15 16 13 11 12 15
3 3 6 6 5 11 6 8 9 17 20 28 11 4 24 21 17 15 14 13 11 11 10 10 10 9 10 12 12 12 11 9 7 3 4 8 9 10 8 9 12 15 17 18
4 2 7 11 8 10 8 5 11 19 26 25 17 21 28 23 19 17 15 14 13 13 15 15 14 11 15 14 14 10 6 3 2 3 4 3 5 7 10 13 16 18 21 24
9 7 2 26 9 23 9 7 11 23 31 32 26 28 27 24 21 19 17 17 17 18 19 18 16 12 11 11 8 4 2 2 1 1 4 6 9 11 14 16 20 23 26 30
3 6 7 18 25 14 17 16 13 25 36 31 28 29 28 26 24 22 21 21 20 19 19 19 14 11 9 7 5 3 2 1 3 5 8 10 13 16 18 20 23 25 27 29
3 4 3 17 25 23 20 16 16 25 31 31 29 29 28 28 26 25 24 23 20 19 18 16 13 10 8 6 4 1 2 4 7 10 13 15 17 19 20 20 21 23 23 25
6 12 8 15 31 27 23 22 24 29 29 28 28 31 30 29 27 26 25 23 20 17 15 14 11 9 7 4 1 3 5 8 11 14 16 18 20 20 21 21 21 21 21 23
4 9 17 16 11 25 25 26 27 29 31 32 28 29 30 32 29 28 25 22 19 17 15 13 9 6 4 2 4 7 10 12 15 17 18 20 21 23 24 24 24 24 24 26
12 9 5 13 11 21 22 24 24 25 26 28 31 30 31 32 31 27 25 22 18 16 14 10 7 3 2 5 7 10 12 14 15 17 18 19 21 22 24 25 27 26 26 26
15 15 14 19 15 24 24 25 26 27 28 30 30 33 33 35 33 29 25 21 18 14 11 8 4 2 3 6 9 11 13 14 16 17 18 19 21 22 23 24 26 28 29 28
17 10 9 16 23 25 27 27 29 28 29 31 33 32 31 31 29 26 24 20 15 12 9 5 2 2 5 8 10 12 14 16 16 17 18 19 20 22 23 24 25 27 28 30
16 10 13 17 18 27 27 26 27 30 31 32 31 30 28 26 23 22 20 17 13 9 6 3 2 5 7 10 12 14 15 16 17 17 18 19 20 21 22 23 25 26 27 27
6 3 10 15 27 25 26 25 27 30 31 31 30 28 25 21 22 20 16 14 11 7 3 1 4 6 9 11 13 14 15 16 16 17 18 18 19 20 21 22 23 25 26 26
5 4 8 18 26 26 26 27 28 28 28 28 27 23 20 19 17 15 13 10 7 4 1 2 5 8 10 12 13 15 15 15 16 16 17 18 19 19 20 21 22 23 24 25
14 15 21 23 23 23 27 27 27 29 28 25 22 20 19 14 11 13 11 8 5 3 1 3 7 9 12 13 14 14 15 15 15 16 17 17 18 19 19 20 21 22 23 24
18 18 20 22 24 24 26 26 28 27 23 20 20 15 12 14 14 11 9 6 4 2 3 6 9 11 12 13 14 14 14 15 16 16 17 17 17 18 19 19 21 22 23 24
19 21 23 25 27 26 24 21 21 24 23 17 13 12 15 15 13 9 6 3 2 4 6 9 11 13 13 13 14 14 15 15 15 16 16 17 18 18 19 20 21 23 24 25
18 20 24 24 24 25 23 23 22 15 14 13 13 13 11 10 7 4 4 4 5 7 9 11 14 15 15 14 14 15 16 15 15 16 16 17 18 19 20 21 22 23 24 25
22 21 22 23 24 23 24 19 15 13 13 14 12 8 6 5 3 4 5 6 7 9 11 14 16 16 15 15 16 16 16 16 16 16 17 18 18 19 20 21 22 23 24 25
20 20 20 20 19 18 18 17 15 13 11 9 7 4 2 3 5 6 8 9 11 13 15 16 17 17 16 16 16 17 17 17 17 17 17 18 19 19 20 21 22 24 25 25
17 17 16 15 14 13 13 11 9 8 6 5 4 5 7 8 8 8 10 12 14 15 17 17 18 17 16 16 16 17 18 17 17 18 19 19 19 20 21 22 23 23 24 25
17 16 15 15 13 10 8 6 4 3 2 4 7 8 8 9 10 11 13 15 16 17 17 18 17 17 16 16 17 18 18 18 18 19 19 19 19 20 21 22 23 23 23 23

GFSNGP_850_spd_048.txt.gz
Wind_Speed
18 16 15 16 14 15 16 17 13 13 15 12 12 11 7 5 6 6 9 9 10 10 9 8 7 7 7 7 9 9 10 11 10 9 8 9 8 8 9 12 14 15 14 15
13 13 14 16 17 18 19 17 14 16 18 12 16 9 9 6 8 9 10 10 10 9 9 9 8 8 6 5 5 4 3 3 2 2 1 2 3 4 5 7 7 8 12 12
13 9 8 6 16 16 16 14 15 16 16 14 10 12 12 8 11 14 16 16 15 15 15 15 14 12 10 7 6 4 3 2 3 2 2 2 3 4 6 7 8 7 9 13
5 4 7 8 3 17 18 15 15 16 16 15 13 6 8 10 15 17 18 17 16 17 17 16 14 12 11 10 9 9 8 8 7 5 4 4 3 4 4 3 5 10 12 16
4 9 9 4 6 8 12 16 14 18 18 12 7 11 7 11 16 17 16 16 16 17 17 16 14 14 13 13 12 11 10 11 10 9 7 7 4 2 3 6 9 12 7 7
4 7 7 9 11 12 4 15 10 13 14 11 17 9 8 19 18 18 17 17 17 17 17 16 16 15 15 14 13 13 13 13 12 11 9 7 2 4 8 9 4 4 6 8
11 7 6 3 11 14 9 14 5 8 11 15 14 8 20 24 19 18 18 19 18 17 16 16 16 15 16 16 16 15 14 12 10 7 3 2 4 4 2 3 7 10 13 14
8 7 11 14 12 11 14 5 9 10 12 19 15 15 24 25 22 20 20 20 18 18 18 17 16 16 17 16 15 12 9 7 5 4 3 1 0 3 6 7 10 11 13 15
9 6 4 29 20 25 10 10 10 12 13 18 18 21 25 25 22 21 20 19 19 20 20 18 16 16 17 15 12 9 7 7 6 4 2 1 2 5 5 6 8 10 11 13
2 10 12 15 23 11 14 13 9 10 16 23 26 26 26 24 23 23 21 21 22 22 21 20 18 17 14 13 11 10 10 8 5 3 0 3 4 5 6 9 12 13 13 13
12 13 8 14 20 21 14 14 14 12 19 26 28 28 27 26 24 23 23 22 21 21 21 20 18 17 15 13 12 10 7 5 2 1 2 3 5 8 9 12 13 14 15 17
8 17 11 19 13 18 20 19 15 17 21 24 28 30 28 27 26 26 26 24 22 21 21 20 19 16 15 13 10 8 5 3 1 3 5 5 5 5 13 11 12 14 16 17
10 11 14 14 10 10 16 16 16 17 21 27 26 28 28 28 26 25 24 23 23 23 22 21 19 16 14 12 9 5 2 1 3 4 5 6 7 7 6 10 17 18 18 19
18 12 8 11 6 8 12 12 16 17 21 24 25 25 26 26 27 24 22 21 22 24 23 21 18 15 12 8 5 2 1 3 4 5 6 7 8 9 9 10 11 11 15 20
12 13 10 7 7 7 10 12 17 16 19 22 24 27 27 29 27 24 22 22 22 19 17 17 15 12 8 5 2 0 2 4 6 7 8 9 10 10 10 11 11 13 14 14
12 10 9 8 10 12 13 16 17 22 20 20 24 25 28 29 27 26 26 24 20 16 13 12 10 8 6 3 1 2 4 6 7 8 9 10 11 11 11 12 13 13 14 15
9 7 10 11 12 13 14 18 22 20 26 24 25 30 29 29 29 29 27 23 17 15 12 9 6 5 3 1 1 2 4 7 8 8 9 11 12 12 13 13 14 14 13 16
7 5 8 10 14 16 17 18 19 25 29 31 31 31 30 31 29 26 22 18 17 14 9 7 5 2 1 1 3 4 6 7 8 9 10 11 13 13 14 14 14 15 16 17
4 4 7 10 13 17 19 22 24 25 27 30 31 31 28 25 24 21 20 17 12 9 8 6 2 1 2 4 5 7 8 8 9 10 11 12 13 14 14 15 15 17 18 19
3 7 11 14 17 20 22 21 22 27 29 30 29 28 25 22 21 20 16 14 11 8 6 3 2 3 6 7 8 9 9 9 10 11 12 12 13 14 14 16 17 17 18 18
11 13 16 18 20 21 23 27 29 31 28 27 25 23 22 20 16 12 11 9 8 6 3 2 4 7 8 9 9 10 10 10 11 11 12 13 14 14 15 15 16 18 18 18
16 19 22 24 26 28 27 27 28 27 23 20 19 17 17 16 13 13 10 7 6 4 3 5 7 9 11 10 10 11 11 12 12 13 13 14 14 15 15 16 17 18 19 19
21 23 26 28 29 29 25 23 21 19 19 16 15 14 12 12 9 6 5 4 4 5 6 8 11 13 13 12 12 13 13 14 14 14 14 15 15 16 16 17 18 19 19 20
24 24 24 23 22 23 25 21 18 16 15 14 12 9 7 5 4 3 4 4 5 6 9 12 14 14 14 14 14 15 14 14 14 14 14 16 15 16 17 18 18 19 21 22
23 22 21 19 19 18 16 15 15 14 11 10 7 5 3 2 4 6 8 8 8 9 12 13 15 15 15 15 16 16 16 15 14 15 15 15 16 17 18 19 20 21 22 22
19 20 19 18 17 15 14 11 12 10 7 5 2 2 4 5 6 5 6 8 10 12 13 15 16 16 16 15 16 16 16 14 14 14 16 18 17 18 19 20 21 22 22 22
23 22 20 20 17 14 12 10 9 7 5 3 4 5 5 6 7 8 9 11 13 15 15 16 17 17 16 16 16 15 15 14 16 18 19 19 19 19 20 21 22 22 21 21

GFSNGP_850_spd_051.txt.gz
Wind_Speed
23 20 17 23 23 22 22 19 17 16 18 13 11 11 11 9 9 10 13 13 14 14 14 15 15 15 14 14 16 16 19 18 14 10 7 7 7 8 9 8 8 8 8 8
21 20 18 19 18 18 20 21 20 19 20 13 14 12 13 6 8 12 13 14 15 16 15 15 15 15 14 13 13 12 11 9 8 8 9 8 7 7 6 4 3 1 1 3
17 18 20 17 17 19 20 19 17 18 17 16 13 12 13 16 13 14 12 13 13 15 16 15 16 16 15 15 15 15 14 13 11 9 7 7 7 8 8 7 5 3 2 2
8 3 16 10 15 20 22 20 17 17 17 16 17 18 10 8 10 12 13 16 18 18 18 18 18 18 18 17 16 15 14 13 11 10 11 11 10 8 6 5 4 2 4 8
8 12 13 18 10 13 15 16 17 16 16 17 18 3 6 8 12 17 17 17 18 19 19 19 19 18 18 17 16 16 15 14 14 13 13 12 10 9 7 4 3 6 4 4
7 14 19 12 14 14 13 13 14 15 12 6 6 7 11 19 18 19 19 19 19 18 18 17 17 18 18 17 16 16 16 15 14 13 12 12 8 3 1 2 2 2 1 2
13 10 8 10 14 15 13 14 9 6 8 9 9 13 3 22 22 21 20 20 19 18 17 17 17 17 17 17 17 17 17 15 12 11 9 5 1 3 4 2 1 2 5 5
9 11 14 4 11 14 16 23 7 11 12 11 9 9 20 24 24 24 23 21 19 19 18 17 17 18 18 18 17 16 13 11 9 6 5 6 6 4 2 0 2 3 7 7
8 5 10 18 19 22 23 16 11 13 13 13 17 20 23 26 27 25 23 21 19 19 19 18 17 17 18 18 16 14 12 11 10 9 8 7 5 2 1 1 3 5 7 7
12 11 14 12 20 19 11 17 14 12 13 16 22 23 26 27 28 26 25 23 21 21 21 20 19 18 18 17 15 14 13 12 11 9 7 5 3 2 2 4 4 6 6 8
16 17 24 19 13 15 17 15 12 10 12 16 21 25 28 28 28 27 25 24 23 22 22 20 19 18 16 15 14 14 13 12 10 8 7 4 3 3 4 8 8 8 10 12
8 14 12 17 15 9 13 18 15 16 16 18 21 25 27 27 27 26 26 24 23 22 22 20 19 17 15 14 13 13 12 11 10 7 6 5 3 5 8 10 10 11 12 12
16 20 12 11 12 13 9 16 15 16 16 18 20 23 25 25 25 26 24 24 23 22 21 20 18 16 14 14 13 11 10 9 8 6 5 4 2 2 2 11 14 16 17 16
17 9 14 13 6 12 11 12 14 13 14 19 21 20 22 23 24 25 24 23 22 22 20 20 19 17 14 13 12 10 8 7 5 4 3 2 4 5 5 6 6 6 12 18
12 12 12 11 8 7 7 10 12 16 19 21 22 28 26 25 25 25 24 24 23 22 20 18 17 16 14 12 10 7 4 4 4 4 5 6 6 5 6 6 7 8 9 10
5 6 7 9 9 7 8 9 11 14 17 20 25 24 26 26 28 28 24 25 27 24 23 21 18 14 11 9 6 4 6 5 5 4 5 5 5 5 5 6 7 8 9 11
8 7 8 11 9 8 8 8 11 13 16 19 23 26 31 36 35 34 32 29 25 25 22 17 13 11 6 5 8 7 5 5 5 5 5 6 7 7 7 7 8 9 9 13
7 8 6 5 7 7 7 9 12 16 20 27 33 36 34 33 30 30 31 28 24 22 18 14 10 8 9 9 7 6 6 6 6 7 7 8 9 9 9 8 8 9 11 12
7 7 7 9 5 8 11 16 20 22 24 29 31 30 27 26 30 28 26 23 20 17 12 9 8 7 6 4 4 5 6 7 7 8 9 11 9 9 8 9 9 10 11 12
6 5 3 6 8 8 14 16 20 25 26 26 27 30 31 28 25 23 21 18 12 10 9 8 5 4 3 4 5 6 7 8 9 10 11 11 9 11 9 11 11 11 11 12
16 15 16 17 20 19 19 21 23 26 26 28 31 31 29 25 20 17 15 13 10 8 5 3 3 3 4 6 7 8 9 10 10 9 9 9 10 10 11 11 11 11 12 13
21 24 25 26 28 28 26 27 28 28 28 25 23 22 22 20 16 13 9 6 6 4 3 3 3 4 7 8 9 11 12 12 11 10 9 10 11 11 11 11 12 12 13 14
26 28 29 30 31 31 29 27 24 22 22 20 19 17 16 14 11 7 6 3 3 3 3 5 7 11 11 11 11 12 11 11 10 11 12 12 13 12 13 13 13 14 14 15
27 28 28 27 26 24 25 22 20 19 19 18 16 14 10 7 5 3 2 3 3 4 8 10 11 12 13 12 11 11 11 10 12 12 13 15 14 14 13 14 14 14 15 16
26 25 23 22 23 22 21 19 19 17 15 14 11 8 6 6 2 1 2 4 4 4 10 11 12 13 13 11 10 11 11 11 13 14 13 13 13 14 14 15 15 16 18 20
23 24 24 23 21 18 17 16 17 15 12 11 9 7 6 6 5 3 4 6 8 8 8 11 11 13 11 11 12 12 12 12 12 13 15 14 14 15 15 15 16 17 18 19
23 21 19 20 19 17 15 14 12 11 10 10 8 8 7 6 6 5 5 6 7 8 8 9 11 12 13 12 12 12 14 13 14 15 15 14 14 14 15 15 16 19 21 21

GFSNGP_850_spd_054.txt.gz
Wind_Speed
18 18 17 20 21 20 21 14 13 19 19 14 13 6 10 11 18 17 11 14 14 17 16 16 17 17 18 22 25 25 26 27 25 22 19 17 16 17 17 17 16 14 13 11
20 19 21 19 18 20 21 20 18 18 17 15 12 14 12 20 25 9 7 10 15 17 22 20 19 21 26 25 24 22 20 16 13 12 13 14 13 12 12 11 10 8 7 6
17 18 18 19 18 17 14 16 14 16 14 12 13 8 12 12 13 12 14 11 10 14 19 25 23 23 20 19 18 19 19 14 14 15 14 11 11 8 9 8 8 6 5 4
6 5 24 9 14 14 15 16 15 16 14 13 15 15 13 8 1 8 11 13 14 14 19 20 22 21 23 22 23 19 19 19 18 15 14 14 14 13 12 10 8 7 4 3
6 12 12 15 12 11 12 16 18 19 18 14 22 2 0 3 4 7 15 17 18 18 18 19 24 22 24 23 23 22 20 18 18 17 18 16 14 15 13 11 7 4 3 5
3 10 12 4 12 17 11 12 12 14 12 11 8 2 3 7 9 14 19 19 19 21 22 22 23 25 26 24 22 22 20 20 18 17 19 17 15 13 8 7 9 8 8 6
10 7 6 6 13 21 16 7 11 16 18 6 3 1 2 12 17 20 21 23 23 23 23 24 25 25 25 25 23 22 21 22 23 21 17 13 11 9 12 13 11 10 8 6
7 5 13 9 10 18 9 21 11 16 8 5 4 6 10 20 24 25 25 25 25 25 24 24 24 26 25 25 25 26 25 22 19 15 13 11 12 14 13 9 8 5 5 4
6 4 12 14 14 12 15 15 17 12 16 11 10 14 20 25 25 25 26 27 26 27 27 25 25 24 25 25 24 23 21 17 15 14 15 14 12 12 10 9 11 10 8 8
10 11 12 19 24 21 18 15 16 12 11 7 16 20 22 23 25 27 27 27 26 27 27 25 23 23 25 25 22 19 19 18 16 17 16 15 12 12 14 13 9 7 9 9
11 12 13 21 21 24 9 12 14 10 7 11 14 24 27 26 27 27 27 26 25 25 25 24 24 24 21 20 20 20 18 18 18 18 14 15 14 11 9 7 7 8 9 10
5 7 1 7 6 13 24 24 24 14 9 14 16 20 22 25 26 26 27 26 25 24 25 24 23 22 20 19 19 21 20 19 17 19 16 7 5 6 6 7 8 9 9 10
12 19 19 14 14 16 15 13 13 14 12 11 16 18 24 25 27 28 27 28 27 27 26 24 22 20 19 19 21 23 21 17 16 13 11 12 8 5 8 9 10 10 11 12
8 12 8 5 4 14 17 16 13 16 13 13 18 18 23 24 25 25 26 26 26 27 26 25 25 23 24 25 24 19 17 16 13 11 8 8 8 9 10 11 10 11 12 14
13 8 7 9 12 9 10 10 12 6 6 7 17 19 23 23 22 23 25 27 28 26 23 21 18 16 16 18 19 19 17 13 10 7 4 7 8 8 9 9 8 9 9 8
12 8 7 7 7 7 9 7 2 1 3 5 12 16 19 23 23 25 25 27 30 27 25 24 21 18 16 15 13 10 8 4 3 6 5 6 7 8 8 9 9 10 11 13
11 11 13 11 9 5 2 1 2 5 9 14 20 26 31 33 33 31 30 28 29 27 24 22 22 19 15 11 11 7 5 3 4 5 6 7 7 8 10 10 11 12 12 17
10 9 9 8 6 4 7 8 9 11 13 17 22 26 30 31 31 29 27 24 21 22 19 15 13 12 10 6 3 2 4 5 5 6 7 9 9 11 12 12 11 12 14 15
6 5 4 4 7 9 9 10 12 14 17 20 22 25 27 28 27 25 21 19 21 21 18 14 12 8 5 2 2 4 4 5 6 8 9 11 11 11 12 11 15 16 16 14
13 13 12 14 13 11 15 15 17 18 17 19 22 24 23 22 23 25 23 20 16 14 12 9 8 6 3 1 4 4 6 6 8 9 12 11 11 13 14 11 14 14 14 15
23 23 24 25 26 23 22 20 22 23 21 20 24 28 29 27 23 18 16 16 13 10 8 6 3 2 1 3 6 7 8 9 10 10 11 11 13 12 12 14 15 16 16 16
26 29 29 28 29 28 24 24 24 26 27 28 27 26 24 20 16 14 12 9 9 6 4 2 1 2 5 8 9 10 11 11 11 11 10 11 13 15 15 15 16 16 17 20
30 31 31 33 33 33 31 29 28 26 26 24 21 19 18 15 12 10 9 7 6 4 2 3 5 8 8 8 9 10 9 12 11 11 13 13 14 16 18 16 17 19 19 17
30 30 29 28 27 28 29 26 24 23 23 22 19 16 12 9 9 7 6 4 2 2 6 7 7 9 10 9 9 10 11 11 12 12 13 14 15 15 16 18 20 19 19 21
27 26 25 26 27 25 24 22 22 20 18 16 13 11 11 8 7 4 3 2 4 3 8 10 11 12 11 10 11 12 12 13 14 17 17 14 13 15 17 18 19 21 22 24
24 25 25 24 23 19 17 18 20 17 13 13 13 12 10 9 7 6 5 5 6 4 8 9 13 14 11 11 13 13 13 14 16 15 17 18 19 18 17 18 20 22 22 23
23 20 20 21 19 17 15 15 14 13 15 12 10 9 10 10 9 8 5 6 8 7 8 10 11 12 14 16 16 15 14 15 15 17 19 20 19 18 18 19 21 23 23 22

GFSNGP_850_spd_057.txt.gz
Wind_Speed
11 11 14 16 12 16 14 14 10 6 7 10 9 9 11 9 5 5 24 26 23 20 16 13 11 13 17 28 29 27 26 23 23 27 27 23 21 22 22 21 19 19 18 18
16 18 15 10 15 15 17 16 12 11 13 18 19 15 17 15 15 17 19 25 28 27 26 22 20 20 20 21 21 20 22 23 25 28 27 21 20 20 19 18 18 18 17 14
17 19 18 16 16 21 15 12 11 13 9 8 12 9 16 13 21 25 25 19 16 29 30 29 26 24 26 21 20 21 22 23 24 25 23 20 19 20 18 18 18 16 14 13
4 4 14 7 11 10 16 14 6 4 4 6 7 15 14 24 33 26 27 20 21 22 32 33 31 27 25 24 24 20 21 23 23 22 21 21 20 19 19 17 15 14 12 9
7 9 5 12 8 4 7 8 7 6 6 8 18 4 6 11 11 15 22 22 22 22 32 35 33 32 32 28 25 22 20 21 21 20 21 20 19 19 16 15 13 11 9 10
3 3 17 2 8 11 3 9 4 3 8 5 9 4 4 13 10 14 18 22 24 23 27 28 30 32 31 28 25 23 23 23 22 23 22 21 18 16 16 12 10 11 13 12
3 1 6 5 8 8 7 4 6 14 7 4 5 7 14 15 13 15 18 21 24 24 24 24 28 28 28 27 27 27 27 26 26 23 21 19 17 16 13 17 17 17 16 13
0 3 5 8 8 6 4 20 19 21 18 6 15 16 20 19 20 20 21 23 23 24 24 24 26 27 27 26 27 28 29 27 25 23 22 18 16 18 19 20 18 19 17 14
7 5 5 19 8 9 15 22 14 10 3 12 11 19 21 22 24 23 25 26 25 25 26 26 26 26 28 31 31 30 28 27 25 22 20 19 20 22 22 20 18 16 14 13
4 6 9 26 18 15 20 22 25 21 5 5 9 1 17 22 27 29 28 27 27 27 28 27 26 28 30 32 31 29 28 25 23 22 22 23 23 23 21 19 18 16 16 15
2 3 14 25 16 15 24 29 32 22 21 2 9 19 32 27 28 28 27 28 27 28 28 26 26 27 29 30 29 27 25 25 26 28 29 28 26 22 20 17 15 14 13 13
5 14 13 15 3 1 10 10 21 34 28 21 10 24 23 23 23 26 27 27 26 27 27 25 25 26 26 23 22 25 27 27 27 26 24 22 20 19 15 13 13 12 13 13
4 6 5 7 2 2 3 4 8 15 17 16 9 18 21 22 25 24 24 25 27 29 29 29 29 27 24 24 25 26 27 26 24 22 19 16 14 11 10 8 8 6 8 9
15 10 7 7 4 6 6 8 10 12 10 9 10 18 22 26 27 27 26 29 31 32 30 29 28 25 21 21 24 25 24 21 22 19 16 12 9 7 4 7 8 8 10 12
20 14 10 5 6 5 8 10 8 8 5 4 5 19 25 29 28 30 32 32 35 34 31 29 27 23 19 22 23 20 17 17 15 12 9 5 5 7 9 9 11 11 11 11
16 11 11 11 10 8 9 7 4 6 7 15 20 27 31 34 37 38 35 35 37 33 28 27 25 20 16 15 14 14 13 9 6 11 11 6 7 9 12 12 11 11 12 14
18 18 18 15 10 7 7 7 5 6 9 13 20 27 32 35 37 36 33 30 30 29 23 17 15 13 13 15 15 12 13 13 11 7 5 6 8 10 12 13 12 13 14 16
5 5 8 7 7 7 9 8 9 10 11 16 20 25 29 31 35 34 33 28 23 20 12 9 11 14 14 13 10 7 5 3 2 3 6 9 10 11 13 13 14 15 15 16
6 6 6 8 8 9 11 10 11 12 14 17 21 24 26 28 28 28 24 19 15 15 16 13 12 10 9 8 6 3 1 1 4 6 9 10 11 12 13 14 15 15 17 18
18 17 17 19 17 17 19 17 17 18 18 19 25 28 29 26 22 21 18 21 18 16 13 10 7 6 5 4 3 1 2 3 6 9 11 11 12 13 13 15 15 16 17 17
24 25 26 26 27 25 24 23 24 26 24 22 24 25 26 24 21 19 18 20 17 12 10 8 7 5 3 4 5 5 6 7 9 10 11 12 12 13 14 14 16 17 18 19
27 29 30 30 31 30 28 27 27 28 28 28 28 26 24 22 19 18 16 16 13 9 8 6 5 5 5 4 5 6 8 9 10 10 10 11 13 15 16 17 18 19 20 21
31 31 32 32 32 32 30 30 29 28 27 24 22 21 21 19 16 14 16 12 8 7 6 6 6 5 5 5 7 8 9 10 10 10 12 13 14 15 16 16 15 17 21 22
30 30 30 29 29 29 30 27 26 25 24 21 20 17 14 14 16 13 11 8 5 2 5 7 7 7 6 7 8 9 10 11 11 12 14 16 17 17 17 19 20 21 21 22
29 29 28 28 28 26 24 21 21 20 19 20 19 15 13 12 10 9 6 6 5 3 7 9 11 11 10 10 11 12 13 12 13 14 15 16 17 19 22 21 19 19 21 24
25 26 24 23 23 22 22 19 21 17 15 17 16 14 12 11 10 8 7 7 7 6 7 10 12 11 13 13 15 13 13 14 14 16 18 19 21 22 21 20 21 23 24 26
22 21 21 21 19 17 15 15 16 17 13 11 12 11 10 9 8 5 5 6 5 5 8 9 9 11 14 14 13 14 15 16 16 17 18 20 21 23 23 22 22 23 24 24

GFSNGP_850_spd_060.txt.gz
Wind_Speed
18 16 17 6 9 10 14 9 10 8 12 11 11 10 12 24 17 23 27 31 31 27 22 18 15 16 21 37 39 40 43 43 38 37 41 42 40 38 40 35 38 33 25 23
19 19 17 19 17 19 17 6 6 7 8 7 15 23 17 19 25 21 18 34 35 31 24 22 18 14 19 35 34 32 35 39 36 33 28 30 34 33 36 36 30 27 25 24
6 6 13 8 25 22 8 6 5 7 8 9 9 10 14 23 32 27 21 24 39 35 30 28 26 23 22 28 29 30 34 33 31 31 30 28 32 32 30 26 27 25 23 21
7 8 13 18 5 10 11 13 13 6 7 12 12 27 32 33 33 29 29 25 30 37 35 34 34 30 27 26 27 26 29 30 30 32 35 34 31 28 27 25 23 22 20 18
3 5 8 13 8 15 15 20 14 10 9 8 16 8 4 15 31 37 28 28 28 32 38 40 37 33 29 26 25 26 28 28 29 30 32 31 29 28 26 24 23 21 21 20
3 6 8 2 11 7 3 6 5 7 10 7 2 2 5 15 15 17 17 22 26 26 32 40 37 33 29 29 28 29 29 28 28 31 32 29 26 25 23 22 22 21 20 18
3 4 8 5 8 8 8 5 5 7 6 9 4 10 15 24 20 17 17 18 21 21 23 34 37 35 32 31 30 27 24 25 28 28 26 24 24 23 23 23 21 20 20 20
2 2 8 4 9 3 2 7 14 20 21 12 12 9 15 25 20 22 21 19 20 22 26 29 32 28 25 23 23 22 24 24 24 23 24 23 21 22 22 22 22 22 22 23
7 8 18 7 3 6 5 10 13 18 22 17 13 16 26 25 26 23 17 18 22 24 25 24 24 24 24 25 25 24 22 22 23 22 20 19 20 21 22 22 22 23 22 21
3 8 14 16 5 11 20 14 13 16 16 21 17 11 16 19 26 24 22 23 23 22 23 23 23 23 23 24 23 22 22 22 21 21 22 21 21 21 21 22 22 21 20 20
5 5 5 8 4 7 21 15 18 18 20 21 24 21 16 20 25 26 25 24 24 22 23 24 26 25 24 23 23 22 22 24 25 25 24 22 21 21 22 21 18 17 17 15
7 9 7 9 15 7 9 11 4 7 17 24 27 23 24 20 27 29 24 27 26 26 26 26 25 25 25 24 24 24 26 25 24 24 24 24 24 24 21 17 16 14 13 13
6 22 15 11 11 10 6 7 10 10 7 12 14 18 21 23 23 25 27 28 29 30 30 28 27 27 25 25 25 24 24 24 24 24 26 24 21 16 15 15 13 10 9 12
22 10 12 13 6 4 3 3 2 3 7 10 9 11 19 20 23 26 29 30 30 30 30 30 30 28 26 24 23 23 25 25 26 25 21 16 12 11 9 3 6 12 12 12
21 18 12 6 4 7 7 5 5 6 5 4 5 8 16 24 28 29 29 31 34 33 30 30 30 26 25 27 27 28 26 25 21 18 15 12 10 8 14 15 11 12 12 13
12 10 14 15 10 10 9 9 8 8 5 5 10 19 27 32 33 32 33 33 35 34 32 30 29 28 28 25 22 21 17 14 14 14 14 14 14 13 10 9 9 9 12 14
12 17 18 17 15 13 12 10 9 8 9 10 15 20 25 29 31 30 28 29 30 30 26 23 23 18 15 13 12 13 11 11 10 10 10 8 7 7 7 8 9 11 12 14
5 5 6 5 3 4 7 9 8 8 10 12 15 19 23 26 30 31 31 28 28 26 21 18 14 11 10 9 9 10 9 9 7 6 4 3 4 6 7 9 11 12 13 14
11 9 8 8 7 8 10 11 12 13 14 16 19 23 26 29 30 28 24 21 20 19 19 15 14 11 11 10 7 7 6 5 3 2 3 5 6 6 8 10 12 14 15 16
18 18 18 19 18 17 19 19 18 20 20 22 27 29 30 27 23 22 20 24 23 22 16 14 12 11 9 8 5 4 4 3 2 4 5 6 7 7 8 10 12 12 13 15
24 25 26 26 26 25 26 25 27 28 27 26 27 28 27 24 22 22 23 26 20 15 14 12 10 9 8 7 6 5 5 4 4 5 6 6 7 8 10 11 13 15 16 17
27 29 30 29 30 31 29 29 31 31 30 29 27 26 25 24 22 22 21 21 17 12 11 11 9 8 7 6 6 5 5 6 7 7 7 8 10 11 12 13 14 15 15 16
31 31 31 31 31 30 29 29 28 28 27 25 24 22 22 21 19 19 20 15 12 11 10 10 8 6 5 6 6 7 8 8 8 8 9 10 11 13 14 15 16 18 20 21
31 29 29 26 25 26 28 25 24 23 23 21 20 18 17 17 18 15 13 9 8 9 10 11 9 7 6 7 8 9 10 10 10 10 10 12 12 14 16 19 21 21 19 19
24 23 22 21 23 23 20 19 20 19 18 18 17 16 14 13 11 12 8 7 6 7 8 9 9 9 11 11 12 10 9 10 11 12 13 14 15 17 18 19 20 20 21 22
21 21 20 19 19 17 16 15 17 15 14 15 15 12 11 11 10 8 7 7 7 8 10 11 11 11 12 13 12 13 14 14 14 15 15 15 16 18 20 20 19 19 20 21
19 18 17 17 16 13 12 11 11 13 11 9 9 8 5 4 4 4 5 5 6 8 9 9 9 10 12 13 14 14 13 13 14 16 16 17 19 19 17 17 19 20 21 21

GFSNGP_850_spd_063.txt.gz
Wind_Speed
13 15 16 19 10 12 18 12 11 8 12 13 10 11 16 27 20 17 16 17 25 30 30 31 30 29 31 35 40 43 44 46 49 46 46 50 47 46 43 43 42 37 35 36
4 12 20 18 18 23 11 5 7 9 8 7 14 22 13 23 25 24 18 18 31 34 32 31 28 24 21 24 29 36 39 43 44 46 46 49 47 43 45 44 42 38 33 31
6 10 18 7 14 15 17 19 6 10 8 7 7 9 16 28 32 32 29 27 30 34 34 35 32 26 24 22 22 27 31 34 40 44 44 44 42 41 40 42 41 31 29 31
3 2 5 7 25 17 18 19 13 6 6 9 11 21 28 38 32 30 33 35 37 33 32 38 35 32 30 27 27 30 33 34 37 40 42 42 40 38 34 33 30 30 30 25
2 2 8 12 6 13 10 17 13 15 11 10 24 13 15 22 26 26 28 29 35 32 28 33 39 37 31 29 28 31 32 32 35 36 38 37 33 29 29 30 28 25 24 23
3 3 6 2 5 22 15 16 6 11 20 15 12 4 5 22 21 21 19 27 33 28 29 31 39 34 30 28 26 28 26 25 27 28 28 30 30 32 29 27 27 25 24 21
4 4 7 7 6 12 2 5 7 13 10 6 5 12 26 26 23 23 19 21 23 25 25 28 30 33 31 29 28 27 25 24 23 26 28 28 30 30 29 28 26 25 25 23
2 3 8 5 8 7 16 25 8 12 13 12 11 13 16 12 23 22 14 12 12 13 13 15 20 24 28 29 27 24 21 21 23 27 27 29 28 27 26 26 26 25 24 22
9 6 4 11 7 9 14 22 33 20 12 12 17 20 12 16 15 16 17 14 13 15 15 16 20 25 27 26 21 20 21 24 23 25 25 25 24 26 26 24 23 23 23 22
2 5 14 24 24 22 27 28 17 28 19 15 18 21 26 14 10 14 15 17 18 18 17 18 19 20 19 18 18 19 21 22 23 23 24 24 22 20 21 23 22 20 21 22
14 9 15 18 22 29 27 24 22 15 21 17 19 22 23 26 19 16 17 19 16 18 19 19 19 17 17 17 18 19 20 21 23 24 24 24 22 21 19 18 18 18 19 19
4 6 6 17 18 18 15 5 10 10 12 10 10 28 23 25 23 19 18 18 20 19 19 18 18 18 18 19 19 18 20 23 24 25 25 24 24 23 22 21 21 19 17 17
4 22 20 22 8 9 5 5 4 6 8 8 6 5 17 22 19 14 14 18 22 20 19 20 20 20 20 20 20 18 20 23 25 27 27 26 26 26 27 22 18 16 14 14
11 19 6 11 9 10 8 8 8 7 7 8 8 7 14 20 18 18 15 21 19 21 20 18 20 22 21 22 25 25 27 29 29 29 28 27 26 24 18 13 10 9 11 11
15 9 9 6 5 9 9 7 9 10 10 7 5 1 6 12 15 17 20 22 22 22 21 21 22 20 21 23 26 27 27 27 26 25 22 19 15 11 10 10 10 10 11 11
15 6 8 10 10 11 11 11 9 8 7 6 5 7 10 14 18 20 19 19 21 20 18 18 18 15 15 17 18 18 18 16 15 14 13 11 9 8 9 10 10 9 8 8
12 7 11 11 10 10 11 11 10 9 8 9 11 12 12 15 19 19 20 22 27 29 27 25 25 20 16 13 12 14 13 12 9 7 6 6 7 7 6 6 6 6 6 7
2 1 3 3 4 6 10 11 10 11 12 13 14 17 19 21 29 31 29 27 27 27 25 19 16 14 13 10 9 9 8 9 8 7 6 4 3 3 3 4 5 6 7 8
9 11 11 11 11 12 14 15 14 15 15 16 20 27 32 33 32 31 26 26 26 25 23 17 14 14 14 12 10 10 9 8 7 5 3 2 1 2 3 4 5 7 8 10
19 20 20 22 20 21 23 22 21 25 26 28 30 31 32 29 25 24 23 28 26 24 18 16 14 15 13 12 9 9 7 6 5 5 4 4 4 4 5 6 6 8 9 11
25 26 28 29 30 29 29 28 29 30 28 28 28 29 30 26 25 25 25 28 21 17 15 14 13 13 12 11 9 9 8 7 7 6 6 5 6 7 8 9 10 11 12 14
27 29 30 30 32 32 30 30 31 31 31 29 28 27 26 25 24 25 24 23 17 13 12 12 12 11 10 10 9 9 9 8 8 7 7 7 8 9 10 11 12 13 15 16
29 29 29 29 29 29 28 29 28 27 27 25 23 22 21 20 19 19 22 17 14 12 11 11 10 9 9 9 9 9 9 8 8 8 8 9 9 9 10 12 14 16 16 16
26 26 25 24 23 25 28 25 24 24 24 23 21 18 16 16 18 16 15 12 12 11 11 11 10 9 10 10 10 10 9 9 9 9 9 10 11 12 12 13 14 14 15 16
20 20 19 19 22 22 20 18 19 18 17 18 17 15 13 13 12 12 9 9 9 10 10 10 11 11 12 12 11 11 11 11 10 10 10 10 10 11 13 14 15 16 17 18
17 17 17 17 17 15 14 13 16 16 14 14 14 13 11 10 9 7 7 8 9 10 11 11 11 11 11 11 12 11 11 11 11 12 12 12 13 14 14 15 16 17 18 19
16 16 15 15 14 13 11 11 10 11 10 9 7 7 6 5 5 6 7 8 9 10 11 11 11 12 12 12 12 12 11 11 11 12 13 13 14 15 15 16 18 19 20 21

GFSNGP_850_spd_069.txt.gz
Wind_Speed
7 9 8 7 10 9 9 9 8 8 13 11 12 14 19 23 27 27 31 21 18 16 15 16 19 22 24 23 26 27 28 30 33 33 38 44 47 43 40 44 44 42 34 36
2 9 11 12 11 13 9 3 2 6 10 8 18 21 14 24 25 23 27 30 27 25 23 21 24 25 25 27 26 27 26 26 28 28 29 32 35 41 44 44 44 43 43 39
3 3 4 7 12 16 8 7 6 5 6 5 11 15 19 24 26 23 21 23 23 25 29 28 28 28 29 28 28 29 29 29 28 28 28 28 28 30 33 39 42 44 43 43
1 2 6 3 6 6 10 11 11 9 5 7 10 19 26 23 27 30 26 24 27 29 32 28 26 29 29 33 32 31 34 31 30 30 28 27 27 29 30 32 35 35 35 37
3 5 8 11 6 2 5 6 6 7 8 12 20 16 9 21 25 28 33 34 33 28 26 30 31 31 32 37 36 34 36 35 33 32 29 29 29 29 27 27 25 26 30 30
3 2 4 4 2 1 2 6 4 2 5 9 16 8 6 28 35 28 28 31 25 24 23 22 27 30 32 34 31 34 36 33 32 30 29 30 29 25 25 25 25 27 28 28
6 5 7 9 4 2 1 4 5 5 8 9 7 7 22 28 30 30 22 23 26 25 25 23 21 21 25 29 29 31 32 29 28 26 26 25 21 21 23 25 25 25 26 26
4 5 9 4 2 2 6 16 13 18 19 12 19 23 23 28 26 29 32 19 15 17 15 12 12 13 17 23 27 27 25 22 20 19 18 17 18 19 20 21 23 25 25 26
8 6 2 2 4 15 14 18 22 21 29 22 20 26 26 26 22 25 23 19 12 7 9 10 3 6 10 15 17 18 15 15 17 18 16 13 15 19 21 21 24 27 29 31
4 3 12 24 13 10 18 18 23 23 23 25 24 19 21 28 21 19 16 20 13 8 4 7 5 5 6 8 11 11 14 16 18 17 14 15 16 17 18 20 23 25 28 28
10 11 13 17 9 21 22 20 21 22 19 10 15 14 17 22 21 14 10 13 14 8 7 8 8 8 10 11 11 12 16 16 13 11 12 14 15 14 14 14 14 19 20 19
7 2 5 8 18 19 17 19 18 18 17 11 12 13 13 19 20 14 6 7 11 13 8 4 6 13 13 11 12 13 14 15 14 15 16 17 18 22 21 18 16 14 14 16
3 10 12 15 12 11 17 15 16 15 12 12 9 9 5 7 7 4 3 8 13 14 10 3 3 6 9 12 12 12 14 15 18 19 23 24 25 24 24 19 16 12 14 14
8 9 6 5 7 17 16 12 10 9 9 9 10 8 7 4 4 6 9 10 9 12 15 9 5 5 4 4 5 12 17 18 20 23 24 25 23 20 17 19 23 23 17 13
8 9 12 12 11 9 9 8 6 5 8 7 6 8 8 8 11 14 13 12 11 11 13 11 12 9 3 2 6 9 12 16 17 18 18 20 21 21 19 18 18 17 15 10
15 13 5 4 6 8 8 6 4 7 5 9 13 16 15 15 18 18 17 17 15 22 21 19 19 17 13 10 12 16 19 20 21 23 23 22 19 18 17 15 14 12 10 7
13 10 13 9 9 8 7 7 7 9 9 13 16 19 20 23 26 28 28 28 29 30 28 28 27 23 22 22 23 25 24 23 20 20 18 16 15 13 12 10 9 9 7 5
4 4 4 4 4 5 8 9 9 12 17 19 20 23 27 29 33 33 31 29 29 30 29 26 23 21 21 20 20 19 18 18 16 16 14 13 13 11 11 10 10 8 6 4
7 7 8 7 9 11 13 14 16 19 20 23 25 29 30 30 29 29 27 28 30 30 26 22 20 21 21 19 17 17 16 15 16 15 13 11 10 9 8 7 7 6 4 2
14 14 13 15 17 18 20 20 23 26 25 26 28 29 30 28 26 26 28 33 29 25 20 20 20 20 19 17 15 16 15 13 13 12 11 9 8 7 6 5 3 2 1 2
20 20 22 24 25 24 24 22 24 26 25 25 27 28 27 25 24 24 27 29 22 17 16 16 17 17 15 13 12 11 11 10 9 9 8 8 7 5 4 4 3 3 3 4
20 22 23 24 25 26 24 25 26 26 26 26 26 25 24 24 23 24 24 21 16 13 15 16 16 14 12 11 11 10 10 9 9 8 8 7 6 6 5 5 4 4 4 4
22 23 23 24 25 25 24 23 23 22 22 21 20 19 20 20 18 18 19 17 14 13 13 14 13 12 11 11 11 10 10 10 9 9 8 8 8 7 6 6 6 6 6 6
20 20 20 20 20 21 23 20 19 19 19 18 17 17 16 15 16 17 15 12 12 12 13 13 13 13 12 12 12 12 12 11 10 10 9 9 8 8 7 7 7 7 7 8
16 16 16 15 17 17 15 13 13 13 13 14 14 14 13 13 13 13 12 12 12 12 12 12 12 12 11 11 11 11 10 10 10 9 9 8 7 7 6 7 7 8 9 10
12 13 13 13 14 13 12 10 11 12 9 9 10 10 10 11 11 10 10 10 11 11 11 11 10 10 10 10 9 9 9 9 9 8 8 8 8 8 8 9 10 11 11 12
12 12 12 12 12 10 8 8 6 7 7 7 7 8 8 8 8 8 9 9 10 10 10 10 10 10 9 9 9 9 9 9 9 9 9 9 9 10 11 11 12 12 12 12

GFSNGP_850_spd_072.txt.gz
Wind_Speed
6 4 4 6 7 6 8 8 9 11 13 12 13 14 16 21 23 23 24 21 16 15 13 13 18 22 26 28 31 33 34 35 38 40 41 41 41 41 42 43 44 42 42 44
9 8 10 13 13 12 12 11 11 11 12 9 8 14 17 20 23 22 23 22 18 15 16 18 17 19 23 27 30 31 33 31 30 32 33 37 39 40 37 38 38 36 37 37
9 3 7 10 17 18 16 11 11 10 7 6 12 13 18 23 26 25 26 26 25 23 19 18 19 24 25 25 26 30 32 30 31 31 32 32 32 32 34 35 34 36 34 33
2 4 6 2 1 4 8 11 10 10 9 9 10 16 21 10 15 21 23 25 26 23 20 20 19 19 24 23 26 30 31 32 32 32 31 29 28 29 29 29 30 32 34 34
4 9 13 16 10 8 7 2 3 6 7 8 11 15 10 10 19 21 25 26 25 27 24 25 18 17 20 22 25 27 32 35 34 32 31 29 28 26 26 27 29 29 30 29
5 5 5 3 3 3 2 4 7 6 9 12 16 8 8 22 24 25 25 26 24 23 25 25 25 24 20 23 24 29 34 33 31 30 29 29 27 29 29 25 21 21 25 25
11 7 4 8 6 4 5 4 13 14 15 16 10 11 18 24 23 23 24 28 25 20 17 19 21 23 21 17 21 23 22 24 24 26 26 28 32 28 24 19 19 23 24 25
9 8 9 3 3 7 8 12 14 17 19 20 20 18 16 18 21 21 22 25 23 18 19 17 14 10 11 11 19 21 25 28 28 28 27 28 25 22 20 21 20 21 23 25
8 8 4 3 3 10 9 11 14 15 18 21 20 17 16 13 14 15 17 21 20 18 16 14 9 3 9 9 9 11 15 18 20 20 19 21 21 23 23 23 24 23 23 24
9 8 12 6 6 10 14 13 14 14 15 18 18 16 10 10 14 16 20 22 20 17 14 12 7 1 4 5 4 6 13 16 18 18 21 20 20 18 20 20 23 23 24 25
13 12 12 16 6 12 14 12 13 14 14 15 15 13 12 10 12 15 14 21 16 13 13 11 7 2 4 6 6 11 15 16 18 18 20 21 20 19 20 18 17 17 21 23
8 8 5 11 12 14 16 15 15 15 16 13 13 12 9 7 8 11 16 15 12 6 9 11 10 8 5 2 4 9 12 14 15 16 16 16 17 19 15 12 12 14 18 19
4 9 9 12 16 7 11 16 14 12 11 12 10 8 8 7 9 11 10 8 9 9 7 7 13 13 17 15 8 5 12 13 14 15 15 17 19 20 25 21 18 16 18 15
7 11 10 3 10 15 17 13 12 9 9 10 9 7 4 3 2 5 4 6 7 7 8 11 12 13 4 5 11 5 2 8 15 19 19 20 21 22 25 25 27 25 19 18
8 8 9 12 6 10 11 10 7 8 8 8 8 4 4 4 6 8 8 9 11 12 14 14 14 15 12 9 5 9 11 14 14 17 18 21 22 23 26 25 26 26 23 19
13 8 5 4 6 8 9 8 5 5 6 7 8 7 10 13 16 17 17 17 18 24 24 23 22 20 16 15 16 18 19 20 20 23 24 25 25 24 23 22 21 20 18 16
10 5 9 5 5 6 7 6 6 7 7 10 12 14 18 21 26 28 28 27 28 30 29 28 26 23 24 24 25 27 25 24 24 24 23 22 21 20 19 17 16 14 14 12
3 3 4 3 4 6 7 6 8 10 12 14 16 19 21 25 29 28 29 28 28 29 28 24 21 20 21 20 20 21 20 20 19 20 18 17 17 16 15 14 12 11 10 8
6 6 7 9 10 10 11 11 14 16 18 20 21 23 24 24 25 26 25 26 28 29 25 20 19 20 20 18 18 18 18 17 17 17 16 15 14 14 12 11 10 8 6 5
11 12 13 15 15 15 17 18 20 22 22 22 24 24 24 24 23 23 23 29 27 23 18 17 17 17 17 15 13 14 13 13 13 13 12 12 11 10 9 8 7 7 5 4
14 16 19 20 21 21 21 21 22 22 22 21 22 22 22 20 20 19 21 23 19 15 14 13 13 13 13 12 11 11 11 11 11 11 10 11 10 8 7 6 6 5 6 5
16 18 19 21 22 23 22 22 22 22 22 22 22 20 19 19 18 19 19 18 15 13 12 13 14 13 12 10 11 11 10 10 10 10 10 9 9 7 7 6 5 5 4 3
17 18 20 21 21 22 21 20 19 18 18 17 16 15 15 14 13 12 15 16 14 13 12 14 13 12 11 11 12 12 11 11 11 11 10 9 8 7 6 5 4 4 4 4
17 17 18 18 17 17 18 17 16 15 14 13 13 12 11 11 13 13 13 12 12 12 12 12 12 12 11 12 11 11 11 10 10 9 8 6 6 5 4 4 5 5 6 7
14 14 13 13 13 13 12 10 11 11 11 11 11 11 11 11 10 10 11 11 11 11 11 11 11 10 10 10 10 9 9 9 8 7 6 5 5 5 5 6 6 7 8 8
9 9 10 10 10 9 8 7 8 7 7 8 9 9 10 11 11 10 10 10 10 10 10 9 9 9 9 9 8 8 7 7 6 5 5 5 6 6 6 7 8 9 9 9
9 9 8 8 8 7 6 6 6 7 7 7 7 7 8 8 8 8 8 8 8 8 8 8 8 7 7 7 7 7 7 7 7 7 7 7 7 8 9 9 9 9 9 9

GFSNGP_850_spd_078.txt.gz
Wind_Speed
13 10 11 4 12 11 13 14 9 9 14 6 6 9 15 9 10 15 20 22 24 26 25 23 22 16 22 27 30 34 33 37 42 42 42 41 42 42 42 43 42 42 44 45
14 10 10 16 11 13 12 18 9 7 12 14 21 6 9 11 11 17 17 19 22 23 25 26 28 26 15 21 27 30 35 38 40 39 41 42 43 42 42 45 46 47 47 47
12 8 13 9 11 11 10 9 9 9 10 4 5 8 9 8 10 13 13 16 18 20 22 25 23 23 27 23 18 28 34 39 40 40 41 44 44 43 46 47 45 49 49 49
8 8 7 10 10 4 8 14 15 15 7 3 3 7 13 12 18 15 14 14 14 18 21 20 19 21 21 17 22 20 33 37 39 40 43 42 41 45 46 46 46 47 49 48
8 7 12 15 6 3 7 8 11 15 3 8 8 5 21 20 17 13 15 17 18 18 15 18 20 19 20 21 18 19 23 30 38 39 39 39 40 44 45 42 43 46 44 43
5 7 6 7 15 3 5 7 11 9 9 7 6 5 8 19 17 13 14 17 16 16 18 25 28 27 22 17 17 17 21 21 20 38 39 41 42 41 39 39 40 38 38 41
10 7 5 6 11 9 11 4 9 8 12 13 8 9 18 20 16 12 16 19 18 17 19 24 28 28 26 23 20 19 20 22 23 17 36 38 38 37 35 34 35 38 39 40
7 6 12 7 7 8 12 14 11 12 14 14 11 12 14 15 18 17 17 18 17 16 19 21 21 24 26 24 24 24 24 23 22 17 21 30 33 35 36 37 43 43 44 41
9 7 8 8 17 11 11 13 16 15 15 14 12 12 13 14 16 17 17 16 15 16 18 19 19 19 20 25 29 26 23 20 21 20 14 18 28 34 37 38 38 39 37 39
2 6 5 12 20 14 14 14 16 13 11 11 11 13 13 14 15 15 15 16 17 16 18 19 16 16 16 17 19 25 32 28 19 13 12 11 16 21 25 30 32 36 37 36
5 10 6 16 17 10 17 15 14 13 12 12 13 13 15 14 14 15 15 16 17 18 18 19 18 17 17 16 16 17 20 23 23 16 9 4 7 10 15 18 22 26 27 25
2 10 13 13 10 16 15 13 13 13 11 11 12 11 11 9 9 10 11 13 14 15 15 16 16 15 15 14 13 13 14 16 16 13 9 7 14 14 13 9 9 8 6 13
7 12 11 15 17 14 12 14 14 12 11 9 9 10 10 8 11 12 14 15 15 16 15 16 16 15 13 13 10 8 9 9 9 7 9 12 19 28 33 29 27 25 22 22
15 17 6 17 10 13 14 13 10 10 10 10 10 10 10 10 10 12 14 15 15 15 16 18 21 22 18 15 12 14 14 15 15 14 16 15 21 24 32 34 41 39 33 32
15 11 7 8 11 13 13 12 9 11 10 11 12 11 12 13 15 17 16 17 19 21 22 23 23 22 21 19 19 19 22 23 23 24 26 27 29 29 32 32 36 34 31 28
13 8 10 11 11 11 11 11 8 8 8 9 11 13 15 16 19 21 22 21 23 26 24 25 24 20 17 20 23 24 24 22 22 22 22 24 25 26 28 30 30 28 21 20
11 11 12 10 7 8 8 8 8 8 9 12 13 14 16 18 21 22 22 21 22 24 24 23 21 19 20 20 20 21 22 22 24 23 22 22 21 22 23 23 23 20 19 14
8 7 6 6 7 8 9 8 9 10 11 12 13 15 16 17 18 18 17 16 17 19 22 22 19 17 17 18 18 18 18 17 18 20 19 20 21 20 20 20 17 17 16 13
10 9 9 9 9 10 11 11 12 13 13 14 15 18 18 17 15 15 13 14 16 18 20 18 16 16 17 17 16 16 16 16 17 18 17 16 17 17 16 16 14 13 11 10
11 10 10 11 12 12 15 14 14 15 14 14 15 16 17 16 14 14 14 18 18 16 14 12 13 14 15 15 14 13 13 13 14 14 13 14 14 15 15 13 11 11 9 9
12 13 15 16 17 16 16 14 15 16 16 16 16 15 14 12 9 10 12 14 14 12 12 12 12 14 14 13 12 12 12 12 13 13 13 13 12 12 11 9 8 8 8 8
12 13 14 15 16 16 15 15 15 15 15 15 14 13 12 13 11 10 11 12 11 11 11 12 13 13 13 13 13 13 12 12 12 11 11 10 9 9 8 7 7 6 6 5
13 13 14 14 15 16 15 14 13 12 12 12 11 11 9 8 6 7 10 11 11 11 11 11 11 11 11 11 11 12 13 13 12 11 10 9 8 7 6 6 6 4 3 3
13 13 13 13 12 12 12 11 11 11 10 8 7 8 7 6 8 9 9 9 11 11 11 11 11 11 10 10 12 11 9 9 8 8 8 7 6 6 6 3 1 2 3 3
10 10 10 9 9 10 10 10 9 7 7 6 6 7 6 5 4 7 7 8 8 7 9 9 10 12 11 11 10 9 10 8 8 5 6 5 4 4 4 5 6 6 5 6
6 6 7 8 7 6 5 4 5 4 3 4 4 4 5 5 6 6 9 10 9 9 9 10 9 8 8 9 9 9 8 10 8 7 5 6 5 6 9 9 8 9 9 9
7 6 5 5 3 3 5 5 4 3 1 1 2 3 4 6 7 6 7 6 7 7 8 9 11 12 12 9 9 9 8 8 11 10 8 9 9 10 11 11 11 11 11 11

GFSNGP_850_spd_081.txt.gz
Wind_Speed
9 12 8 7 8 6 11 12 6 2 10 9 4 11 6 21 17 26 25 27 25 26 27 23 22 18 7 10 32 28 29 31 36 38 38 38 38 38 38 41 43 44 45 46
8 10 13 7 9 8 3 2 8 6 9 10 13 6 6 18 17 20 21 21 23 23 24 25 24 22 16 16 9 24 31 32 33 36 39 42 43 43 42 43 44 44 47 47
4 8 6 5 9 10 12 16 14 9 8 12 7 9 4 18 19 19 17 23 24 23 23 24 26 27 23 16 11 9 8 35 36 37 39 41 44 44 46 47 47 50 49 48
3 7 5 6 6 10 12 8 9 3 6 11 17 25 21 18 18 21 23 22 22 20 21 22 22 21 23 23 19 13 11 9 11 27 41 43 44 46 46 47 48 50 51 53
2 3 9 14 2 3 1 3 7 5 11 12 18 20 19 23 22 23 21 20 18 18 18 20 22 22 21 22 24 23 18 17 17 11 17 31 47 46 46 47 48 49 49 50
2 4 5 10 5 11 2 3 11 16 14 15 20 8 5 30 27 27 22 19 16 16 15 16 20 21 22 23 25 25 26 24 24 24 23 22 32 48 47 46 46 46 46 46
7 4 7 4 4 8 4 2 14 21 19 20 12 9 21 24 25 20 17 16 15 17 17 17 17 18 19 20 21 21 24 28 29 28 26 24 25 36 43 46 44 43 44 45
4 4 7 10 3 3 4 17 21 24 23 23 23 23 25 23 21 17 16 16 17 18 19 19 18 16 16 17 19 21 22 23 26 29 28 25 23 24 32 38 41 42 43 44
7 6 4 20 19 19 19 21 22 22 20 19 19 21 20 15 13 14 15 17 18 18 18 19 19 19 18 19 18 20 22 23 22 23 24 25 22 17 18 21 32 41 43 43
2 11 13 23 21 26 21 26 23 13 13 11 10 10 11 10 11 13 16 19 20 20 21 22 21 20 20 19 18 18 20 21 21 21 21 20 19 14 10 10 12 19 28 31
3 10 17 15 17 15 20 21 16 11 9 9 4 9 6 7 10 12 15 17 18 18 18 18 18 17 17 16 15 15 17 18 18 20 20 20 18 14 13 11 9 6 8 12
4 13 14 9 12 11 14 13 12 14 8 9 8 8 5 7 8 9 12 12 13 12 11 13 13 13 12 12 12 11 11 14 15 15 16 17 19 20 21 16 17 13 11 10
4 7 17 15 11 12 13 10 8 8 8 7 8 6 6 7 7 9 10 11 12 13 13 13 13 14 15 14 13 12 11 12 12 13 14 16 20 25 30 33 32 31 30 36
16 12 10 13 11 10 12 12 9 11 11 10 9 10 9 10 11 13 15 15 14 13 14 15 16 18 17 16 14 16 17 17 17 17 17 18 22 27 30 34 37 33 30 30
21 15 12 11 6 9 7 6 9 12 10 12 12 15 15 16 17 17 17 17 17 18 19 18 19 19 15 15 17 18 19 20 18 19 20 22 24 27 28 30 30 28 23 23
10 9 13 12 10 9 8 9 11 11 11 12 15 16 18 20 20 19 17 17 18 21 20 20 20 18 15 14 16 17 19 19 17 17 17 19 21 22 22 23 23 21 20 18
10 14 13 11 10 10 12 11 11 11 14 16 18 17 17 18 19 18 18 17 17 18 19 18 18 15 15 14 14 16 17 17 17 18 18 17 16 17 17 17 17 17 18 14
7 5 5 6 9 8 9 10 10 11 13 13 13 13 15 15 17 16 15 14 14 15 17 18 15 14 14 13 13 13 14 15 15 16 15 15 15 14 13 13 13 12 13 11
5 5 5 6 5 6 9 11 13 14 15 16 16 17 16 14 12 12 10 11 13 14 16 13 11 11 10 10 10 11 12 12 13 13 13 13 13 13 13 12 11 11 9 8
5 4 5 7 8 10 13 12 12 13 13 13 14 14 14 13 10 10 9 13 14 13 8 8 8 9 10 8 8 8 9 10 11 10 10 10 10 10 10 9 9 9 9 8
11 12 13 14 14 13 13 13 15 17 16 14 13 13 12 10 7 7 7 9 11 10 8 8 9 11 11 9 8 8 9 9 9 9 9 9 9 8 8 7 7 6 6 6
9 11 11 12 13 14 13 13 14 14 13 12 11 9 8 7 6 7 10 10 11 10 9 9 10 10 10 10 11 11 11 10 10 9 8 7 6 6 6 5 5 4 3 4
9 9 10 11 13 14 12 11 10 9 9 7 7 7 6 6 5 6 7 10 10 9 8 9 9 9 9 9 10 10 10 10 10 10 8 7 7 5 3 4 5 3 2 4
11 11 12 11 10 9 9 8 7 7 6 5 5 4 3 6 8 8 8 7 9 9 8 8 8 8 8 8 9 8 7 7 7 7 7 6 6 7 6 4 4 5 6 7
9 9 8 7 6 7 6 6 6 4 5 5 5 4 3 3 4 8 7 7 6 7 8 8 9 9 8 8 8 8 8 7 8 6 6 6 6 6 7 7 6 7 7 7
7 7 8 7 6 5 3 5 4 1 3 4 6 7 7 6 6 6 7 8 7 8 9 9 10 9 8 8 8 7 8 7 6 4 6 6 7 10 10 9 9 10 10 9
5 3 2 1 1 4 5 6 6 5 3 4 2 2 4 5 5 4 5 6 6 6 6 9 11 11 11 11 12 9 10 12 12 11 10 10 11 12 12 10 9 10 11 11

GFSNGP_850_spd_084.txt.gz
Wind_Speed
5 7 8 11 12 8 8 10 5 6 7 4 3 8 10 18 13 21 27 30 35 32 29 28 24 19 15 7 3 15 27 32 33 31 29 30 33 33 34 36 38 40 42 44
5 6 10 10 16 9 10 5 4 6 5 5 4 10 11 9 15 20 28 30 31 25 27 26 22 21 17 14 14 8 13 24 31 32 36 38 37 36 37 37 39 41 43 45
4 4 7 5 12 13 10 8 10 7 6 11 6 5 10 14 9 18 24 29 25 24 24 24 22 18 16 17 13 6 9 1 15 24 22 28 37 40 41 43 43 44 44 44
4 5 4 5 18 12 14 8 16 7 7 19 18 10 10 16 23 22 25 23 21 18 20 21 19 19 19 17 14 13 10 6 4 5 11 19 27 34 42 47 48 48 49 48
3 3 7 18 6 5 3 1 12 11 16 22 23 29 23 24 25 23 22 21 18 18 17 15 16 17 18 19 20 19 17 17 15 13 13 14 16 22 31 39 48 52 53 51
2 3 3 7 9 10 9 2 12 9 15 11 19 10 7 15 19 20 18 18 18 16 14 14 16 16 16 17 18 20 23 24 23 21 17 16 18 22 23 28 39 47 52 54
4 4 6 9 13 18 4 3 8 18 17 20 11 11 19 16 18 17 16 16 15 16 17 18 16 15 14 16 19 20 19 20 22 24 24 21 19 20 24 26 28 35 42 48
4 4 9 15 13 4 6 16 18 20 21 25 25 23 17 14 14 14 15 16 17 17 18 18 17 17 17 16 16 16 18 21 23 23 23 24 22 19 18 24 26 25 33 38
5 5 7 16 17 16 17 19 18 21 14 18 18 15 13 12 11 14 15 17 16 16 14 15 16 17 15 15 15 14 17 19 21 22 22 22 21 20 17 16 20 21 19 23
2 7 13 18 22 21 17 18 13 12 9 12 15 11 9 8 12 12 14 15 15 15 15 16 16 15 14 14 14 14 14 15 17 20 21 21 22 20 20 18 18 17 11 8
3 8 14 17 17 15 15 13 8 7 10 7 7 10 10 9 8 10 11 12 12 14 14 15 16 16 15 13 12 11 12 12 14 16 18 20 23 24 25 24 19 16 12 6
1 10 12 10 12 9 4 9 8 5 3 9 9 8 6 7 7 8 9 10 11 12 13 15 14 14 15 15 13 11 10 10 11 12 14 17 21 24 23 24 25 26 24 21
5 15 18 15 13 12 8 6 5 3 5 6 6 5 5 7 8 8 9 11 13 15 14 14 15 15 15 15 13 12 11 12 12 12 14 16 19 22 27 28 29 32 29 26
8 5 11 11 10 11 7 5 5 5 6 7 7 7 8 9 10 12 14 14 13 12 13 13 14 16 15 13 12 14 15 14 14 15 16 17 18 20 21 24 27 25 21 21
15 14 12 9 6 7 3 1 2 5 7 9 8 9 9 11 13 15 14 13 12 13 14 13 15 16 14 13 12 13 15 15 14 14 14 15 16 18 20 21 23 22 18 17
6 8 6 6 6 4 2 2 3 5 5 6 9 11 12 13 14 13 12 11 10 15 15 14 14 14 12 11 12 12 12 12 12 13 13 13 13 15 16 16 16 17 16 16
3 8 5 5 4 4 4 3 4 7 9 10 11 12 13 14 14 14 12 12 12 12 12 13 13 10 9 8 8 10 9 9 9 9 10 11 11 11 13 13 13 14 14 12
6 4 4 7 5 5 7 6 8 9 10 10 10 11 11 11 12 12 10 9 9 9 10 11 9 8 7 6 6 6 6 7 7 8 8 8 8 8 8 9 10 10 10 9
4 5 5 4 4 5 7 9 10 12 12 11 12 12 11 10 9 8 6 5 6 7 9 7 6 5 5 5 4 4 4 4 5 6 5 5 6 7 6 7 7 7 7 6
3 4 5 6 7 7 11 11 12 13 12 11 11 11 10 9 7 6 5 5 7 7 5 5 5 4 5 4 4 3 2 3 3 4 4 4 4 4 5 5 6 7 7 8
9 8 9 10 11 11 10 10 11 12 10 7 7 7 7 6 5 5 4 5 7 6 4 4 5 6 5 4 3 3 4 4 4 4 5 5 5 5 5 5 5 5 5 6
7 9 10 11 12 13 12 11 11 11 9 8 6 5 4 5 4 4 5 6 6 5 4 5 6 6 6 6 6 5 5 4 4 4 4 4 4 3 3 3 2 2 3 5
7 8 8 8 9 10 9 7 6 5 5 4 4 4 4 4 3 3 4 6 6 5 4 5 5 6 5 5 5 6 6 5 5 4 4 3 3 2 2 3 4 5 5 6
8 9 9 8 7 6 6 6 5 5 4 3 3 3 4 5 3 3 5 6 6 4 3 6 5 4 4 4 4 3 3 4 4 5 5 5 4 4 4 5 5 6 6 5
5 5 4 4 3 3 2 2 3 2 4 5 5 4 3 2 1 4 4 5 5 5 5 5 5 5 5 5 4 4 3 4 4 4 6 7 7 7 8 8 7 7 7 8
5 5 6 5 3 3 4 5 6 5 4 4 5 5 4 3 3 4 4 5 5 4 4 5 5 6 5 5 7 7 7 6 6 6 7 9 9 9 8 8 8 9 9 9
5 5 5 5 4 4 4 7 8 7 6 5 6 4 5 4 3 4 3 4 6 7 7 7 7 7 8 9 10 9 9 9 9 8 9 10 11 12 13 11 11 11 12 13

GFSNGP_850_spd_087.txt.gz
Wind_Speed
4 6 6 9 11 11 8 9 6 7 10 5 3 7 4 18 18 18 25 28 28 32 33 30 27 22 14 7 8 15 16 16 19 19 22 24 26 25 27 30 32 33 35 38
3 7 8 9 11 12 8 9 9 11 13 7 5 6 9 7 10 18 19 23 20 24 31 28 25 23 17 15 13 6 11 14 15 16 18 21 26 30 31 33 35 37 40 41
3 7 9 5 4 7 4 5 3 4 5 1 0 4 10 10 14 16 16 17 21 24 27 24 25 22 17 15 10 9 9 9 10 10 12 17 22 25 26 29 34 40 43 45
3 4 3 6 12 11 5 7 5 13 8 8 10 20 17 12 18 15 15 18 18 19 20 19 20 20 17 16 14 12 10 7 3 1 5 8 11 17 25 27 32 36 38 42
2 3 6 10 4 5 8 11 4 9 5 14 18 25 19 19 20 14 16 15 14 12 13 12 15 15 13 12 13 13 14 14 13 11 8 7 8 12 15 17 21 29 33 42
1 3 5 5 4 15 9 6 9 7 21 18 16 5 4 12 14 14 13 13 12 11 9 12 14 12 10 11 11 12 14 15 15 14 13 13 13 13 13 15 19 20 24 30
5 5 6 4 9 13 1 4 12 16 8 9 5 10 18 13 14 11 11 10 9 9 10 12 11 10 9 10 10 12 14 15 17 17 16 15 14 14 15 16 16 14 16 18
2 5 8 11 7 3 3 18 16 20 18 24 23 20 16 13 12 10 9 7 8 9 10 11 10 9 9 8 10 10 12 14 15 16 18 18 17 15 13 13 14 14 11 13
4 3 9 16 17 17 18 17 16 20 16 16 15 12 9 8 9 9 9 9 10 9 9 10 10 9 8 9 7 9 9 11 13 15 16 14 14 14 15 14 14 13 13 12
4 8 10 11 16 21 19 20 16 15 14 11 11 7 5 7 8 7 8 10 11 10 10 12 13 13 11 8 6 5 6 6 8 12 14 13 13 15 15 16 16 14 13 13
3 5 5 15 14 13 16 14 14 13 12 12 8 8 4 3 5 5 7 8 9 11 13 14 14 14 13 11 10 8 7 8 9 12 14 17 19 21 22 22 18 18 20 17
3 8 7 7 11 8 10 10 10 7 8 8 6 6 2 3 2 5 8 9 11 13 13 14 14 14 15 14 12 9 9 9 10 12 13 16 19 21 20 20 21 23 23 21
3 15 15 12 10 10 8 8 7 6 6 5 6 5 4 4 5 8 10 12 13 14 13 14 14 16 17 16 14 13 12 12 12 13 13 15 17 18 21 20 21 22 22 20
9 7 6 10 6 7 7 6 7 8 8 7 6 5 6 7 8 11 12 12 11 11 12 13 14 17 18 16 15 15 15 15 14 14 14 15 15 16 16 16 19 20 19 18
10 8 7 5 3 4 5 5 7 6 6 5 4 5 8 8 10 12 11 11 11 11 13 13 14 17 16 15 14 14 14 15 14 14 14 14 13 14 14 15 16 17 15 14
4 2 0 1 3 5 5 5 4 2 3 3 4 7 8 9 10 10 10 9 6 11 12 12 13 14 13 12 12 12 12 12 10 11 10 10 10 10 11 12 12 12 13 15
3 2 2 1 3 5 5 4 2 1 3 4 7 8 8 8 8 9 9 9 9 10 10 10 12 10 9 9 9 9 8 8 7 7 7 8 8 9 9 9 10 10 12 11
2 0 2 2 1 1 2 2 2 3 4 5 6 6 6 6 7 7 7 6 5 5 7 9 8 8 7 7 7 7 6 6 5 5 6 6 7 7 7 8 9 9 9 8
4 5 3 3 2 1 2 3 3 4 4 3 3 4 4 4 4 3 4 4 4 5 7 8 9 8 7 6 6 6 5 5 5 5 5 5 5 6 6 7 7 7 8 7
4 5 5 5 5 6 7 8 7 7 6 4 4 4 4 4 4 4 4 4 5 6 7 8 8 7 7 7 6 5 4 4 4 4 4 5 5 6 7 7 7 8 8 7
9 8 8 8 9 9 8 8 7 8 7 4 3 3 3 3 4 4 4 4 4 5 6 7 7 7 6 6 6 6 5 5 5 5 4 5 6 6 6 6 6 6 7 7
8 8 9 9 9 10 9 8 7 7 6 4 3 4 4 5 5 5 5 4 4 4 6 6 6 6 5 6 6 6 6 5 5 5 5 5 4 4 5 5 5 6 6 6
7 7 7 7 7 7 7 5 4 3 3 3 4 5 6 6 5 4 4 2 2 3 4 5 5 5 5 5 5 5 5 5 5 5 5 5 5 5 6 5 5 6 6 7
8 8 7 6 5 4 3 3 3 3 4 5 5 6 7 8 6 3 2 2 2 2 3 3 4 5 5 5 6 6 5 5 5 5 5 6 6 5 6 7 7 7 7 8
5 4 3 2 1 0 0 0 1 2 5 6 7 8 7 5 3 1 1 1 2 3 3 4 4 4 5 5 5 5 6 6 6 5 7 7 7 8 8 8 8 9 9 10
1 2 3 4 5 6 6 7 7 7 7 7 7 7 7 4 2 2 2 2 4 4 5 5 4 5 5 6 7 6 6 6 6 7 8 8 8 9 9 10 11 12 12 12
4 4 4 5 5 5 6 7 10 10 9 9 8 7 5 4 3 4 4 5 6 7 7 8 7 6 7 9 10 9 8 9 9 9 9 10 10 10 9 9 10 12 12 13

GFSNGP_850_spd_090.txt.gz
Wind_Speed
4 2 2 2 5 8 8 10 8 8 12 15 17 8 2 12 14 23 29 31 30 32 31 27 26 19 13 10 13 13 9 9 10 10 13 14 17 20 19 18 21 23 27 29
1 3 4 3 10 6 9 11 11 14 17 6 16 11 8 9 13 18 18 21 27 30 31 29 28 22 19 16 13 11 15 14 14 14 11 13 16 19 20 20 20 22 25 29
2 1 4 4 3 5 7 5 4 6 4 2 12 9 9 19 17 15 18 20 25 28 29 31 29 21 18 15 16 10 11 9 10 10 13 15 18 20 22 26 23 26 27 27
1 3 2 4 7 3 5 5 8 6 4 7 9 16 26 18 21 15 15 17 20 21 22 24 18 13 15 19 17 13 13 9 6 4 6 8 11 12 15 19 21 26 28 30
1 1 5 11 2 3 3 11 6 6 1 16 16 17 16 16 16 16 15 16 17 15 15 13 10 13 11 15 13 13 14 12 11 9 6 3 3 9 12 14 16 18 22 27
0 1 2 5 2 8 3 8 11 12 9 14 15 2 2 9 12 15 15 14 15 14 13 9 12 10 11 11 11 14 13 13 12 10 9 7 5 4 4 4 5 8 13 19
3 4 5 5 12 11 3 4 11 15 12 10 6 10 12 11 14 11 11 11 11 10 10 11 9 9 11 11 12 12 11 11 10 10 10 10 9 7 6 6 5 5 5 8
2 3 7 14 4 3 3 11 13 16 19 24 22 20 17 13 14 12 12 12 11 11 11 10 9 9 10 11 12 10 10 11 13 13 11 8 6 6 5 5 5 5 5 6
4 3 7 11 13 14 12 15 16 19 16 19 17 15 14 12 10 12 12 12 11 11 10 11 11 10 10 10 10 10 9 10 12 16 16 12 10 9 7 8 8 8 9 10
2 8 12 16 14 14 14 15 15 16 14 14 15 12 11 11 10 10 11 12 11 10 11 12 12 11 10 8 8 8 8 8 8 9 12 12 12 12 12 13 13 13 13 14
2 4 7 18 17 11 13 14 16 15 13 12 9 10 8 10 10 10 11 11 11 12 13 14 14 13 11 9 8 6 5 6 7 8 11 13 16 19 19 19 18 18 20 19
2 9 4 8 12 11 15 17 14 11 11 10 8 8 7 9 8 9 11 11 11 12 12 12 13 13 13 12 9 6 7 9 9 9 12 13 15 17 18 19 20 21 21 21
2 5 7 6 11 13 16 16 14 13 11 8 8 7 7 8 8 9 11 11 12 12 12 12 14 15 17 15 12 11 11 11 11 11 10 11 12 13 15 16 15 17 17 17
9 6 1 11 8 10 11 11 11 10 9 8 7 5 6 9 9 11 12 12 11 10 11 12 12 15 16 15 13 12 12 12 11 10 10 11 11 12 11 11 12 15 15 14
10 9 5 4 5 8 9 8 8 9 8 7 7 7 8 9 9 11 11 10 9 9 10 10 11 13 13 12 10 10 10 10 9 10 10 10 9 9 10 10 11 13 12 13
5 5 4 5 6 8 7 6 6 7 5 6 7 8 10 10 11 10 9 8 5 9 10 10 10 11 10 9 8 6 7 8 6 6 7 6 6 7 8 8 8 9 9 13
3 3 7 4 6 7 9 6 4 5 6 7 9 10 10 10 9 8 8 8 8 8 8 8 9 9 7 7 6 6 6 5 5 4 4 4 5 6 7 7 8 8 9 9
5 4 3 3 4 6 5 4 5 5 5 6 7 7 6 6 6 6 6 6 5 6 6 7 7 6 5 4 5 4 3 3 2 2 3 3 4 5 6 7 8 8 8 8
3 4 3 3 3 4 3 3 4 5 6 5 5 5 5 5 4 4 4 2 2 3 5 6 6 6 5 5 5 4 4 3 3 3 3 4 4 4 5 6 7 8 8 8
2 2 2 0 1 1 3 6 6 7 8 6 6 6 5 5 6 6 6 6 6 7 9 9 8 7 7 7 6 5 4 3 3 3 4 4 4 5 6 7 7 7 7 7
6 6 7 6 7 7 7 7 5 5 6 6 5 5 5 6 6 6 5 5 5 6 7 8 8 7 7 6 6 6 5 5 5 5 5 5 5 6 6 6 6 6 6 7
9 8 9 8 8 9 8 7 6 6 6 5 5 5 6 7 7 7 7 6 6 6 6 7 7 6 6 6 6 6 6 5 5 5 5 5 5 5 5 6 6 6 6 7
8 8 8 7 6 6 6 5 4 4 4 5 6 7 8 9 9 7 6 5 5 5 6 6 6 5 5 5 5 6 6 6 5 5 6 6 6 6 7 7 7 7 7 8
8 8 7 6 5 4 4 4 3 4 5 7 8 9 10 9 8 6 5 5 5 5 5 6 6 5 6 6 6 6 6 6 6 5 5 6 7 7 8 9 9 9 9 10
6 6 5 4 4 4 4 4 4 5 6 7 9 10 11 9 6 4 5 4 4 5 6 6 6 6 6 7 7 7 7 7 7 8 8 8 8 9 10 10 10 11 11 11
3 2 2 3 4 5 7 9 10 10 10 9 9 10 10 8 5 4 4 4 5 6 7 7 7 6 6 6 7 7 6 7 8 9 9 9 9 10 11 11 12 12 12 12
1 2 3 4 5 5 7 8 9 12 12 11 10 11 8 7 6 5 5 5 6 7 7 7 6 7 7 8 10 9 8 8 10 11 11 10 11 11 11 11 12 13 13 13

GFSNGP_850_spd_093.txt.gz
Wind_Speed
8 6 3 2 4 3 5 6 5 8 16 18 16 13 16 9 17 21 20 15 30 29 28 33 22 18 19 20 19 13 13 11 8 8 8 10 13 14 14 13 16 18 21 22
3 5 4 1 6 4 7 8 11 14 14 8 11 19 9 14 19 17 20 24 29 24 37 31 29 26 22 21 21 18 14 13 13 11 11 14 16 16 15 16 20 16 19 21
2 2 4 4 2 3 2 3 3 6 6 4 12 16 20 14 18 18 18 22 24 30 31 31 30 27 27 25 20 16 16 11 12 11 10 12 13 14 14 17 18 19 22 24
2 1 1 1 6 2 2 4 8 8 7 4 12 17 17 18 19 19 19 19 23 26 27 26 24 23 25 23 22 18 13 12 9 8 7 8 9 10 12 13 16 19 20 20
2 1 5 2 6 6 6 9 10 9 8 11 17 20 15 14 16 15 15 15 18 19 19 18 18 18 18 18 20 15 12 10 9 9 9 5 5 6 8 8 9 11 12 14
2 2 1 4 9 13 4 8 14 13 11 10 13 3 3 9 11 12 12 14 14 15 14 12 14 13 11 13 16 14 13 13 9 11 10 6 4 3 2 3 4 5 7 9
2 1 5 6 16 13 2 5 13 11 13 10 5 9 16 11 12 12 12 13 13 13 12 12 11 10 12 13 12 11 10 9 9 11 10 7 6 4 3 2 2 2 1 2
2 3 3 16 6 4 2 12 10 11 12 20 20 18 17 15 12 11 12 13 13 13 12 12 12 10 12 13 11 9 8 9 11 12 11 8 6 5 4 4 5 5 5 5
3 3 9 14 10 12 14 12 14 14 12 16 18 15 13 13 13 11 13 12 13 13 12 13 13 13 13 13 9 9 8 10 13 14 12 10 9 10 9 9 9 10 10 10
2 5 8 14 14 16 17 15 15 14 13 12 13 10 11 10 10 10 12 14 13 13 14 16 15 14 13 11 11 9 10 12 14 16 16 15 15 15 14 15 15 15 15 17
1 4 4 15 14 11 13 14 14 13 12 12 9 9 9 9 8 10 11 12 13 15 16 17 16 15 14 13 11 10 10 12 13 15 16 18 20 20 21 21 19 18 19 18
3 7 5 5 9 11 13 14 13 10 11 12 10 9 8 10 10 10 11 12 13 15 15 16 15 15 15 15 13 11 10 12 13 13 15 16 18 19 20 18 17 18 18 16
4 5 10 9 9 10 12 13 11 10 9 10 9 8 8 10 10 10 12 13 14 15 14 14 14 15 17 16 15 13 12 12 12 12 13 14 14 15 14 14 13 13 13 13
9 6 8 8 6 7 8 9 9 9 9 10 10 9 11 12 11 12 14 14 13 13 12 13 13 14 16 15 13 13 12 12 11 12 11 11 11 11 10 9 9 9 10 11
8 8 6 4 4 6 6 6 6 8 9 9 9 9 9 9 10 12 12 11 11 11 12 12 12 13 13 13 12 11 10 10 10 10 9 9 8 8 7 7 7 7 8 7
3 5 5 4 4 5 5 5 5 6 7 7 8 9 10 10 11 11 10 9 7 10 11 11 10 11 11 10 10 9 8 8 7 6 6 5 4 4 4 5 4 4 4 5
3 2 5 5 5 5 7 6 6 7 9 9 10 10 9 9 9 9 9 9 9 9 9 9 9 9 8 7 7 6 6 5 4 4 3 2 2 2 3 2 2 2 2 2
4 4 4 2 3 5 6 7 7 7 8 8 8 7 6 5 6 6 6 7 7 8 8 8 8 7 6 6 5 4 3 3 3 2 1 1 1 1 2 2 2 2 3 4
3 3 4 4 4 4 6 8 8 8 8 7 7 6 5 4 5 5 6 6 6 6 7 7 7 6 6 5 3 3 3 2 2 2 2 1 2 2 2 3 3 4 5 5
4 5 7 9 10 11 12 13 10 9 10 8 7 6 4 4 5 5 5 4 4 5 5 6 5 5 4 4 3 3 2 1 0 0 1 1 2 3 3 3 4 4 4 3
9 10 11 10 11 11 11 11 9 9 9 9 8 6 5 6 6 5 4 4 4 4 5 5 5 4 3 3 3 2 2 2 1 1 2 2 2 2 2 2 2 2 2 3
10 10 10 9 8 8 9 9 8 7 7 6 6 7 7 7 6 6 4 3 4 4 4 4 4 3 2 3 3 2 2 2 1 2 2 2 2 2 2 2 3 3 3 3
9 9 9 8 7 6 6 5 4 4 4 4 5 6 7 7 7 6 5 4 4 4 4 4 4 3 2 2 2 1 1 1 1 2 2 2 3 3 3 3 4 4 5 6
7 7 7 6 5 4 3 2 2 2 4 5 6 8 9 9 8 5 4 3 3 3 3 4 3 4 3 3 3 2 2 2 2 2 3 4 4 5 5 6 6 6 7 8
7 5 4 3 2 2 2 2 3 4 5 6 7 8 10 10 8 5 4 4 4 4 4 4 3 4 4 4 4 4 3 3 3 3 4 5 5 7 8 8 9 9 9 9
4 3 1 1 3 3 4 6 7 9 9 10 9 9 10 8 6 5 4 4 5 5 5 4 4 4 4 4 5 6 5 5 6 6 6 7 8 9 10 10 10 10 10 10
2 1 1 2 4 5 7 8 9 8 8 9 9 9 9 6 5 3 3 3 4 4 5 5 5 5 6 6 7 7 7 7 8 8 8 8 9 10 11 11 12 12 12 13

GFSNGP_850_spd_096.txt.gz
Wind_Speed
14 12 10 9 6 4 4 3 4 6 12 13 15 17 9 14 16 22 26 32 34 30 28 24 19 20 20 19 20 21 22 20 18 15 15 15 15 13 12 15 16 17 18 18
10 8 6 4 2 2 3 3 5 6 6 11 10 17 20 18 17 21 20 23 30 30 29 28 23 22 24 23 19 20 23 23 22 20 17 17 19 19 19 17 16 15 15 15
4 3 2 5 7 3 4 5 6 7 11 9 8 13 14 12 15 17 17 20 24 24 28 23 25 27 30 26 19 19 19 18 18 19 18 15 13 14 15 17 18 20 21 20
2 2 3 6 5 8 5 8 11 11 12 10 12 16 16 14 15 15 14 16 20 22 22 28 29 29 26 24 25 22 22 20 15 13 14 13 12 12 11 13 14 15 16 17
1 2 6 7 9 8 6 6 14 14 15 16 16 16 17 15 13 13 14 15 15 16 18 21 23 17 23 23 22 21 23 22 17 14 10 9 7 8 8 9 10 11 12 14
1 2 2 6 11 11 7 3 14 15 16 8 11 2 4 10 11 13 13 14 15 15 12 11 14 18 18 18 17 17 19 18 15 12 9 6 6 1 2 4 4 5 6 6
3 3 5 11 17 19 4 6 12 14 15 14 5 7 11 8 12 14 13 13 13 14 16 14 10 8 7 10 12 15 12 13 11 9 7 4 4 6 7 7 7 6 4 2
1 1 2 22 8 6 7 13 11 12 11 14 15 13 12 11 12 12 12 13 13 13 13 13 11 10 11 12 12 11 12 11 12 11 10 8 7 8 8 8 7 7 6 6
5 3 6 13 11 8 10 12 13 11 9 10 11 11 10 11 11 12 14 14 13 13 12 13 12 12 12 12 10 10 11 13 14 12 11 12 10 10 11 11 10 10 10 10
3 5 8 12 11 13 12 12 10 10 9 9 10 8 9 9 10 12 13 14 12 13 13 14 14 12 12 11 10 10 11 12 14 14 15 15 15 13 14 14 14 13 13 14
5 8 5 13 13 10 11 10 10 10 10 8 7 8 7 9 10 11 12 12 12 12 13 14 13 13 12 12 10 11 11 12 14 15 17 18 18 19 18 18 15 15 15 13
3 3 6 6 7 8 10 10 9 7 8 9 7 8 7 8 8 9 10 10 11 12 13 14 14 14 14 13 11 9 10 11 12 12 11 13 16 18 18 16 16 16 15 15
3 4 8 7 6 7 9 8 8 7 6 6 7 8 7 8 9 10 10 10 11 11 12 12 13 14 15 15 13 11 11 11 11 10 10 11 12 10 11 15 14 13 13 13
5 8 5 1 3 4 5 6 7 8 8 7 7 8 7 8 8 9 10 10 9 9 10 10 11 11 13 13 12 12 13 12 11 11 11 12 12 11 10 9 9 11 12 11
4 5 6 5 4 4 3 3 5 6 6 8 7 7 6 7 7 8 8 8 8 8 8 8 8 9 10 10 10 9 9 8 9 9 9 9 8 8 8 7 7 7 7 7
3 4 4 3 3 4 3 3 4 5 6 7 8 8 8 8 8 8 7 6 5 6 7 7 7 7 7 7 7 6 6 6 6 6 6 5 5 5 5 4 4 4 4 4
6 2 1 2 2 4 4 5 6 7 7 7 8 9 8 7 7 7 6 6 6 6 5 5 5 5 5 4 4 3 3 3 3 3 3 4 4 4 4 3 4 4 5 5
5 5 3 3 3 3 4 5 6 6 6 6 6 6 6 5 4 3 3 4 4 4 4 4 4 4 4 3 2 3 3 3 3 3 2 2 2 2 2 3 3 4 5 5
4 4 4 5 4 5 6 6 6 7 7 6 5 4 4 4 4 4 4 4 3 4 5 5 5 5 4 3 2 2 3 2 2 2 2 2 2 2 3 3 3 3 3 3
6 6 7 7 8 8 9 9 8 8 8 7 6 5 4 4 4 4 5 5 5 6 6 6 6 6 5 4 2 3 2 3 2 2 2 3 4 4 3 3 3 4 4 4
9 10 10 10 11 11 11 10 8 8 8 6 5 4 4 4 4 4 5 4 6 5 5 5 5 4 5 3 4 3 3 3 3 3 3 3 3 2 2 2 2 2 2 2
10 11 11 11 10 11 10 9 7 6 5 5 5 6 6 6 6 6 4 3 5 5 5 5 6 5 4 2 3 2 2 2 2 2 2 2 2 2 2 2 2 2 3 3
11 11 10 9 8 6 5 4 3 4 5 6 7 9 7 6 6 5 4 7 4 6 5 5 6 5 3 3 3 2 2 2 1 1 1 1 2 2 2 2 3 4 4 5
8 7 6 5 4 4 3 2 2 3 4 5 6 8 8 6 7 6 6 6 6 5 5 6 6 5 3 4 3 3 3 3 3 3 4 4 4 4 4 5 5 6 7 8
5 4 3 2 2 2 3 4 4 5 6 5 7 9 9 9 5 4 3 4 5 3 4 5 5 5 4 4 4 3 3 3 4 3 4 4 5 6 6 7 7 7 8 9
4 2 2 3 2 3 4 5 6 8 8 8 8 7 9 10 7 4 4 4 4 4 3 5 5 5 5 5 5 6 6 6 6 6 6 7 7 8 8 9 9 9 9 10
3 3 2 2 3 3 5 6 7 8 8 9 9 10 7 6 5 4 4 4 4 6 5 5 6 6 6 7 7 7 8 7 9 9 9 8 9 9 10 11 11 12 12 13

GFSNGP_850_spd_099.txt.gz
Wind_Speed
1 15 11 9 9 7 5 2 3 9 8 14 13 11 13 14 15 18 22 24 25 32 38 30 27 18 13 14 18 25 26 26 23 19 18 17 21 18 19 21 17 16 17 16
13 13 13 10 6 3 4 2 2 3 12 14 17 15 15 15 14 16 17 21 27 30 33 38 31 27 19 17 17 19 22 26 23 22 21 25 21 23 20 21 22 19 19 19
9 6 13 10 8 5 9 12 11 10 14 11 12 13 15 13 13 14 14 18 24 27 29 32 32 30 28 23 17 19 19 19 20 22 23 24 23 22 23 22 21 20 20 20
4 5 6 10 10 7 14 15 16 14 15 11 13 17 17 15 12 12 13 15 19 22 26 26 27 28 29 28 26 23 24 19 15 14 18 23 24 24 24 22 23 24 23 22
1 7 13 7 10 9 7 12 16 14 16 11 14 14 15 13 12 11 13 13 15 17 17 19 22 23 23 22 24 29 29 22 20 17 13 14 19 16 19 18 16 16 16 17
0 4 4 7 16 16 11 4 16 17 13 11 8 3 3 9 9 11 15 13 14 14 12 10 13 15 18 18 22 24 23 19 20 16 18 14 17 18 16 15 12 12 8 6
2 2 6 11 22 23 5 5 15 15 14 15 5 5 4 5 10 12 12 13 12 14 15 14 12 10 10 13 16 18 16 16 11 16 11 17 14 16 13 12 7 10 9 7
3 2 4 24 7 6 7 12 11 12 11 14 12 9 9 9 11 13 14 13 13 14 15 15 12 12 12 14 14 12 11 11 12 12 10 11 12 10 10 8 7 7 8 7
6 3 4 10 10 8 8 9 12 11 10 9 9 9 8 9 12 14 12 12 13 14 15 17 16 14 14 14 11 11 10 11 15 16 13 14 11 13 12 10 11 13 14 11
4 5 8 9 10 11 10 10 10 10 9 8 8 8 10 11 11 11 12 13 13 13 15 16 15 15 14 14 13 10 12 16 17 15 15 15 16 14 15 15 13 14 13 13
4 8 9 10 10 9 9 9 9 9 9 8 7 8 8 8 9 10 10 12 13 13 15 16 15 15 14 13 11 11 13 13 14 16 19 20 20 18 19 17 15 16 14 13
3 3 6 6 6 7 8 9 9 7 7 9 8 7 7 8 9 9 10 11 12 13 13 14 14 15 15 12 11 9 11 11 12 11 12 14 17 18 20 17 15 15 15 15
3 6 8 7 4 5 6 7 7 7 7 6 8 7 7 7 8 9 10 11 12 12 12 12 13 14 15 15 12 11 11 10 9 9 10 9 9 8 12 15 14 12 13 13
4 6 4 2 3 3 4 4 6 7 7 7 6 6 6 7 8 9 10 10 9 10 10 10 10 11 12 11 11 12 11 10 9 9 9 9 9 9 9 8 9 12 11 10
4 4 5 4 2 3 3 3 3 4 5 6 6 6 6 7 7 8 7 8 9 9 10 10 9 9 9 11 10 8 7 9 9 8 8 9 9 9 9 8 8 8 7 7
2 3 3 3 2 3 3 4 2 3 4 4 4 5 5 6 6 7 7 7 6 8 9 8 8 8 8 7 10 8 7 7 7 6 6 7 7 8 8 8 7 6 6 6
5 2 2 0 2 3 4 4 4 3 4 4 4 3 4 4 5 5 5 6 7 8 8 8 8 8 7 6 8 7 7 8 8 7 7 7 7 7 6 6 6 5 5 5
5 4 3 1 2 2 2 4 4 3 3 2 2 2 2 0 3 4 5 6 6 7 8 8 7 7 7 6 6 7 6 6 6 5 5 5 6 5 5 5 5 5 5 6
4 4 4 4 4 4 4 4 4 3 3 3 3 3 3 3 3 4 4 5 7 7 9 7 7 7 7 6 5 6 5 4 4 4 5 6 5 5 5 5 5 5 5 5
7 7 6 7 7 6 6 5 5 4 4 3 2 2 3 3 4 5 6 7 7 5 6 6 6 8 7 6 6 5 4 5 4 4 3 4 4 5 7 5 5 4 4 4
7 7 8 7 8 7 7 6 5 4 3 2 1 2 3 5 5 5 6 3 14 8 8 10 7 2 6 3 6 4 4 4 3 3 2 3 4 3 3 3 3 2 2 2
7 8 8 8 7 6 6 5 4 2 2 1 2 4 6 8 10 9 9 3 7 7 4 5 6 5 4 4 3 3 3 2 2 2 2 2 1 1 1 1 1 1 1 2
6 7 6 6 5 4 3 2 1 1 2 3 5 5 4 5 5 4 4 9 3 7 4 9 8 6 3 4 3 3 2 2 2 1 1 1 1 1 1 2 2 2 3 3
6 5 4 4 3 3 2 4 2 5 5 8 8 7 5 5 6 5 7 9 8 6 7 9 7 5 2 4 3 3 2 2 2 2 3 3 2 3 3 4 3 3 5 6
5 5 3 2 0 1 4 4 4 5 7 6 7 8 8 7 6 7 6 8 10 4 6 15 10 6 4 3 4 3 3 3 5 2 3 4 4 4 4 5 6 5 7 7
3 1 2 3 3 4 5 7 8 9 10 11 11 11 10 9 9 8 8 9 7 8 5 8 8 8 5 6 7 6 6 5 6 6 8 6 6 7 7 7 7 7 7 8
2 2 3 4 6 5 6 7 8 9 10 11 11 11 10 11 9 10 9 7 7 8 9 8 9 10 8 8 7 7 7 7 10 9 8 8 8 8 8 9 9 9 10 11

GFSNGP_850_spd_102.txt.gz
Wind_Speed
8 13 10 7 12 5 10 8 3 9 12 14 13 12 15 13 15 17 19 21 26 30 33 37 41 31 24 16 9 9 17 24 23 22 23 21 21 18 19 18 17 17 17 14
5 19 16 18 8 10 6 14 14 19 14 16 18 15 17 17 16 16 16 20 26 29 31 34 38 40 33 27 18 12 17 21 24 23 22 23 26 19 22 24 25 22 24 27
9 14 9 13 15 16 20 21 19 14 9 12 12 13 17 15 13 13 15 17 24 26 27 29 30 31 34 33 27 23 18 16 18 20 22 21 24 23 25 25 23 23 27 24
3 4 5 7 19 16 21 20 20 17 16 14 15 16 15 14 12 14 16 19 23 22 23 25 24 25 26 25 29 31 31 26 19 14 16 16 17 20 23 24 25 26 22 23
3 4 12 9 16 14 7 14 20 16 13 8 14 13 15 15 14 15 18 15 16 17 18 19 20 21 22 23 23 27 31 31 27 24 21 18 14 11 14 19 23 25 22 21
2 4 0 7 20 24 14 6 17 16 13 9 3 1 4 13 14 14 15 15 15 15 15 16 19 18 20 22 23 25 26 25 22 22 21 23 23 20 14 17 16 15 14 12
5 4 5 15 23 20 4 5 14 16 16 19 7 7 5 9 12 14 16 15 14 16 18 18 17 17 17 18 23 20 19 18 17 16 19 17 15 14 12 13 13 13 17 16
6 6 4 29 8 7 3 9 11 13 13 14 12 10 10 12 13 18 16 15 16 17 19 19 18 17 20 20 18 18 16 16 15 16 14 14 12 10 7 11 13 8 12 9
5 3 4 12 11 9 8 8 11 11 10 9 10 11 13 16 18 16 14 14 15 16 16 18 19 19 22 22 17 17 18 17 17 15 15 13 11 11 12 12 15 12 12 13
5 6 8 9 10 10 9 9 9 9 10 9 10 10 13 14 13 12 13 14 13 15 17 17 16 13 15 17 18 17 18 21 21 19 16 14 14 15 14 16 13 14 17 17
5 9 11 9 8 8 9 9 9 9 10 10 9 10 10 10 11 11 11 13 14 14 14 15 15 14 11 12 13 12 13 16 19 20 22 19 18 19 18 16 12 13 16 16
2 3 4 5 4 7 10 10 10 9 9 11 11 10 9 11 10 10 12 12 12 13 13 13 14 16 15 10 9 10 13 13 14 14 14 16 18 20 19 15 13 14 16 15
4 6 8 6 4 5 7 8 9 10 10 9 11 11 10 9 10 8 10 10 11 9 9 11 13 13 14 14 13 10 11 10 9 9 8 11 12 12 13 15 14 13 13 13
5 6 5 3 4 4 5 5 6 9 10 10 10 9 6 8 7 9 11 11 9 8 8 8 9 10 12 13 10 10 10 10 9 9 10 10 9 9 9 8 11 13 12 11
4 5 6 4 4 5 5 5 4 7 8 9 9 8 7 7 7 6 5 10 6 8 8 8 8 8 8 11 12 11 7 9 10 10 10 10 9 9 8 6 4 4 5 7
3 4 5 5 5 6 7 7 6 7 6 4 4 6 5 4 5 7 8 6 6 9 10 10 10 9 6 6 9 8 9 8 8 7 7 7 6 6 5 3 3 3 4 7
3 3 2 2 3 5 6 5 5 4 3 2 0 2 3 5 7 7 8 9 10 11 10 9 8 8 6 4 8 8 7 7 6 5 5 5 5 5 5 4 8 7 7 6
6 7 6 6 5 5 6 6 5 2 0 2 4 4 3 3 5 7 8 9 11 13 12 10 8 9 8 5 6 6 3 5 6 5 5 4 5 3 3 3 4 5 7 6
7 7 7 8 7 7 5 2 0 2 4 4 4 5 6 6 7 8 8 7 6 7 11 9 9 11 8 5 6 4 4 2 3 1 6 3 1 3 6 3 2 2 1 2
9 8 6 6 6 2 3 4 4 5 5 5 6 7 7 8 8 8 8 9 9 15 13 10 7 5 9 4 5 4 3 2 5 8 2 1 3 6 6 3 2 1 2 3
5 6 7 7 7 6 6 5 4 4 5 5 5 6 8 9 11 10 7 3 14 15 9 11 14 7 6 2 5 5 3 2 2 2 1 1 2 1 1 1 1 1 1 1
6 7 7 6 5 4 3 2 2 2 3 3 5 5 6 10 12 13 12 7 10 16 5 11 15 11 2 2 3 4 3 3 3 3 3 3 3 2 3 3 2 2 2 2
5 5 4 4 3 2 3 4 4 4 6 6 7 7 6 7 7 8 6 12 11 16 8 14 16 11 2 3 3 3 3 3 3 3 4 3 4 5 5 7 6 3 6 8
4 3 2 2 3 6 6 8 10 10 11 12 9 12 14 5 5 5 10 15 17 18 9 11 16 10 2 3 6 4 2 4 4 4 7 4 4 4 5 7 5 5 7 7
3 1 1 3 3 5 3 5 5 8 11 9 10 15 13 7 13 13 16 15 14 14 9 12 15 11 4 5 8 7 4 5 10 9 6 5 7 7 6 7 9 7 9 10
2 2 2 3 5 4 5 6 8 7 9 9 8 11 11 12 13 15 10 12 14 11 10 9 12 16 13 3 11 8 8 7 7 8 9 8 5 8 8 9 10 7 6 7
2 3 3 4 5 4 6 10 10 8 11 13 14 11 10 10 12 14 13 10 9 11 12 12 12 13 14 15 13 7 9 9 10 12 12 12 11 9 10 11 13 12 12 12

GFSNGP_850_spd_105.txt.gz
Wind_Speed
7 11 15 9 13 8 7 9 2 10 16 12 12 11 16 20 21 20 20 23 29 32 33 34 36 37 39 34 21 13 8 10 15 18 18 22 19 19 19 19 19 16 14 17
15 14 12 13 18 23 20 13 15 16 12 13 17 16 20 20 18 19 20 22 25 28 30 31 32 32 34 37 32 17 13 11 7 14 19 21 24 24 21 21 18 19 20 21
3 6 10 13 18 21 21 21 14 11 6 10 12 14 19 19 19 18 17 17 25 24 25 27 28 27 30 30 32 29 23 21 16 10 20 24 23 26 27 28 23 24 23 24
1 5 5 8 14 19 23 22 19 13 10 12 14 16 21 19 17 17 18 19 21 20 21 22 23 24 23 25 27 30 30 28 26 21 14 16 17 18 20 26 24 27 24 23
2 3 7 12 13 10 5 13 18 14 8 14 14 12 21 20 17 17 19 15 18 19 18 21 19 19 22 23 24 26 28 26 27 28 26 21 18 15 18 17 18 17 15 13
1 3 5 6 20 20 5 8 16 17 13 10 3 5 3 14 14 16 18 17 19 20 14 15 21 19 19 21 23 24 21 22 21 20 24 26 28 26 24 20 19 15 13 10
6 4 2 14 22 20 3 3 10 14 17 20 7 7 4 10 14 17 18 15 16 16 19 18 19 21 21 22 24 21 19 16 16 14 19 19 21 18 21 18 18 18 16 15
4 4 3 28 8 6 2 9 13 14 13 14 12 11 15 17 18 17 14 14 13 15 16 16 16 20 24 25 21 20 16 14 14 13 14 14 12 14 15 14 14 14 13 15
5 4 5 12 13 13 11 10 10 9 10 13 14 15 17 17 17 14 12 13 13 15 14 13 14 17 20 20 19 19 20 19 17 14 12 11 11 12 11 13 12 14 15 17
2 5 9 11 11 12 12 12 11 11 10 10 10 9 13 12 10 14 14 12 11 12 15 17 13 14 16 15 14 15 18 21 21 18 16 15 15 15 14 16 14 15 17 18
4 9 11 9 9 9 12 11 9 10 12 11 10 10 10 12 11 9 9 10 11 13 14 16 16 12 11 11 11 12 14 15 17 19 20 18 18 20 18 18 15 16 17 17
2 5 6 4 5 11 12 11 9 11 9 10 11 11 4 5 5 5 7 8 10 12 13 14 14 15 15 12 10 10 10 11 12 13 14 17 18 18 19 16 15 15 15 14
5 6 9 8 8 7 6 8 9 7 7 4 4 4 3 3 4 5 7 9 10 10 10 11 11 12 12 14 13 11 11 9 7 7 10 12 12 13 15 16 14 13 13 14
9 11 8 6 7 6 5 6 10 9 8 9 8 6 4 3 3 6 9 9 11 11 11 12 10 10 11 13 13 10 12 13 10 10 9 7 7 8 8 9 11 11 11 11
8 8 10 9 10 8 5 7 9 6 4 4 4 4 5 6 6 6 3 6 10 10 10 9 9 7 8 9 11 12 8 9 9 9 7 7 6 4 4 3 3 3 4 3
5 6 5 5 5 1 1 1 1 2 2 3 3 5 6 7 7 6 5 6 7 10 10 9 8 6 5 6 6 9 10 5 4 3 3 3 3 1 2 3 3 3 5 2
7 6 6 7 4 1 3 3 2 3 3 3 2 2 3 4 9 8 8 7 8 11 11 9 8 6 3 3 4 5 6 7 6 5 2 0 1 1 3 4 5 5 4 2
8 8 7 8 6 5 4 3 2 2 2 4 4 3 3 3 6 7 6 6 9 11 13 9 8 6 4 3 1 2 3 3 5 6 3 3 1 0 2 5 4 3 2 1
6 6 7 8 7 5 2 0 2 4 5 6 6 6 6 6 6 6 5 4 4 12 12 9 8 9 2 2 2 3 3 4 3 4 2 1 3 2 3 2 2 3 3 2
5 4 4 5 4 3 4 6 6 6 6 6 6 7 7 8 9 7 8 11 8 14 16 14 9 11 8 2 4 4 4 4 3 2 4 3 1 2 3 3 3 2 2 3
4 6 8 7 7 7 6 6 5 5 6 6 6 6 6 6 8 7 7 9 11 13 15 16 15 14 8 5 6 5 5 5 4 4 4 2 2 3 3 4 4 4 5 5
9 8 8 7 6 5 6 5 5 5 5 6 7 7 8 8 7 8 10 10 12 17 20 18 17 16 9 8 7 6 6 6 7 6 6 6 6 5 5 5 6 6 6 7
8 6 5 5 6 6 7 8 10 5 7 9 9 8 12 11 8 7 9 12 15 19 21 15 12 13 6 6 7 6 6 5 6 7 6 7 8 8 9 8 9 10 9 9
6 5 4 6 5 4 6 8 10 8 9 10 11 10 10 9 7 9 15 18 19 18 16 13 10 13 4 4 7 8 6 7 6 8 9 5 5 6 8 8 6 9 11 8
4 6 6 4 4 8 4 7 8 12 11 12 15 14 13 11 10 13 16 18 15 14 13 9 10 12 13 8 8 9 10 9 10 10 9 10 9 9 9 10 12 12 10 11
4 2 2 4 5 4 5 7 8 11 13 13 14 15 12 11 13 13 16 17 14 12 11 13 12 12 12 11 11 14 12 8 8 9 10 11 9 9 10 12 12 12 13 9
2 1 1 3 5 7 10 11 14 13 13 18 17 14 16 13 10 12 16 16 14 13 13 13 12 13 14 15 13 14 10 10 11 12 14 14 11 13 16 15 16 16 16 16

GFSNGP_850_spd_108.txt.gz
Wind_Speed
3 8 7 17 8 9 5 7 8 10 13 12 12 14 16 18 21 24 27 27 25 30 33 32 33 33 34 33 30 27 23 10 2 4 11 16 22 34 27 23 22 15 14 15
15 16 21 21 21 22 16 14 13 13 11 10 15 17 17 16 17 20 19 22 23 25 27 29 29 31 31 32 31 29 28 24 14 1 5 9 24 31 34 30 25 21 19 18
2 6 9 14 15 19 20 21 8 9 7 9 12 14 16 17 20 19 18 22 25 23 25 25 27 27 28 29 28 29 31 29 25 16 6 5 7 15 30 25 24 25 22 22
2 5 6 3 10 16 22 18 16 12 10 13 15 16 16 17 18 17 17 21 20 18 20 24 23 24 24 23 26 27 29 32 31 28 20 14 6 9 16 24 27 25 28 26
2 4 7 5 9 6 6 13 15 12 9 11 13 10 18 17 16 15 14 19 20 18 20 21 22 22 21 23 24 24 28 27 28 29 29 24 22 19 17 11 15 15 19 20
1 4 4 4 18 14 6 7 11 12 10 8 9 4 3 12 16 17 13 19 21 18 16 18 22 20 23 26 24 25 23 22 21 22 21 24 23 25 25 21 19 15 16 14
5 4 3 14 21 7 2 2 10 10 11 16 6 6 7 14 14 14 12 16 18 16 17 19 18 21 26 28 29 23 18 16 15 15 16 17 16 16 16 19 17 20 17 22
3 4 3 26 6 5 4 8 8 10 10 13 15 15 13 14 14 12 14 16 18 17 15 17 18 19 24 27 24 22 18 15 14 13 13 13 11 11 14 14 15 17 19 20
5 3 4 12 14 13 10 11 10 10 10 13 16 16 15 13 12 13 14 16 17 17 15 14 16 18 19 17 16 18 20 19 17 15 14 12 11 12 13 12 12 15 18 19
3 4 8 10 11 12 11 12 11 11 9 9 12 12 11 9 10 11 13 16 15 15 17 16 14 13 12 12 13 13 15 19 20 18 17 15 14 15 15 14 14 15 16 18
4 7 9 8 7 10 11 9 8 9 12 11 8 8 6 8 9 10 11 13 14 15 14 15 14 11 10 11 12 12 13 13 15 17 18 17 16 16 17 18 16 16 16 15
2 6 5 5 8 9 8 8 9 6 7 7 4 5 5 6 7 8 10 11 12 13 11 11 11 11 11 11 11 10 10 11 12 13 13 15 15 13 12 12 11 13 13 11
5 7 11 11 9 7 5 5 5 6 6 4 5 5 5 6 6 7 8 11 12 12 10 7 8 10 12 11 11 12 9 9 9 8 10 11 11 10 11 9 7 9 12 10
13 14 9 7 11 8 10 7 5 7 7 8 8 7 6 5 3 4 7 10 12 11 8 8 6 7 8 10 9 8 9 9 8 8 7 7 7 8 7 6 6 5 4 4
9 9 14 14 9 10 8 4 3 6 5 5 6 6 6 6 6 5 5 8 9 9 8 7 6 4 5 6 8 8 6 7 7 7 5 5 5 5 6 6 5 3 1 1
6 3 6 4 4 2 2 3 3 2 4 3 3 4 5 6 6 4 4 5 6 10 10 9 8 6 4 4 6 7 7 7 8 7 6 5 5 6 6 7 5 3 3 3
10 9 8 6 3 1 3 3 3 2 2 3 3 4 4 6 7 5 4 7 7 10 10 9 8 7 4 5 6 6 8 8 7 8 7 7 6 6 6 6 5 2 2 4
7 6 6 4 2 1 3 3 2 2 2 2 2 2 3 4 5 6 7 7 7 10 11 10 9 8 8 7 8 7 7 9 10 8 7 5 6 7 8 6 4 4 4 5
3 3 4 3 3 1 2 2 2 3 3 3 3 2 2 3 4 4 5 8 8 10 11 11 11 10 8 9 9 9 8 8 8 9 8 6 6 7 6 6 6 5 5 6
4 4 5 5 4 2 3 4 4 4 3 3 2 3 3 4 5 6 7 7 7 11 15 17 14 14 13 9 10 10 9 9 8 6 6 6 8 5 5 6 6 7 7 7
5 6 7 7 6 6 6 5 3 3 3 5 6 5 6 7 7 8 10 11 11 12 16 20 20 17 15 11 10 10 9 9 9 8 7 6 5 6 7 8 8 9 9 9
9 9 9 8 7 6 5 5 3 3 4 5 6 5 6 7 9 10 11 12 14 17 19 21 18 15 13 9 9 9 9 10 8 8 8 7 7 6 8 8 9 9 10 10
10 9 8 7 7 7 6 7 6 4 3 5 5 5 7 9 8 9 10 15 17 18 17 17 13 13 11 7 7 9 9 9 8 8 9 9 9 9 9 11 10 10 11 11
9 8 7 7 5 3 1 2 3 4 6 7 9 12 13 14 13 10 11 14 15 16 16 14 10 9 9 9 10 10 9 9 10 10 10 10 10 8 8 8 9 8 9 10
9 8 8 4 2 2 4 3 6 9 10 13 10 9 14 15 15 13 13 12 14 15 12 11 11 10 10 12 10 11 12 13 11 11 11 8 9 12 12 10 10 10 9 11
8 6 4 1 2 3 7 8 8 11 15 14 14 17 16 14 13 13 13 12 14 13 13 13 12 12 12 13 14 12 13 14 13 12 9 10 12 12 12 12 13 12 12 13
5 3 3 5 6 8 11 12 13 15 16 16 16 11 12 15 9 8 12 14 14 14 15 14 14 14 13 14 13 13 13 13 12 12 13 14 14 16 14 14 17 17 16 17

GFSNGP_850_spd_111.txt.gz
Wind_Speed
11 14 15 20 17 5 10 11 7 9 11 9 10 12 14 18 22 22 21 23 28 32 32 33 32 33 33 33 35 32 24 19 16 14 9 8 13 17 22 28 29 32 31 25
4 16 20 18 22 22 17 11 10 12 9 8 13 14 18 18 17 18 20 20 21 26 28 31 32 32 30 31 33 34 34 28 23 20 17 11 8 8 20 29 29 34 25 25
2 7 5 11 16 17 14 20 7 7 5 6 10 15 18 18 20 21 23 25 26 26 26 26 29 28 29 29 29 31 34 35 31 26 23 20 15 8 11 12 23 24 29 24
2 1 5 2 11 8 18 16 14 11 9 10 13 16 18 19 17 19 23 22 21 22 22 23 22 26 22 24 26 28 30 30 31 32 30 27 23 17 13 6 4 8 16 19
2 5 5 3 7 6 6 9 14 5 5 5 5 5 18 21 18 17 20 20 19 19 19 23 22 24 24 24 24 26 28 27 27 27 28 28 30 27 24 20 15 12 8 3
3 3 2 4 15 12 5 4 12 11 9 7 7 3 3 15 11 13 18 19 17 16 17 19 21 24 27 30 28 28 25 23 21 21 22 24 24 24 23 23 21 19 17 16
4 3 4 11 13 4 2 2 7 10 10 15 6 6 8 11 11 13 17 18 17 15 19 19 19 23 27 29 33 28 23 20 19 19 20 20 18 18 19 19 18 18 18 16
2 3 2 20 4 3 4 8 8 9 10 15 12 10 10 9 10 13 16 18 18 15 16 17 18 20 23 25 24 24 23 22 22 22 20 18 16 15 15 16 17 19 18 18
4 3 5 13 15 13 11 11 9 10 9 9 11 11 7 8 11 14 17 18 17 15 14 15 17 19 21 20 19 19 21 24 24 22 22 20 17 17 16 15 16 17 17 19
2 4 8 8 11 11 12 11 10 9 8 8 9 6 6 8 11 14 16 17 16 14 16 17 18 17 17 16 17 18 19 20 22 23 22 20 18 18 17 18 17 15 15 17
4 7 8 7 9 10 12 10 9 8 8 8 3 4 5 7 9 11 13 14 13 14 15 16 16 16 17 17 16 17 17 18 19 19 20 19 17 16 16 16 15 14 14 13
1 8 5 5 8 6 8 8 8 6 6 4 4 4 5 6 8 9 11 12 12 13 11 13 14 15 15 16 17 17 16 16 16 16 17 16 15 14 13 13 10 9 10 11
3 5 11 14 9 4 6 6 7 6 6 5 6 5 4 5 6 8 9 12 14 14 13 12 12 13 14 15 15 15 15 15 15 14 14 14 14 12 12 10 8 7 7 6
15 15 9 5 8 6 3 5 4 5 6 6 6 6 6 6 6 7 10 12 12 12 11 11 11 11 12 13 14 15 14 13 14 14 13 12 12 12 12 10 8 6 4 5
4 4 9 11 10 7 3 1 2 4 5 5 5 6 6 7 7 8 9 10 11 10 10 10 11 11 11 12 13 14 15 13 13 13 13 12 12 12 13 13 11 9 7 7
8 5 8 9 7 4 2 2 2 1 2 3 4 5 6 8 8 8 8 8 9 12 13 13 13 13 12 12 11 12 13 13 13 13 13 12 12 12 13 12 10 8 8 9
12 10 8 8 5 2 1 2 2 3 3 3 3 4 5 7 8 7 7 8 10 12 15 15 14 14 13 13 13 13 13 14 14 14 13 11 11 11 12 12 12 10 10 10
7 7 6 4 3 1 2 3 3 3 3 3 4 5 6 7 7 7 8 9 10 12 15 15 15 13 14 15 14 13 13 14 14 14 13 12 10 11 11 10 10 11 12 12
3 4 5 4 3 2 2 2 3 3 4 3 4 6 6 7 8 9 11 13 13 14 15 16 16 16 16 16 15 14 14 14 14 13 12 11 11 10 10 9 9 9 10 11
4 4 4 4 4 3 3 4 4 4 4 4 5 5 6 7 9 11 12 12 12 13 16 19 21 21 19 17 15 13 13 13 12 12 11 11 11 11 10 10 10 9 9 9
3 5 6 5 5 5 5 4 3 3 4 4 4 5 6 8 9 11 12 12 13 16 18 21 22 21 18 16 13 12 12 12 12 11 10 9 8 9 9 12 12 12 11 10
6 7 7 7 6 4 3 2 2 2 3 5 6 5 7 9 11 11 11 11 15 17 19 19 21 18 16 14 11 10 12 12 12 11 10 10 10 10 9 11 11 12 12 11
9 8 7 6 5 4 3 2 3 2 3 5 7 9 11 14 15 15 15 14 15 17 18 18 17 13 13 12 11 10 12 12 11 11 11 11 9 10 10 10 11 12 11 12
9 8 8 7 5 3 0 2 4 6 9 9 12 15 17 16 16 18 19 17 15 16 16 15 14 13 12 11 12 9 10 12 12 12 13 12 12 10 10 10 9 8 9 10
9 9 8 6 1 2 4 5 9 10 11 14 17 16 19 21 21 18 16 17 15 15 16 15 14 14 14 13 13 13 13 12 13 12 12 12 9 9 12 12 12 11 10 9
9 7 5 2 2 5 7 8 10 11 14 18 19 19 18 16 18 18 14 13 14 15 14 13 14 14 14 14 15 13 13 13 13 13 11 12 12 14 14 14 14 12 11 11
9 7 6 6 7 9 11 11 13 15 18 20 19 15 14 16 17 14 11 12 15 15 16 16 17 18 17 17 16 15 15 15 15 14 13 13 13 13 13 13 12 12 14 12

GFSNGP_850_spd_114.txt.gz
Wind_Speed
7 9 11 21 16 14 15 9 6 6 9 9 10 11 15 18 24 27 31 37 35 35 36 35 33 31 30 33 34 33 28 24 22 17 14 10 6 6 8 13 17 20 22 27
3 3 5 17 21 18 13 12 11 11 8 7 10 13 19 21 24 27 27 27 32 30 30 30 30 27 27 30 32 32 35 33 28 25 21 17 14 11 7 9 14 22 23 27
1 6 9 4 10 14 11 18 5 5 4 5 9 16 21 20 23 24 24 24 26 28 29 29 31 28 28 28 27 29 30 31 33 32 31 28 21 19 16 8 5 6 8 22
2 1 4 2 7 6 17 14 11 10 7 10 14 19 23 21 23 23 22 22 23 25 27 26 29 29 25 23 25 28 28 28 29 30 31 31 29 27 23 19 15 12 8 5
1 2 3 2 7 6 6 8 12 6 2 5 8 5 23 18 19 20 20 18 18 20 20 21 25 29 29 29 28 27 28 28 28 26 27 28 29 28 27 24 22 21 19 15
1 1 2 4 11 8 7 4 11 11 9 10 0 4 3 14 17 19 20 19 17 19 20 22 24 23 28 33 33 33 30 27 24 24 25 25 25 25 24 23 22 19 20 19
4 3 3 8 12 5 2 1 9 11 14 17 6 7 7 9 15 18 19 18 16 18 21 22 22 23 26 28 33 31 28 26 25 24 23 23 21 21 22 22 21 22 23 23
2 3 1 18 3 3 6 7 8 10 10 13 13 11 9 11 15 18 18 17 17 18 19 20 22 22 25 28 24 24 25 26 27 26 25 22 21 20 20 19 20 22 24 25
5 2 5 11 14 11 8 10 7 8 6 7 8 8 9 13 16 17 17 17 17 18 18 19 21 22 23 23 22 21 22 24 25 25 24 23 23 22 22 21 22 22 22 23
1 3 6 8 9 9 10 11 8 6 5 4 6 5 7 9 12 14 15 15 14 14 17 19 20 20 21 20 20 21 21 23 23 23 23 23 22 22 21 22 22 22 21 21
3 6 7 8 7 9 11 9 8 7 5 4 3 3 6 8 9 10 11 12 13 14 15 17 18 20 20 20 21 21 21 22 22 22 22 21 20 20 19 19 18 18 18 18
1 9 5 6 8 6 6 8 6 4 4 3 3 4 5 6 7 9 10 12 12 14 13 15 17 17 18 20 20 20 21 21 21 20 20 18 18 17 16 14 13 14 13 13
5 6 12 14 10 6 7 7 6 4 5 5 5 4 4 4 5 6 8 11 13 14 15 14 15 15 16 17 19 20 20 19 18 18 18 18 17 16 16 15 13 12 12 12
14 16 11 9 6 7 4 5 4 4 4 4 4 4 5 5 5 7 10 12 12 13 13 14 14 14 14 14 15 16 17 18 18 18 17 16 17 18 18 17 14 11 10 11
6 5 8 9 11 7 4 1 0 1 2 3 4 5 6 7 7 8 9 10 12 12 12 13 14 14 14 14 14 15 16 16 16 16 16 15 15 16 16 16 15 13 11 11
11 9 10 10 10 6 3 2 1 2 3 4 4 4 5 7 7 7 8 10 11 14 15 16 16 16 16 15 14 14 14 15 15 16 15 14 14 14 15 15 14 14 13 13
14 10 9 9 7 4 2 1 2 3 4 4 4 4 6 7 8 8 9 11 13 14 16 17 17 17 17 17 16 15 14 15 15 15 15 14 13 13 13 13 13 14 15 14
7 6 6 5 5 3 3 3 4 4 5 4 5 5 7 8 8 10 11 12 12 13 15 17 18 18 18 18 16 15 14 14 14 14 13 12 11 12 11 11 11 12 12 13
5 5 7 7 5 4 4 4 5 4 5 5 5 5 6 7 9 10 11 13 13 15 16 20 22 23 22 19 17 15 14 14 14 13 13 11 10 10 10 9 10 10 10 11
7 7 6 6 6 5 5 6 5 4 3 3 4 5 7 8 10 11 12 12 13 17 20 23 24 23 21 19 17 14 13 13 13 13 13 12 10 8 9 9 10 10 9 9
6 8 8 7 8 8 7 4 3 2 2 3 4 5 6 9 11 12 14 14 15 17 20 22 25 24 21 19 16 14 13 13 13 13 12 12 10 8 8 9 11 12 11 10
8 10 9 9 7 5 4 2 1 1 2 4 7 9 12 14 16 17 16 18 17 18 20 22 23 22 20 18 17 14 13 15 16 14 12 11 11 10 11 12 12 11 12 12
11 10 8 7 6 4 3 3 3 3 4 8 9 12 16 17 17 18 20 20 20 20 19 19 20 19 18 17 17 16 13 13 14 15 14 13 12 12 11 9 9 10 10 10
11 10 8 6 5 4 1 2 4 6 7 9 12 16 18 19 21 19 19 20 18 19 17 17 19 18 17 17 17 17 16 16 15 16 16 14 13 12 9 10 13 12 11 10
10 8 7 6 4 2 1 3 5 7 10 12 16 18 19 20 21 21 22 21 16 15 16 17 18 17 17 17 17 18 17 17 16 16 16 15 13 13 12 13 13 12 12 10
9 7 7 6 2 2 5 7 9 10 13 17 20 19 18 17 18 20 19 17 15 13 16 18 17 18 19 20 21 20 20 19 18 18 16 14 13 13 14 15 15 15 12 12
10 8 6 4 3 5 8 11 11 13 17 19 20 17 17 18 18 20 20 19 18 18 20 22 22 23 23 25 25 24 24 23 22 21 17 15 15 15 15 14 13 12 9 13

GFSNGP_850_spd_117.txt.gz
Wind_Speed
6 9 12 15 17 17 11 4 4 6 6 9 11 11 15 15 18 24 31 34 35 40 38 35 36 34 33 35 32 33 32 28 26 21 18 15 10 8 5 1 7 8 11 16
3 6 0 8 16 13 10 13 12 11 8 7 11 12 15 18 21 22 23 24 27 26 31 36 33 32 32 31 31 29 32 34 31 29 25 22 19 16 10 9 6 6 7 10
2 3 4 2 8 9 11 14 5 6 5 7 9 13 16 17 19 20 20 22 26 28 29 34 36 32 30 29 30 30 30 30 31 32 31 30 25 21 20 18 13 10 7 5
3 3 2 4 3 10 15 11 8 8 7 9 15 17 16 18 18 18 18 19 23 24 25 26 29 33 31 30 30 28 28 29 28 29 30 29 29 28 26 24 22 19 17 15
3 2 4 4 3 2 4 6 9 4 4 10 10 5 17 17 17 16 16 18 21 23 23 22 24 24 30 32 32 32 32 29 27 26 26 26 27 28 28 26 25 24 21 20
2 3 4 3 5 5 5 3 10 8 5 8 7 3 4 14 17 16 15 16 18 19 21 23 24 24 27 31 33 34 31 29 27 25 23 24 24 25 25 25 25 23 23 25
3 1 3 7 9 3 3 3 5 7 11 10 6 7 5 10 15 16 15 17 18 20 23 24 24 24 27 28 31 29 27 26 25 24 23 22 20 20 20 20 20 22 23 24
1 0 2 16 2 1 7 7 7 7 8 14 13 10 9 10 13 14 15 16 18 20 22 23 24 24 25 27 23 23 24 23 23 22 21 20 19 19 19 19 20 22 23 24
3 3 5 10 12 10 9 10 8 9 8 9 9 8 8 9 10 13 14 14 16 18 20 21 22 22 22 21 20 19 19 22 22 21 21 21 20 20 20 21 22 23 24 24
4 4 8 7 11 13 11 12 9 8 9 8 8 6 6 7 10 13 13 15 14 15 18 20 21 21 21 18 18 18 19 19 22 22 23 22 21 21 21 21 21 21 21 20
3 7 9 8 9 11 12 11 9 8 7 7 5 7 6 8 9 12 13 14 15 17 17 18 18 18 19 19 19 17 18 20 20 20 20 20 21 21 19 18 18 18 18 17
1 9 6 6 9 8 8 9 7 5 6 7 6 6 6 8 10 12 14 15 15 16 16 17 17 17 16 17 20 20 20 20 20 19 17 17 16 16 15 14 14 15 15 15
5 8 9 14 9 7 7 7 7 6 7 7 7 7 7 9 10 11 12 13 14 15 15 15 15 15 15 16 17 18 18 18 18 18 18 17 17 17 15 14 13 13 12 12
14 17 11 11 7 8 6 5 4 5 6 6 7 7 7 8 8 9 11 12 13 13 13 13 14 14 14 14 14 15 15 16 16 17 17 16 17 17 16 16 15 14 13 13
5 4 7 10 12 8 5 2 3 4 4 5 6 6 7 7 7 8 9 10 10 10 11 12 14 14 14 14 14 14 14 14 15 15 14 14 14 15 15 15 15 14 13 11
14 13 13 11 10 7 2 0 1 2 3 3 4 5 6 6 7 7 8 8 9 11 13 15 16 17 17 16 15 14 13 13 13 13 13 13 13 13 13 13 14 15 15 14
15 11 11 10 9 6 3 2 3 4 4 4 4 4 5 5 6 7 8 9 11 13 14 16 18 20 19 18 16 14 13 12 12 12 12 12 12 11 12 12 13 13 14 14
7 4 6 5 9 6 6 6 6 6 6 5 4 4 4 5 5 7 9 10 10 12 14 17 20 21 20 18 16 14 12 12 12 12 12 11 10 10 10 10 11 11 12 12
8 7 9 9 9 8 8 8 8 8 6 5 3 3 4 6 8 8 9 9 10 12 15 18 20 23 22 19 17 14 13 12 12 12 12 11 11 10 8 9 9 10 10 11
10 10 11 11 11 9 9 9 7 6 5 3 3 4 5 6 7 9 10 11 13 14 17 19 21 23 23 20 17 15 13 13 12 13 13 12 12 10 8 8 9 9 11 11
11 12 12 11 11 10 9 7 6 4 3 3 4 5 6 8 11 12 14 15 14 16 17 18 20 22 23 21 19 17 15 14 14 14 13 12 11 11 11 9 8 11 12 12
12 12 12 11 11 10 8 6 5 4 3 3 4 6 9 11 13 14 14 16 18 17 17 16 18 19 20 19 18 17 17 16 15 16 15 14 13 12 11 11 11 11 11 13
14 13 13 12 10 8 7 6 5 3 2 4 5 9 13 15 16 18 19 18 19 18 16 15 16 18 19 17 17 16 16 17 17 17 17 17 16 14 13 12 10 11 12 11
15 14 12 11 9 7 4 2 1 1 3 5 8 12 16 18 17 15 16 19 19 17 14 13 15 17 18 18 18 18 18 18 18 18 18 18 18 15 13 11 11 13 13 13
13 12 11 9 8 4 2 1 1 3 6 8 11 15 17 17 17 17 18 19 18 17 15 13 17 19 21 21 22 22 22 23 21 20 19 19 18 16 14 14 14 15 15 14
12 11 10 8 5 4 1 2 5 7 9 12 14 15 15 15 16 18 19 20 19 18 18 19 20 22 23 22 23 23 23 24 23 22 22 22 20 18 17 16 16 15 15 16
13 11 10 7 4 4 4 6 7 9 12 14 14 16 16 16 17 19 20 20 20 20 21 22 23 23 23 22 24 25 25 25 24 24 25 24 24 22 19 18 18 16 15 14

GFSNGP_850_spd_120.txt.gz
Wind_Speed
5 10 1 11 12 14 11 2 5 7 6 8 10 10 15 17 19 21 26 28 29 32 34 38 37 37 35 34 34 34 33 32 32 27 22 19 15 12 9 6 5 2 3 8
7 13 7 5 11 7 8 11 12 11 7 6 9 10 14 18 19 21 23 24 27 27 30 35 35 32 32 33 33 31 31 33 32 30 28 26 24 21 17 15 13 8 6 4
2 8 6 4 5 6 10 13 3 3 6 6 7 11 15 17 18 19 20 21 23 23 25 28 29 33 33 30 28 27 29 31 31 30 30 31 28 26 26 24 20 18 16 14
4 6 6 6 6 10 12 8 7 8 7 8 12 12 12 13 14 16 18 20 21 22 23 25 26 27 28 29 32 32 31 29 27 28 28 27 27 28 28 27 26 24 22 20
3 2 6 5 4 3 1 5 6 2 7 9 11 9 15 13 12 13 13 14 16 18 21 22 24 25 28 32 32 32 31 29 28 25 25 24 25 25 25 23 23 24 23 22
3 5 6 5 1 2 3 4 4 3 3 5 12 1 4 9 10 11 13 14 16 17 17 19 20 20 23 26 29 30 28 27 26 25 24 23 22 21 21 21 22 22 22 22
5 5 4 5 6 3 5 5 7 7 9 4 6 9 6 5 9 10 11 13 14 15 17 18 18 19 22 23 26 26 25 24 24 23 22 21 21 20 19 19 18 19 21 21
3 4 4 9 3 3 9 12 11 10 11 15 13 10 7 8 9 10 10 12 14 14 15 17 19 18 20 22 21 19 19 21 22 21 20 20 19 19 19 19 20 20 20 21
3 3 6 9 11 12 12 13 11 11 9 10 9 8 7 7 9 10 11 11 11 12 13 15 17 18 18 18 16 16 16 17 18 20 21 21 21 21 21 21 21 21 21 21
5 5 7 9 12 13 12 13 12 10 9 8 8 6 7 7 9 10 10 11 10 11 13 14 16 17 17 18 17 16 17 18 18 19 19 20 20 20 21 22 20 19 20 20
5 8 9 8 11 12 13 12 12 10 9 8 8 7 6 7 8 9 9 10 10 12 12 14 15 16 17 17 17 17 17 18 19 18 18 18 18 22 20 19 18 18 18 17
2 14 5 12 12 12 13 12 10 10 10 8 7 7 6 7 7 8 8 9 10 11 12 14 15 16 16 16 16 17 15 15 16 15 15 14 13 11 18 16 16 16 15 14
7 9 12 17 13 11 13 12 11 10 9 9 8 7 7 7 7 8 8 8 9 10 11 12 13 14 14 15 16 15 13 15 13 13 12 13 13 12 12 13 17 16 16 16
18 21 16 15 10 13 13 12 10 10 10 10 9 9 9 8 8 7 7 7 7 9 11 13 14 15 16 16 15 15 14 14 13 13 12 12 12 12 12 13 14 15 16 17
9 5 13 16 16 14 11 10 9 9 10 9 8 8 7 7 6 6 6 7 7 9 10 12 13 15 15 15 15 15 14 12 13 12 12 13 12 12 12 12 12 13 14 15
12 14 16 15 14 12 9 8 9 10 10 9 8 7 7 6 4 4 5 6 6 9 11 14 16 18 18 17 16 13 12 13 13 11 12 11 11 11 11 11 12 12 13 14
16 13 13 13 12 10 8 8 9 10 10 8 7 5 5 4 4 5 7 8 8 9 11 14 17 19 19 18 16 11 11 11 12 10 11 11 11 11 11 11 11 11 11 13
6 8 9 10 12 10 9 9 9 9 8 7 6 4 4 4 3 5 7 8 8 10 11 14 17 19 20 19 17 11 10 11 11 11 11 11 12 11 11 10 10 10 10 12
7 9 9 11 10 9 10 10 10 9 8 6 4 3 2 3 4 6 7 9 10 10 12 16 17 19 20 20 19 10 10 11 11 11 11 11 11 11 11 10 10 10 9 10
9 11 12 12 11 10 11 11 10 8 6 4 3 2 2 3 6 8 11 11 11 11 15 16 17 16 18 19 20 11 11 11 11 11 11 11 11 11 11 11 11 11 10 10
12 13 12 12 13 13 11 10 8 6 5 4 3 2 3 6 9 11 11 10 11 16 16 16 15 12 12 16 14 12 11 11 11 11 12 12 12 12 12 12 11 11 12 11
13 14 14 13 13 12 11 8 7 6 5 3 1 2 6 9 11 12 13 12 12 15 16 12 12 13 15 17 13 13 12 12 12 12 12 13 13 13 13 13 13 12 11 10
15 15 15 14 12 11 9 8 7 6 3 0 2 6 9 9 9 9 9 10 13 14 16 12 13 16 17 19 15 15 15 15 15 15 15 14 14 14 14 13 13 12 12 12
17 17 16 14 12 11 9 7 5 3 2 3 6 8 11 9 9 8 9 13 15 17 16 14 13 16 19 21 19 18 19 19 19 18 19 19 17 15 15 14 13 12 13 14
17 16 15 14 12 9 6 5 3 3 3 3 5 9 12 12 11 11 14 14 16 16 14 14 19 20 21 19 18 18 18 17 18 19 19 19 20 19 17 16 15 14 14 14
18 16 14 12 8 8 6 5 3 3 3 4 5 7 8 11 11 12 11 14 14 15 14 15 15 19 16 15 17 17 17 17 19 19 19 18 19 19 20 20 18 15 14 14
16 14 12 10 8 7 6 4 3 3 5 8 6 8 11 11 12 13 15 14 16 16 15 14 15 17 19 20 17 18 19 19 18 19 18 18 18 18 18 19 21 18 15 14

GFSNGP_850_spd_123.txt.gz
Wind_Speed
11 3 3 3 2 6 6 8 4 7 5 6 8 9 13 14 16 20 24 28 30 32 35 38 39 40 38 37 35 31 34 36 40 38 35 31 25 24 22 19 17 13 8 4
5 13 11 2 1 5 2 5 8 9 6 3 5 7 11 14 16 19 22 24 25 27 31 37 35 34 33 35 34 31 34 37 37 38 35 34 32 30 25 21 20 17 16 14
4 7 6 9 7 5 5 4 3 3 6 6 4 8 11 12 14 15 17 20 22 24 26 28 30 31 32 32 34 35 35 35 36 36 34 33 28 28 29 27 23 21 20 18
5 3 5 5 7 7 9 5 7 9 8 6 8 8 9 11 11 13 14 16 19 24 26 28 25 26 29 33 35 36 37 36 32 29 27 26 27 29 29 26 26 25 24 23
4 7 5 6 9 6 4 4 2 6 9 9 7 5 11 11 10 12 13 14 16 17 19 21 26 24 27 32 33 31 33 31 31 28 27 27 28 27 25 24 25 26 25 24
4 6 4 6 5 3 1 6 4 6 8 11 9 4 4 7 8 10 12 13 15 16 17 20 21 21 24 31 32 33 29 30 28 27 27 27 26 24 22 22 22 22 22 23
9 8 6 3 3 4 6 5 8 6 8 10 6 5 7 4 7 8 10 13 13 15 18 20 20 21 23 25 30 29 28 27 26 26 25 24 22 21 20 19 19 20 21 21
6 6 10 5 5 3 9 14 12 12 12 16 15 10 7 6 6 8 9 11 13 14 17 18 19 20 21 23 21 20 20 21 22 21 24 24 22 20 19 19 20 20 19 20
5 4 6 5 11 11 12 14 12 14 13 13 13 9 7 6 7 8 8 9 11 12 13 15 17 18 18 20 19 19 18 19 19 20 19 19 21 22 22 21 20 20 20 21
6 5 7 9 11 14 13 12 12 11 12 11 12 9 8 7 7 7 8 10 10 11 14 16 17 18 18 19 19 18 18 19 18 19 20 19 17 19 20 23 21 20 21 20
4 8 11 8 11 13 14 11 11 10 10 11 11 10 8 8 7 8 8 9 10 11 12 14 14 16 17 18 18 17 16 17 18 17 18 17 17 21 20 23 23 21 20 18
1 16 3 15 12 13 14 11 10 10 11 10 9 9 8 8 8 7 8 8 9 11 11 12 14 16 17 17 17 17 16 17 17 17 17 16 15 14 20 23 26 25 22 19
5 14 14 18 14 11 12 10 9 9 10 11 10 9 9 9 8 8 8 8 9 10 10 11 13 16 17 18 18 17 14 14 13 14 14 14 15 14 15 15 19 24 27 25
18 22 17 16 10 12 11 11 11 10 10 10 10 10 9 9 7 6 6 6 7 8 11 13 15 17 18 17 17 17 15 15 15 14 15 15 15 15 15 16 17 17 19 24
14 6 16 14 17 14 12 11 10 10 11 10 9 9 8 7 5 5 5 6 7 9 10 11 13 16 17 17 16 15 13 13 15 13 13 15 15 15 15 16 16 17 17 18
13 17 19 19 17 15 12 10 10 11 11 10 9 9 7 6 4 2 3 3 1 5 8 11 14 17 18 18 16 12 12 14 15 13 13 14 15 15 15 15 15 16 16 19
20 19 17 17 16 14 11 10 11 12 12 11 10 8 7 5 3 2 3 5 6 7 10 12 15 17 18 17 17 12 12 12 14 13 13 14 14 15 15 16 15 15 15 21
10 14 14 15 16 15 13 13 13 13 12 11 9 7 5 3 2 3 5 7 9 10 11 13 17 18 18 19 20 12 12 13 13 14 14 14 15 15 15 15 15 15 15 15
11 13 13 14 15 14 15 15 14 13 12 10 8 6 4 2 2 4 7 10 10 12 10 18 18 18 12 15 17 10 12 14 14 14 14 15 15 14 15 15 15 16 16 15
12 12 14 15 15 16 17 15 14 13 11 9 7 5 2 1 4 7 9 9 7 8 15 14 14 12 12 13 17 11 14 14 14 15 15 16 15 16 15 16 17 16 15 15
17 18 19 17 17 15 14 14 13 12 10 8 6 4 0 4 6 8 8 7 7 16 17 15 14 13 10 14 17 13 16 16 16 16 16 16 17 16 16 16 17 16 16 16
15 16 16 16 16 16 15 13 12 10 8 6 4 1 2 7 10 11 12 10 8 14 12 12 13 16 18 22 17 16 16 17 18 18 18 18 18 18 17 17 17 17 16 16
15 16 17 16 16 15 13 11 10 8 6 4 3 2 3 5 5 6 7 8 12 14 15 13 16 18 20 20 17 19 20 21 21 22 22 22 21 21 21 20 18 18 16 15
16 17 17 16 14 12 11 10 8 6 4 3 3 5 4 5 6 6 7 12 13 18 14 14 18 21 22 18 18 19 21 21 21 21 21 22 23 23 23 22 21 20 19 17
17 17 16 14 12 10 8 8 6 5 3 3 4 6 5 5 6 8 9 10 14 14 14 14 20 20 18 17 17 18 19 20 20 20 22 22 20 21 22 23 24 23 20 18
17 14 13 12 8 8 7 7 5 5 4 4 4 8 7 7 7 8 9 11 13 15 14 15 16 18 17 18 19 18 18 20 20 21 21 21 21 22 22 23 22 24 22 21
13 12 11 10 8 8 7 6 5 5 5 4 3 8 6 6 7 8 11 11 12 13 14 15 16 17 17 18 18 18 18 18 19 20 20 20 20 20 21 21 18 19 24 20

GFSNGP_850_spd_126.txt.gz
Wind_Speed
17 16 8 3 3 5 4 7 5 3 5 1 3 6 8 11 14 17 22 25 29 33 36 37 40 41 45 42 43 44 46 45 43 35 37 36 37 32 25 23 20 17 11 5
12 16 13 7 6 9 6 2 2 6 5 4 4 7 9 13 14 17 18 21 25 28 32 32 33 36 37 40 41 39 41 40 37 39 32 33 34 35 30 30 28 22 21 19
11 7 10 9 14 9 6 6 6 6 6 10 5 8 9 10 12 14 16 18 22 27 27 30 30 36 37 32 39 40 40 42 41 37 32 34 34 33 34 35 30 28 26 25
7 3 5 2 5 10 8 5 6 9 10 9 10 11 9 8 10 12 13 15 18 22 25 27 26 29 36 38 38 41 44 40 37 34 34 31 30 33 32 30 29 29 29 28
4 8 2 4 8 9 8 7 6 9 10 12 13 12 11 6 7 9 10 12 14 16 19 22 28 28 34 37 39 40 40 40 35 33 30 27 30 30 29 29 29 29 29 26
5 10 7 4 7 5 5 5 10 11 13 14 12 3 4 4 7 9 9 11 12 14 17 20 22 25 28 33 36 37 37 35 34 33 32 32 30 29 27 26 25 25 25 26
9 8 3 5 4 3 5 3 7 10 11 13 7 8 10 6 9 8 8 10 10 13 16 17 17 19 25 26 28 26 25 27 28 31 31 30 27 26 24 24 22 24 24 23
9 9 10 3 3 3 5 10 9 12 13 19 18 13 9 7 12 8 8 10 11 13 16 18 19 20 23 27 24 22 22 22 24 23 24 24 26 26 26 24 24 24 22 22
4 3 4 2 6 8 9 12 11 13 12 14 14 11 8 9 12 9 9 10 11 13 15 18 20 21 23 23 21 21 21 23 24 24 25 26 28 29 30 30 29 27 26 25
5 6 9 8 9 11 12 14 13 12 13 11 11 9 8 8 8 9 9 10 10 12 14 16 17 19 19 20 19 20 22 22 23 24 25 26 28 30 32 33 32 30 30 28
5 9 10 8 11 14 14 13 11 10 11 11 11 10 9 9 9 9 9 10 11 12 13 14 15 18 19 20 19 19 18 19 20 21 20 19 22 24 27 29 30 30 30 30
1 19 6 15 15 13 14 12 11 11 10 9 9 10 9 9 9 9 9 9 10 11 11 12 15 19 20 20 20 19 17 18 17 17 18 18 17 16 20 23 26 26 29 31
6 12 15 21 18 15 15 12 10 10 9 10 10 10 9 10 10 10 9 9 9 8 9 12 17 19 20 20 19 18 17 16 18 14 16 18 18 18 20 17 20 22 25 28
18 23 17 18 12 15 14 12 12 11 11 10 11 11 9 10 8 6 6 7 7 8 11 15 17 19 20 20 19 17 17 15 19 17 15 18 19 18 18 19 19 20 19 24
17 3 16 16 18 16 14 14 13 12 12 11 9 9 8 8 7 6 5 6 5 9 12 14 15 18 19 19 18 17 17 17 21 18 16 17 18 18 18 17 19 19 20 23
12 15 18 20 18 16 14 13 13 13 12 11 10 9 7 6 5 4 4 5 3 8 11 12 16 19 20 20 20 16 14 15 18 17 17 18 18 18 19 18 19 20 20 22
19 19 20 18 17 15 13 12 13 14 14 13 10 8 6 4 3 3 5 6 7 9 12 12 18 21 22 17 18 16 14 15 16 16 16 17 18 19 17 18 19 20 19 22
13 15 15 16 18 16 13 14 15 15 13 11 9 7 5 4 2 3 5 7 10 10 13 14 20 19 19 22 21 17 12 16 17 16 17 18 20 18 18 20 19 19 20 20
13 14 14 15 16 16 15 15 14 14 12 10 9 8 5 3 1 4 7 8 8 11 13 19 21 21 16 16 23 22 13 16 20 17 19 19 21 19 20 21 19 21 22 21
15 14 14 15 15 16 19 17 15 13 13 11 9 7 4 1 3 6 7 9 7 10 16 18 16 17 15 13 19 21 16 18 21 20 20 22 21 22 22 20 22 22 22 21
17 18 20 20 20 17 15 14 14 14 12 10 9 6 2 2 5 8 8 6 11 17 18 13 15 17 14 16 19 22 22 20 20 21 23 24 25 24 23 24 23 23 23 22
18 18 18 18 17 16 16 15 14 12 11 10 7 5 2 6 7 9 10 9 7 14 18 14 12 17 21 23 22 19 19 20 22 24 25 25 26 27 27 24 26 26 24 24
16 17 17 17 17 17 16 14 13 11 10 8 6 3 1 1 4 5 6 6 10 18 20 14 15 19 22 24 22 18 19 21 22 23 25 27 26 25 27 30 30 27 28 24
16 17 17 17 16 15 14 13 12 10 8 6 3 2 4 1 2 4 7 9 16 17 13 14 19 22 24 21 18 18 20 22 22 23 23 21 22 23 20 20 24 28 26 28
16 17 18 16 15 12 11 12 8 5 3 3 5 7 3 5 7 10 11 10 14 16 16 15 19 20 21 18 19 22 22 18 20 23 23 24 24 24 24 23 23 22 22 24
17 16 15 13 10 10 8 9 8 9 5 5 6 9 9 11 9 10 10 13 13 16 15 16 17 19 18 19 20 20 19 20 19 20 23 26 25 23 22 24 25 26 24 21
13 12 13 12 10 10 10 8 8 8 11 10 5 8 9 11 10 10 13 13 15 14 17 18 16 16 18 20 17 20 18 18 19 21 22 18 17 22 23 23 22 21 22 22

GFSNGP_850_spd_129.txt.gz
Wind_Speed
7 7 9 11 7 4 4 5 5 2 3 5 4 5 3 8 10 13 17 27 30 33 33 35 39 40 42 42 41 42 44 48 48 49 50 49 45 45 40 40 36 33 29 25
5 8 11 13 10 8 7 5 2 4 3 5 10 9 4 9 9 11 15 21 26 28 32 31 37 39 40 41 43 43 44 45 44 45 46 48 46 44 42 39 35 33 34 32
4 4 7 6 9 9 5 5 6 7 4 13 9 8 5 6 9 10 13 16 21 24 26 28 31 35 37 40 39 42 44 41 41 41 42 44 45 41 39 37 34 36 37 36
3 6 3 2 4 6 10 8 10 10 9 9 14 10 8 7 9 10 13 14 17 20 22 25 25 30 33 35 39 39 41 42 41 41 42 41 39 39 36 34 34 35 34 33
2 2 3 1 2 1 5 5 8 11 12 19 18 15 7 4 10 9 11 11 13 14 17 20 21 24 29 32 33 38 37 39 39 39 39 38 38 37 34 30 32 33 31 29
1 3 3 1 6 13 8 2 7 17 18 21 20 4 3 5 12 13 11 9 9 11 12 14 17 20 27 29 29 29 30 31 33 35 36 36 35 33 29 30 29 27 26 27
6 4 1 2 4 5 2 3 5 14 20 21 8 3 14 13 11 12 10 10 8 11 14 13 13 15 22 26 27 23 24 24 29 33 33 31 29 28 27 25 23 23 24 25
4 3 7 4 2 3 3 15 13 13 13 20 20 16 13 16 14 13 10 9 8 10 13 14 15 16 17 22 21 18 19 24 25 26 28 27 26 25 23 22 23 23 23 23
2 2 4 4 6 7 13 17 14 14 14 17 17 16 18 18 15 13 12 11 9 10 11 14 16 17 18 17 17 19 20 22 22 21 22 24 26 28 30 28 26 27 26 24
4 5 6 7 8 9 10 13 11 13 13 12 17 19 18 15 11 8 7 6 4 6 11 15 17 18 18 17 14 16 18 18 19 20 19 19 22 24 26 28 28 28 28 29
4 8 11 9 12 14 15 14 14 13 12 14 18 16 14 15 13 11 6 3 4 7 11 15 16 18 18 18 18 17 19 19 18 19 20 20 21 22 23 24 25 26 28 29
3 18 7 14 16 17 19 18 18 16 14 11 13 17 15 13 10 8 5 2 5 8 11 14 16 18 20 20 20 19 19 22 19 17 18 20 20 19 20 21 20 21 23 25
6 20 9 22 19 17 18 17 16 16 15 15 15 15 14 15 12 9 5 4 6 9 11 13 16 19 20 20 19 19 19 22 22 19 19 20 21 21 20 17 17 19 20 21
18 20 17 22 15 18 16 16 15 16 16 17 15 13 12 12 9 6 6 5 6 8 10 13 15 17 18 18 17 15 16 18 21 17 17 18 19 18 18 19 18 17 19 22
12 1 17 19 22 20 19 20 19 19 17 15 12 11 10 10 8 6 5 2 3 8 9 10 13 15 17 16 17 14 14 16 18 15 15 16 17 19 19 16 15 16 18 19
12 13 23 25 23 23 21 19 19 17 14 13 14 13 11 9 7 6 5 3 3 4 7 7 14 18 19 17 16 15 15 16 18 18 17 18 21 23 19 18 19 20 19 21
22 22 23 24 26 22 20 18 16 18 17 15 13 11 10 8 6 4 3 2 3 4 7 12 18 19 20 16 17 18 18 17 19 21 18 20 22 22 22 21 23 21 21 23
17 20 23 23 22 22 20 19 17 17 16 14 12 11 9 7 5 3 3 3 2 5 10 16 18 17 16 18 18 19 20 20 19 21 20 20 21 23 21 23 21 21 23 23
16 19 19 18 19 20 19 18 16 16 14 13 12 10 8 5 3 2 3 3 3 8 14 17 15 16 15 15 17 19 22 23 22 19 20 20 22 23 24 23 22 23 24 24
17 16 15 17 18 18 17 16 14 14 14 13 12 9 7 4 2 3 3 4 5 7 13 15 13 14 14 15 16 20 24 27 24 18 19 22 23 24 25 25 26 26 24 25
16 15 15 16 16 14 12 13 13 14 14 12 10 8 6 3 4 5 5 4 6 10 13 16 16 15 15 18 21 22 23 17 17 19 21 22 19 20 23 23 19 19 23 25
16 16 16 16 15 15 13 13 13 13 12 10 9 8 6 3 3 4 3 4 8 11 15 20 20 17 18 21 23 23 17 15 15 14 14 19 21 19 19 22 22 20 20 21
16 16 15 15 14 14 15 14 13 12 11 10 8 7 5 3 3 3 3 7 9 14 19 20 17 19 21 22 22 20 19 20 22 24 24 25 25 24 25 24 22 22 23 23
16 16 15 15 15 15 16 15 13 12 10 9 7 4 3 6 5 6 6 10 16 18 18 18 21 21 22 22 22 21 22 23 22 21 23 24 25 25 25 26 26 26 25 22
14 16 16 17 16 15 13 13 13 11 9 8 6 2 3 4 5 10 12 13 14 16 18 19 20 21 22 22 22 23 23 22 22 23 23 24 25 24 23 23 24 25 26 25
15 16 16 14 13 12 11 13 11 8 6 6 7 9 10 8 10 12 13 14 16 18 19 19 21 22 21 21 21 21 21 22 22 23 23 22 21 21 23 25 25 22 18 19
14 14 16 14 10 7 8 11 10 13 12 14 13 12 12 12 13 14 15 16 18 18 18 19 19 19 19 20 21 21 21 22 22 23 22 22 22 23 23 21 16 14 17 22